Time,TemperatureF,DewpointF,PressureIn,WindDirection,WindDirectionDegrees,WindSpeedMPH,WindSpeedGustMPH,Humidity,HourlyPrecipIn,Conditions,Clouds,dailyrainin,SoftwareType,DateUTC
2013-06-12 00:00:00,66.0,64.6,28.70,WNW,298,7.4,7.4,95,0.20,,---,0.00,VWS V14.01,2013-06-12 04:00:00,
2013-06-12 00:01:00,66.0,64.6,28.70,NW,324,6.7,7.4,95,0.24,,---,0.04,VWS V14.01,2013-06-12 04:01:00,
2013-06-12 00:02:00,66.0,64.6,28.70,North,356,7.4,10.5,95,0.24,,---,0.04,VWS V14.01,2013-06-12 04:02:00,
2013-06-12 00:03:00,66.0,64.6,28.70,NW,318,5.8,8.7,95,0.24,,---,0.04,VWS V14.01,2013-06-12 04:03:00,
2013-06-12 00:04:00,66.0,64.6,28.70,North,356,3.6,7.8,95,0.28,,---,0.08,VWS V14.01,2013-06-12 04:04:00,
2013-06-12 00:05:00,66.0,64.6,28.70,North,11,3.6,10.1,95,0.31,,---,0.12,VWS V14.01,2013-06-12 04:05:00,
2013-06-12 00:06:00,66.0,64.8,28.70,North,6,0.0,7.8,96,0.35,,---,0.16,VWS V14.01,2013-06-12 04:06:00,
2013-06-12 00:07:00,66.0,64.8,28.70,NNW,330,5.4,6.9,96,0.35,,---,0.16,VWS V14.01,2013-06-12 04:07:00,
2013-06-12 00:08:00,66.0,64.8,28.70,WSW,250,5.4,5.4,96,0.39,,---,0.20,VWS V14.01,2013-06-12 04:08:00,
2013-06-12 00:09:00,66.0,64.8,28.70,NNE,16,4.0,5.4,96,0.43,,---,0.24,VWS V14.01,2013-06-12 04:09:00,
2013-06-12 00:10:00,66.2,65.0,28.70,NNE,17,3.6,4.5,96,0.47,,---,0.28,VWS V14.01,2013-06-12 04:10:00,
2013-06-12 00:11:00,66.2,65.0,28.70,NNE,30,5.8,6.3,96,0.55,,---,0.35,VWS V14.01,2013-06-12 04:11:00,
2013-06-12 00:12:00,66.2,65.0,28.70,ENE,72,3.6,5.8,96,0.55,,---,0.35,VWS V14.01,2013-06-12 04:12:00,
2013-06-12 00:13:00,66.2,65.0,28.70,East,88,0.0,4.5,96,0.59,,---,0.39,VWS V14.01,2013-06-12 04:13:00,
2013-06-12 00:14:00,66.2,65.0,28.70,NNE,31,0.0,4.0,96,0.59,,---,0.39,VWS V14.01,2013-06-12 04:14:00,
2013-06-12 00:15:00,66.2,65.0,28.70,SE,136,2.7,2.7,96,0.59,,---,0.39,VWS V14.01,2013-06-12 04:15:00,
2013-06-12 00:16:00,66.2,65.0,28.70,NNW,330,0.0,2.7,96,0.63,,---,0.43,VWS V14.01,2013-06-12 04:16:00,
2013-06-12 00:17:00,66.2,65.0,28.70,SE,131,2.7,4.0,96,0.63,,---,0.43,VWS V14.01,2013-06-12 04:17:00,
2013-06-12 00:18:00,66.2,65.0,28.70,West,260,0.0,4.0,96,0.63,,---,0.43,VWS V14.01,2013-06-12 04:18:00,
2013-06-12 00:19:00,66.4,65.2,28.70,West,260,0.0,0.0,96,0.67,,---,0.47,VWS V14.01,2013-06-12 04:19:00,
2013-06-12 00:20:00,66.2,65.0,28.70,West,260,0.0,0.0,96,0.67,,---,0.47,VWS V14.01,2013-06-12 04:20:00,
2013-06-12 00:21:00,66.4,65.2,28.70,West,261,0.0,0.0,96,0.67,,---,0.47,VWS V14.01,2013-06-12 04:21:00,
2013-06-12 00:22:00,66.4,65.2,28.70,West,261,0.0,0.0,96,0.67,,---,0.47,VWS V14.01,2013-06-12 04:22:00,
2013-06-12 00:23:00,66.4,65.2,28.70,West,261,0.0,0.0,96,0.67,,---,0.47,VWS V14.01,2013-06-12 04:23:00,
2013-06-12 00:24:00,66.4,65.2,28.70,NW,313,2.7,2.7,96,0.71,,---,0.51,VWS V14.01,2013-06-12 04:24:00,
2013-06-12 00:25:00,66.6,65.4,28.70,NNW,333,0.0,4.5,96,0.71,,---,0.51,VWS V14.01,2013-06-12 04:25:00,
2013-06-12 00:26:00,66.6,65.4,28.70,NW,313,4.9,4.9,96,0.71,,---,0.51,VWS V14.01,2013-06-12 04:26:00,
2013-06-12 00:27:00,66.6,65.4,28.67,NW,311,0.0,4.9,96,0.75,,---,0.55,VWS V14.01,2013-06-12 04:27:00,
2013-06-12 00:28:00,66.4,65.2,28.67,NW,311,0.0,0.0,96,0.75,,---,0.55,VWS V14.01,2013-06-12 04:28:00,
2013-06-12 00:29:00,66.4,65.2,28.67,NW,308,0.0,4.9,96,0.75,,---,0.55,VWS V14.01,2013-06-12 04:29:00,
2013-06-12 00:30:00,66.4,65.2,28.67,NW,308,0.0,0.0,96,0.79,,---,0.59,VWS V14.01,2013-06-12 04:30:00,
2013-06-12 00:31:00,66.4,65.2,28.67,WSW,257,3.6,3.6,96,0.79,,---,0.59,VWS V14.01,2013-06-12 04:31:00,
2013-06-12 00:32:00,66.6,65.4,28.67,WSW,256,0.0,3.6,96,0.83,,---,0.63,VWS V14.01,2013-06-12 04:32:00,
2013-06-12 00:33:00,66.6,65.4,28.67,WSW,256,0.0,3.1,96,0.87,,---,0.67,VWS V14.01,2013-06-12 04:33:00,
2013-06-12 00:34:00,66.6,65.7,28.67,WSW,256,0.0,2.7,97,0.87,,---,0.67,VWS V14.01,2013-06-12 04:34:00,
2013-06-12 00:35:00,66.6,65.4,28.67,NW,305,2.7,5.8,96,0.87,,---,0.67,VWS V14.01,2013-06-12 04:35:00,
2013-06-12 00:36:00,66.6,65.7,28.67,NNE,31,2.7,4.5,97,0.87,,---,0.67,VWS V14.01,2013-06-12 04:36:00,
2013-06-12 00:37:00,66.6,65.7,28.67,NNE,30,0.0,3.1,97,0.87,,---,0.67,VWS V14.01,2013-06-12 04:37:00,
2013-06-12 00:38:00,66.6,65.7,28.67,North,0,2.7,3.1,97,0.91,,---,0.71,VWS V14.01,2013-06-12 04:38:00,
2013-06-12 00:39:00,66.6,65.7,28.67,NW,322,5.8,7.8,97,0.91,,---,0.71,VWS V14.01,2013-06-12 04:39:00,
2013-06-12 00:40:00,66.6,65.7,28.67,NNW,331,4.9,6.9,97,0.91,,---,0.71,VWS V14.01,2013-06-12 04:40:00,
2013-06-12 00:41:00,66.6,65.7,28.67,North,351,4.0,7.4,97,0.91,,---,0.71,VWS V14.01,2013-06-12 04:41:00,
2013-06-12 00:42:00,66.6,65.7,28.67,NE,42,0.0,4.9,97,0.91,,---,0.71,VWS V14.01,2013-06-12 04:42:00,
2013-06-12 00:43:00,66.6,65.7,28.67,WNW,302,3.6,4.5,97,0.91,,---,0.71,VWS V14.01,2013-06-12 04:43:00,
2013-06-12 00:44:00,66.6,65.7,28.67,North,4,4.5,5.8,97,0.94,,---,0.75,VWS V14.01,2013-06-12 04:44:00,
2013-06-12 00:45:00,66.6,65.7,28.67,NE,53,7.4,7.4,97,0.98,,---,0.79,VWS V14.01,2013-06-12 04:45:00,
2013-06-12 00:46:00,66.6,65.7,28.67,North,8,4.9,7.4,97,0.98,,---,0.79,VWS V14.01,2013-06-12 04:46:00,
2013-06-12 00:47:00,66.6,65.7,28.67,NE,48,4.5,5.8,97,0.98,,---,0.79,VWS V14.01,2013-06-12 04:47:00,
2013-06-12 00:48:00,66.6,65.7,28.67,SE,145,4.5,4.5,97,0.94,,---,0.79,VWS V14.01,2013-06-12 04:48:00,
2013-06-12 00:49:00,66.6,65.7,28.67,North,356,2.7,5.4,97,0.98,,---,0.83,VWS V14.01,2013-06-12 04:49:00,
2013-06-12 00:50:00,66.7,65.9,28.67,NNW,327,5.8,6.3,97,0.98,,---,0.83,VWS V14.01,2013-06-12 04:50:00,
2013-06-12 00:51:00,66.7,65.9,28.67,WSW,254,10.1,10.1,97,0.98,,---,0.83,VWS V14.01,2013-06-12 04:51:00,
2013-06-12 00:52:00,66.7,65.9,28.67,NNW,336,0.0,10.1,97,0.98,,---,0.83,VWS V14.01,2013-06-12 04:52:00,
2013-06-12 00:53:00,66.7,65.9,28.67,West,273,4.9,4.9,97,0.94,,---,0.83,VWS V14.01,2013-06-12 04:53:00,
2013-06-12 00:54:00,66.7,65.9,28.67,WNW,296,0.0,5.8,97,0.94,,---,0.83,VWS V14.01,2013-06-12 04:54:00,
2013-06-12 00:55:00,66.7,65.9,28.67,WNW,295,0.0,0.0,97,0.94,,---,0.83,VWS V14.01,2013-06-12 04:55:00,
2013-06-12 00:56:00,66.7,65.9,28.67,WNW,295,0.0,0.0,97,0.94,,---,0.83,VWS V14.01,2013-06-12 04:56:00,
2013-06-12 00:57:00,66.7,65.9,28.64,WNW,302,2.7,4.0,97,0.91,,---,0.83,VWS V14.01,2013-06-12 04:57:00,
2013-06-12 00:58:00,66.9,66.0,28.64,WNW,302,0.0,2.7,97,0.91,,---,0.83,VWS V14.01,2013-06-12 04:58:00,
2013-06-12 00:59:00,66.9,66.0,28.64,WNW,302,0.0,0.0,97,0.87,,---,0.83,VWS V14.01,2013-06-12 04:59:00,
2013-06-12 01:00:00,66.9,66.0,28.64,WNW,302,0.0,0.0,97,0.83,,---,0.83,VWS V14.01,2013-06-12 05:00:00,
2013-06-12 01:01:00,66.9,66.0,28.64,WNW,302,0.0,0.0,97,0.83,,---,0.83,VWS V14.01,2013-06-12 05:01:00,
2013-06-12 01:02:00,66.9,66.0,28.64,WNW,302,0.0,0.0,97,0.79,,---,0.83,VWS V14.01,2013-06-12 05:02:00,
2013-06-12 01:03:00,66.9,66.0,28.64,WNW,302,0.0,0.0,97,0.79,,---,0.83,VWS V14.01,2013-06-12 05:03:00,
2013-06-12 01:04:00,66.9,66.0,28.64,WNW,302,0.0,0.0,97,0.79,,---,0.83,VWS V14.01,2013-06-12 05:04:00,
2013-06-12 01:05:00,66.9,66.0,28.64,WNW,302,0.0,0.0,97,0.75,,---,0.83,VWS V14.01,2013-06-12 05:05:00,
2013-06-12 01:06:00,67.1,66.2,28.64,WNW,302,0.0,0.0,97,0.75,,---,0.87,VWS V14.01,2013-06-12 05:06:00,
2013-06-12 01:07:00,67.1,66.2,28.64,WNW,302,0.0,0.0,97,0.71,,---,0.87,VWS V14.01,2013-06-12 05:07:00,
2013-06-12 01:08:00,67.1,66.2,28.64,WNW,302,0.0,0.0,97,0.71,,---,0.87,VWS V14.01,2013-06-12 05:08:00,
2013-06-12 01:09:00,67.3,66.4,28.64,WNW,302,0.0,0.0,97,0.67,,---,0.87,VWS V14.01,2013-06-12 05:09:00,
2013-06-12 01:10:00,67.3,66.4,28.64,WNW,302,0.0,0.0,97,0.63,,---,0.87,VWS V14.01,2013-06-12 05:10:00,
2013-06-12 01:11:00,67.3,66.4,28.64,WNW,302,0.0,0.0,97,0.59,,---,0.87,VWS V14.01,2013-06-12 05:11:00,
2013-06-12 01:12:00,67.5,66.6,28.67,WNW,302,0.0,0.0,97,0.51,,---,0.87,VWS V14.01,2013-06-12 05:12:00,
2013-06-12 01:13:00,67.5,66.6,28.67,WNW,302,0.0,0.0,97,0.51,,---,0.87,VWS V14.01,2013-06-12 05:13:00,
2013-06-12 01:14:00,67.5,66.6,28.67,WNW,302,0.0,0.0,97,0.47,,---,0.87,VWS V14.01,2013-06-12 05:14:00,
2013-06-12 01:15:00,67.5,66.6,28.67,WNW,302,0.0,0.0,97,0.47,,---,0.87,VWS V14.01,2013-06-12 05:15:00,
2013-06-12 01:16:00,67.5,66.6,28.67,WNW,302,0.0,0.0,97,0.47,,---,0.87,VWS V14.01,2013-06-12 05:16:00,
2013-06-12 01:17:00,67.5,66.6,28.67,WNW,302,0.0,0.0,97,0.43,,---,0.87,VWS V14.01,2013-06-12 05:17:00,
2013-06-12 01:18:00,67.5,66.6,28.67,WNW,302,0.0,0.0,97,0.47,,---,0.91,VWS V14.01,2013-06-12 05:18:00,
2013-06-12 01:19:00,67.5,66.6,28.67,WNW,302,0.0,0.0,97,0.47,,---,0.91,VWS V14.01,2013-06-12 05:19:00,
2013-06-12 01:20:00,67.5,66.6,28.67,WNW,302,0.0,0.0,97,0.43,,---,0.91,VWS V14.01,2013-06-12 05:20:00,
2013-06-12 01:21:00,67.5,66.6,28.67,WNW,302,0.0,0.0,97,0.43,,---,0.91,VWS V14.01,2013-06-12 05:21:00,
2013-06-12 01:22:00,67.5,66.6,28.67,WNW,302,0.0,0.0,97,0.43,,---,0.91,VWS V14.01,2013-06-12 05:22:00,
2013-06-12 01:23:00,67.5,66.6,28.67,ENE,66,0.0,0.0,97,0.43,,---,0.91,VWS V14.01,2013-06-12 05:23:00,
2013-06-12 01:24:00,69.4,65.7,28.82,West,264,0.0,0.0,88,0.00,,---,0.00,VWS V14.01,2013-06-12 05:24:00,
2013-06-12 01:25:00,67.3,66.4,28.67,ENE,66,3.6,3.6,97,0.43,,---,0.94,VWS V14.01,2013-06-12 05:25:00,
2013-06-12 01:26:00,67.3,66.4,28.67,East,84,3.1,4.5,97,0.47,,---,0.98,VWS V14.01,2013-06-12 05:26:00,
2013-06-12 01:27:00,67.3,66.4,28.61,East,84,0.0,3.1,97,0.47,,---,0.98,VWS V14.01,2013-06-12 05:27:00,
2013-06-12 01:28:00,67.5,66.6,28.61,West,267,3.6,4.5,97,0.43,,---,0.98,VWS V14.01,2013-06-12 05:28:00,
2013-06-12 01:29:00,67.5,66.6,28.61,NNW,332,3.6,4.0,97,0.47,,---,1.02,VWS V14.01,2013-06-12 05:29:00,
2013-06-12 01:30:00,69.6,65.9,28.85,West,264,0.0,0.0,88,0.00,,---,0.00,VWS V14.01,2013-06-12 05:30:00,
2013-06-12 01:31:00,67.3,66.4,28.61,NNE,20,0.0,0.0,97,0.47,,---,1.06,VWS V14.01,2013-06-12 05:31:00,
2013-06-12 01:32:00,67.3,66.4,28.61,NNE,20,0.0,0.0,97,0.55,,---,1.14,VWS V14.01,2013-06-12 05:32:00,
2013-06-12 01:33:00,67.3,66.4,28.61,ESE,122,2.7,4.0,97,0.51,,---,1.14,VWS V14.01,2013-06-12 05:33:00,
2013-06-12 01:34:00,67.5,66.6,28.61,ESE,122,0.0,2.7,97,0.47,,---,1.14,VWS V14.01,2013-06-12 05:34:00,
2013-06-12 01:35:00,67.5,66.6,28.61,NW,310,3.1,3.6,97,0.51,,---,1.18,VWS V14.01,2013-06-12 05:35:00,
2013-06-12 01:36:00,69.4,65.7,28.85,West,264,0.0,0.0,88,0.00,,---,0.00,VWS V14.01,2013-06-12 05:36:00,
2013-06-12 01:37:00,67.5,66.6,28.61,NW,308,0.0,0.0,97,0.55,,---,1.22,VWS V14.01,2013-06-12 05:37:00,
2013-06-12 01:38:00,67.5,66.6,28.61,SSE,159,0.0,4.0,97,0.59,,---,1.26,VWS V14.01,2013-06-12 05:38:00,
2013-06-12 01:39:00,67.5,66.6,28.61,SE,134,3.6,4.9,97,0.59,,---,1.30,VWS V14.01,2013-06-12 05:39:00,
2013-06-12 01:40:00,67.5,66.6,28.61,ENE,69,3.1,3.6,97,0.59,,---,1.30,VWS V14.01,2013-06-12 05:40:00,
2013-06-12 01:41:00,67.5,66.6,28.61,ENE,75,0.0,3.6,97,0.59,,---,1.30,VWS V14.01,2013-06-12 05:41:00,
2013-06-12 01:42:00,67.6,66.8,28.61,ENE,75,0.0,0.0,97,0.59,,---,1.30,VWS V14.01,2013-06-12 05:42:00,
2013-06-12 01:43:00,67.6,66.8,28.61,ENE,75,0.0,0.0,97,0.63,,---,1.34,VWS V14.01,2013-06-12 05:43:00,
2013-06-12 01:44:00,67.8,66.9,28.61,NNW,334,5.4,6.9,97,0.63,,---,1.34,VWS V14.01,2013-06-12 05:44:00,
2013-06-12 01:45:00,69.4,65.7,28.85,West,264,0.0,0.0,88,0.00,,---,0.00,VWS V14.01,2013-06-12 05:45:00,
2013-06-12 01:46:00,67.8,66.9,28.61,North,356,0.0,4.9,97,0.55,,---,1.34,VWS V14.01,2013-06-12 05:46:00,
2013-06-12 01:47:00,68.0,67.1,28.61,SSW,207,4.0,7.8,97,0.55,,---,1.34,VWS V14.01,2013-06-12 05:47:00,
2013-06-12 01:48:00,68.0,67.1,28.61,NW,314,2.7,5.4,97,0.55,,---,1.34,VWS V14.01,2013-06-12 05:48:00,
2013-06-12 01:49:00,68.2,67.3,28.61,SW,232,2.7,4.9,97,0.59,,---,1.38,VWS V14.01,2013-06-12 05:49:00,
2013-06-12 01:50:00,68.2,67.3,28.61,West,262,3.6,6.3,97,0.55,,---,1.38,VWS V14.01,2013-06-12 05:50:00,
2013-06-12 01:51:00,68.2,67.3,28.61,WSW,251,4.5,7.8,97,0.59,,---,1.42,VWS V14.01,2013-06-12 05:51:00,
2013-06-12 01:52:00,69.3,65.6,28.85,West,264,0.0,0.0,88,0.00,,---,0.00,VWS V14.01,2013-06-12 05:52:00,
2013-06-12 01:53:00,68.4,67.5,28.61,WNW,289,4.9,5.8,97,0.59,,---,1.42,VWS V14.01,2013-06-12 05:53:00,
2013-06-12 01:54:00,68.5,67.7,28.61,West,278,5.4,7.4,97,0.63,,---,1.46,VWS V14.01,2013-06-12 05:54:00,
2013-06-12 01:55:00,68.5,67.7,28.61,WSW,240,0.0,5.4,97,0.67,,---,1.50,VWS V14.01,2013-06-12 05:55:00,
2013-06-12 01:56:00,68.5,67.7,28.61,WSW,241,0.0,4.9,97,0.67,,---,1.50,VWS V14.01,2013-06-12 05:56:00,
2013-06-12 01:57:00,68.5,67.7,28.61,WSW,242,0.0,3.6,97,0.71,,---,1.53,VWS V14.01,2013-06-12 05:57:00,
2013-06-12 01:58:00,69.1,65.4,28.85,West,264,0.0,0.0,88,0.00,,---,0.00,VWS V14.01,2013-06-12 05:58:00,
2013-06-12 01:59:00,68.5,67.7,28.61,WSW,253,2.7,4.9,97,0.71,,---,1.53,VWS V14.01,2013-06-12 05:59:00,
2013-06-12 02:00:00,68.4,67.5,28.61,SW,225,0.0,2.7,97,0.71,,---,1.53,VWS V14.01,2013-06-12 06:00:00,
2013-06-12 02:01:00,68.4,67.5,28.61,SW,226,0.0,0.0,97,0.71,,---,1.54,VWS V14.01,2013-06-12 06:01:00,
2013-06-12 02:02:00,68.4,67.5,28.61,SW,226,0.0,0.0,97,0.71,,---,1.54,VWS V14.01,2013-06-12 06:02:00,
2013-06-12 02:03:00,68.4,67.5,28.61,West,263,0.0,4.5,97,0.71,,---,1.53,VWS V14.01,2013-06-12 06:03:00,
2013-06-12 02:04:00,68.9,65.2,28.82,West,264,0.0,0.0,88,0.00,,---,0.00,VWS V14.01,2013-06-12 06:04:00,
2013-06-12 02:05:00,68.4,67.5,28.61,West,263,0.0,2.7,97,0.71,,---,1.53,VWS V14.01,2013-06-12 06:05:00,
2013-06-12 02:06:00,68.4,67.5,28.61,SSW,193,2.7,2.7,97,0.71,,---,1.53,VWS V14.01,2013-06-12 06:06:00,
2013-06-12 02:07:00,68.4,67.5,28.61,SSW,193,0.0,2.7,97,0.67,,---,1.53,VWS V14.01,2013-06-12 06:07:00,
2013-06-12 02:08:00,68.4,67.5,28.61,SSW,193,0.0,0.0,97,0.67,,---,1.54,VWS V14.01,2013-06-12 06:08:00,
2013-06-12 02:09:00,68.9,65.2,28.82,West,264,0.0,0.0,88,0.00,,---,0.00,VWS V14.01,2013-06-12 06:09:00,
2013-06-12 02:10:00,68.4,67.5,28.61,SSW,193,0.0,0.0,97,0.67,,---,1.53,VWS V14.01,2013-06-12 06:10:00,
2013-06-12 02:11:00,68.4,67.5,28.61,SSW,193,0.0,0.0,97,0.71,,---,1.58,VWS V14.01,2013-06-12 06:11:00,
2013-06-12 02:12:00,68.4,67.5,28.61,SSW,193,0.0,0.0,97,0.71,,---,1.58,VWS V14.01,2013-06-12 06:12:00,
2013-06-12 02:13:00,68.4,67.5,28.61,WSW,245,0.0,3.6,97,0.71,,---,1.58,VWS V14.01,2013-06-12 06:13:00,
2013-06-12 02:14:00,69.1,65.4,28.82,West,264,0.0,0.0,88,0.00,,---,0.00,VWS V14.01,2013-06-12 06:14:00,
2013-06-12 02:15:00,68.2,67.3,28.61,WSW,245,0.0,0.0,97,0.71,,---,1.58,VWS V14.01,2013-06-12 06:15:00,
2013-06-12 02:16:00,68.2,67.3,28.61,WSW,245,0.0,0.0,97,0.71,,---,1.58,VWS V14.01,2013-06-12 06:16:00,
2013-06-12 02:17:00,68.2,67.3,28.61,WSW,245,0.0,0.0,97,0.71,,---,1.58,VWS V14.01,2013-06-12 06:17:00,
2013-06-12 02:18:00,68.2,67.3,28.61,SE,143,3.6,4.0,97,0.71,,---,1.57,VWS V14.01,2013-06-12 06:18:00,
2013-06-12 02:19:00,69.3,65.6,28.82,West,264,0.0,0.0,88,0.00,,---,0.00,VWS V14.01,2013-06-12 06:19:00,
2013-06-12 02:20:00,68.0,67.1,28.61,SE,141,0.0,3.1,97,0.67,,---,1.58,VWS V14.01,2013-06-12 06:20:00,
2013-06-12 02:21:00,68.0,67.1,28.61,SE,141,0.0,0.0,97,0.67,,---,1.58,VWS V14.01,2013-06-12 06:21:00,
2013-06-12 02:22:00,68.0,67.1,28.61,SE,141,0.0,0.0,97,0.67,,---,1.58,VWS V14.01,2013-06-12 06:22:00,
2013-06-12 02:23:00,68.0,67.1,28.61,SE,141,0.0,0.0,97,0.67,,---,1.58,VWS V14.01,2013-06-12 06:23:00,
2013-06-12 02:24:00,68.0,67.1,28.61,SE,141,0.0,0.0,97,0.67,,---,1.58,VWS V14.01,2013-06-12 06:24:00,
2013-06-12 02:25:00,69.3,65.9,28.82,West,264,0.0,0.0,89,0.00,,---,0.00,VWS V14.01,2013-06-12 06:25:00,
2013-06-12 02:26:00,68.2,67.3,28.61,SE,141,0.0,0.0,97,0.63,,---,1.58,VWS V14.01,2013-06-12 06:26:00,
2013-06-12 02:27:00,68.0,67.1,28.58,SE,141,0.0,0.0,97,0.59,,---,1.58,VWS V14.01,2013-06-12 06:27:00,
2013-06-12 02:28:00,68.0,67.1,28.58,SE,141,0.0,0.0,97,0.59,,---,1.58,VWS V14.01,2013-06-12 06:28:00,
2013-06-12 02:29:00,68.0,67.1,28.58,SE,141,0.0,0.0,97,0.59,,---,1.58,VWS V14.01,2013-06-12 06:29:00,
2013-06-12 02:30:00,69.3,65.9,28.82,South,174,3.1,3.1,89,0.00,,---,0.00,VWS V14.01,2013-06-12 06:30:00,
2013-06-12 02:31:00,68.2,67.3,28.58,SE,141,0.0,0.0,97,0.55,,---,1.58,VWS V14.01,2013-06-12 06:31:00,
2013-06-12 02:32:00,68.2,67.3,28.58,SE,141,0.0,0.0,97,0.51,,---,1.58,VWS V14.01,2013-06-12 06:32:00,
2013-06-12 02:33:00,68.2,67.3,28.58,SE,142,0.0,0.0,97,0.43,,---,1.58,VWS V14.01,2013-06-12 06:33:00,
2013-06-12 02:34:00,68.2,67.3,28.58,SE,142,0.0,0.0,97,0.43,,---,1.58,VWS V14.01,2013-06-12 06:34:00,
2013-06-12 02:35:00,68.2,67.3,28.58,West,269,0.0,4.0,97,0.43,,---,1.58,VWS V14.01,2013-06-12 06:35:00,
2013-06-12 02:36:00,69.4,66.1,28.82,WSW,237,0.0,0.0,89,0.00,,---,0.00,VWS V14.01,2013-06-12 06:36:00,
2013-06-12 02:37:00,68.4,67.5,28.58,NNW,327,6.7,6.7,97,0.39,,---,1.58,VWS V14.01,2013-06-12 06:37:00,
2013-06-12 02:38:00,68.4,67.5,28.58,NNW,332,4.5,7.4,97,0.35,,---,1.58,VWS V14.01,2013-06-12 06:38:00,
2013-06-12 02:39:00,68.4,67.5,28.58,NW,320,4.0,5.8,97,0.31,,---,1.58,VWS V14.01,2013-06-12 06:39:00,
2013-06-12 02:40:00,68.4,67.5,28.58,NW,323,0.0,4.0,97,0.28,,---,1.58,VWS V14.01,2013-06-12 06:40:00,
2013-06-12 02:41:00,69.4,66.1,28.82,WSW,237,0.0,0.0,89,0.00,,---,0.00,VWS V14.01,2013-06-12 06:41:00,
2013-06-12 02:42:00,68.5,67.7,28.64,WNW,282,6.9,10.1,97,0.31,,---,1.61,VWS V14.01,2013-06-12 06:42:00,
2013-06-12 02:43:00,68.5,67.7,28.64,WNW,291,7.8,11.0,97,0.31,,---,1.61,VWS V14.01,2013-06-12 06:43:00,
2013-06-12 02:44:00,68.5,67.7,28.64,WNW,295,7.8,8.7,97,0.28,,---,1.61,VWS V14.01,2013-06-12 06:44:00,
2013-06-12 02:45:00,68.5,67.7,28.64,NW,315,4.9,8.7,97,0.31,,---,1.65,VWS V14.01,2013-06-12 06:45:00,
2013-06-12 02:46:00,69.4,65.7,28.82,WSW,237,0.0,0.0,88,0.00,,---,0.00,VWS V14.01,2013-06-12 06:46:00,
2013-06-12 02:47:00,68.5,67.7,28.64,WNW,295,5.4,7.8,97,0.31,,---,1.65,VWS V14.01,2013-06-12 06:47:00,
2013-06-12 02:48:00,68.5,67.7,28.64,NW,324,4.9,8.7,97,0.31,,---,1.65,VWS V14.01,2013-06-12 06:48:00,
2013-06-12 02:49:00,68.5,67.7,28.64,WNW,298,3.1,5.4,97,0.31,,---,1.65,VWS V14.01,2013-06-12 06:49:00,
2013-06-12 02:50:00,68.7,67.8,28.64,NW,321,4.5,6.9,97,0.28,,---,1.65,VWS V14.01,2013-06-12 06:50:00,
2013-06-12 02:51:00,68.7,67.8,28.64,NNW,331,4.0,5.4,97,0.28,,---,1.65,VWS V14.01,2013-06-12 06:51:00,
2013-06-12 02:52:00,69.4,65.7,28.82,WSW,237,0.0,0.0,88,0.00,,---,0.00,VWS V14.01,2013-06-12 06:52:00,
2013-06-12 02:53:00,68.7,67.8,28.64,NNE,25,6.3,6.3,97,0.24,,---,1.65,VWS V14.01,2013-06-12 06:53:00,
2013-06-12 02:54:00,68.7,67.8,28.64,NNW,343,4.9,6.9,97,0.24,,---,1.65,VWS V14.01,2013-06-12 06:54:00,
2013-06-12 02:55:00,68.7,67.8,28.64,NW,321,0.0,5.4,97,0.20,,---,1.65,VWS V14.01,2013-06-12 06:55:00,
2013-06-12 02:56:00,68.7,67.8,28.64,NNW,331,0.0,5.8,97,0.16,,---,1.65,VWS V14.01,2013-06-12 06:56:00,
2013-06-12 02:57:00,68.7,67.8,28.58,North,356,3.6,4.0,97,0.16,,---,1.65,VWS V14.01,2013-06-12 06:57:00,
2013-06-12 02:58:00,69.3,65.6,28.82,WSW,237,0.0,0.0,88,0.00,,---,0.00,VWS V14.01,2013-06-12 06:58:00,
2013-06-12 02:59:00,68.9,68.0,28.58,NE,35,2.7,6.7,97,0.12,,---,1.65,VWS V14.01,2013-06-12 06:59:00,
2013-06-12 03:00:00,68.9,68.0,28.58,NNW,331,4.5,8.3,97,0.12,,---,1.65,VWS V14.01,2013-06-12 07:00:00,
2013-06-12 03:01:00,68.9,68.0,28.58,NNW,342,0.0,6.3,97,0.12,,---,1.65,VWS V14.01,2013-06-12 07:01:00,
2013-06-12 03:02:00,68.9,68.0,28.58,NNW,342,0.0,0.0,97,0.12,,---,1.65,VWS V14.01,2013-06-12 07:02:00,
2013-06-12 03:03:00,69.3,65.6,28.82,WSW,237,0.0,0.0,88,0.00,,---,0.00,VWS V14.01,2013-06-12 07:03:00,
2013-06-12 03:04:00,68.9,68.0,28.58,NNW,333,0.0,0.0,97,0.12,,---,1.65,VWS V14.01,2013-06-12 07:04:00,
2013-06-12 03:05:00,68.9,68.0,28.58,NW,319,4.0,4.5,97,0.12,,---,1.65,VWS V14.01,2013-06-12 07:05:00,
2013-06-12 03:06:00,68.9,68.0,28.58,NNW,327,3.1,4.9,97,0.12,,---,1.65,VWS V14.01,2013-06-12 07:06:00,
2013-06-12 03:07:00,68.9,68.0,28.58,NNW,327,0.0,3.1,97,0.12,,---,1.65,VWS V14.01,2013-06-12 07:07:00,
2013-06-12 03:08:00,69.1,65.4,28.82,WSW,237,0.0,0.0,88,0.00,,---,0.00,VWS V14.01,2013-06-12 07:08:00,
2013-06-12 03:09:00,68.7,67.8,28.58,NNW,327,2.7,3.1,97,0.12,,---,1.65,VWS V14.01,2013-06-12 07:09:00,
2013-06-12 03:10:00,68.7,67.8,28.58,NNW,327,0.0,3.6,97,0.12,,---,1.65,VWS V14.01,2013-06-12 07:10:00,
2013-06-12 03:11:00,68.7,67.8,28.58,NNW,327,3.1,3.6,97,0.12,,---,1.65,VWS V14.01,2013-06-12 07:11:00,
2013-06-12 03:12:00,68.7,67.8,28.58,NNW,331,3.6,5.8,97,0.08,,---,1.65,VWS V14.01,2013-06-12 07:12:00,
2013-06-12 03:13:00,68.7,67.8,28.58,NW,312,0.0,4.0,97,0.08,,---,1.65,VWS V14.01,2013-06-12 07:13:00,
2013-06-12 03:14:00,69.1,65.4,28.82,SW,236,0.0,0.0,88,0.00,,---,0.00,VWS V14.01,2013-06-12 07:14:00,
2013-06-12 03:15:00,68.7,67.8,28.58,NW,312,0.0,0.0,97,0.08,,---,1.65,VWS V14.01,2013-06-12 07:15:00,
2013-06-12 03:16:00,68.7,67.8,28.58,NW,312,0.0,0.0,97,0.08,,---,1.65,VWS V14.01,2013-06-12 07:16:00,
2013-06-12 03:17:00,68.7,67.8,28.58,NW,312,0.0,0.0,97,0.08,,---,1.65,VWS V14.01,2013-06-12 07:17:00,
2013-06-12 03:18:00,68.9,68.0,28.58,NW,312,0.0,0.0,97,0.08,,---,1.65,VWS V14.01,2013-06-12 07:18:00,
2013-06-12 03:19:00,68.9,68.0,28.58,NW,312,0.0,0.0,97,0.08,,---,1.65,VWS V14.01,2013-06-12 07:19:00,
2013-06-12 03:20:00,69.1,65.4,28.82,WSW,237,0.0,0.0,88,0.00,,---,0.00,VWS V14.01,2013-06-12 07:20:00,
2013-06-12 03:21:00,68.9,68.0,28.58,NW,312,0.0,0.0,97,0.08,,---,1.65,VWS V14.01,2013-06-12 07:21:00,
2013-06-12 03:22:00,68.9,68.0,28.58,NW,319,0.0,0.0,97,0.08,,---,1.65,VWS V14.01,2013-06-12 07:22:00,
2013-06-12 03:23:00,68.9,68.0,28.58,NW,319,0.0,0.0,97,0.08,,---,1.65,VWS V14.01,2013-06-12 07:23:00,
2013-06-12 03:24:00,68.9,68.0,28.58,NW,319,0.0,0.0,97,0.08,,---,1.65,VWS V14.01,2013-06-12 07:24:00,
2013-06-12 03:25:00,68.9,68.0,28.58,NW,319,0.0,0.0,97,0.08,,---,1.65,VWS V14.01,2013-06-12 07:25:00,
2013-06-12 03:26:00,68.9,68.0,28.58,NW,319,0.0,0.0,97,0.08,,---,1.65,VWS V14.01,2013-06-12 07:26:00,
2013-06-12 03:27:00,68.9,68.0,28.56,ENE,60,0.0,0.0,97,0.08,,---,1.65,VWS V14.01,2013-06-12 07:27:00,
2013-06-12 03:28:00,68.9,65.2,28.82,WSW,237,0.0,0.0,88,0.00,,---,0.00,VWS V14.01,2013-06-12 07:28:00,
2013-06-12 03:29:00,68.9,68.0,28.56,NE,56,3.1,3.1,97,0.08,,---,1.65,VWS V14.01,2013-06-12 07:29:00,
2013-06-12 03:30:00,68.9,68.0,28.56,WSW,242,0.0,3.1,97,0.08,,---,1.65,VWS V14.01,2013-06-12 07:30:00,
2013-06-12 03:31:00,68.9,68.0,28.56,WSW,242,0.0,0.0,97,0.08,,---,1.65,VWS V14.01,2013-06-12 07:31:00,
2013-06-12 03:32:00,68.9,68.0,28.56,WSW,242,2.7,2.7,97,0.08,,---,1.65,VWS V14.01,2013-06-12 07:32:00,
2013-06-12 03:33:00,69.1,68.2,28.56,WSW,242,0.0,2.7,97,0.08,,---,1.65,VWS V14.01,2013-06-12 07:33:00,
2013-06-12 03:34:00,69.1,65.4,28.82,WSW,237,0.0,0.0,88,0.00,,---,0.00,VWS V14.01,2013-06-12 07:34:00,
2013-06-12 03:35:00,69.1,68.2,28.56,WSW,242,0.0,0.0,97,0.08,,---,1.65,VWS V14.01,2013-06-12 07:35:00,
2013-06-12 03:36:00,69.1,68.2,28.56,WSW,242,0.0,0.0,97,0.08,,---,1.65,VWS V14.01,2013-06-12 07:36:00,
2013-06-12 03:37:00,69.1,68.2,28.56,WSW,242,0.0,0.0,97,0.08,,---,1.65,VWS V14.01,2013-06-12 07:37:00,
2013-06-12 03:38:00,69.1,68.2,28.56,WSW,242,0.0,2.7,97,0.08,,---,1.65,VWS V14.01,2013-06-12 07:38:00,
2013-06-12 03:39:00,69.1,65.4,28.82,WSW,237,0.0,0.0,88,0.00,,---,0.00,VWS V14.01,2013-06-12 07:39:00,
2013-06-12 03:40:00,69.1,68.2,28.56,SSE,151,0.0,3.1,97,0.08,,---,1.65,VWS V14.01,2013-06-12 07:40:00,
2013-06-12 03:41:00,68.9,68.0,28.56,SSW,212,0.0,0.0,97,0.08,,---,1.65,VWS V14.01,2013-06-12 07:41:00,
2013-06-12 03:42:00,69.1,68.2,28.61,SW,223,2.7,3.1,97,0.04,,---,1.65,VWS V14.01,2013-06-12 07:42:00,
2013-06-12 03:43:00,69.1,68.2,28.61,WNW,287,0.0,3.6,97,0.04,,---,1.65,VWS V14.01,2013-06-12 07:43:00,
2013-06-12 03:44:00,69.1,68.2,28.61,WNW,287,0.0,0.0,97,0.04,,---,1.65,VWS V14.01,2013-06-12 07:44:00,
2013-06-12 03:45:00,69.1,65.4,28.82,WSW,237,0.0,0.0,88,0.00,,---,0.00,VWS V14.01,2013-06-12 07:45:00,
2013-06-12 03:46:00,69.1,68.2,28.61,ESE,109,0.0,4.9,97,0.00,,---,1.65,VWS V14.01,2013-06-12 07:46:00,
2013-06-12 03:47:00,69.1,68.2,28.61,WSW,255,3.1,3.1,97,0.00,,---,1.65,VWS V14.01,2013-06-12 07:47:00,
2013-06-12 03:48:00,69.1,68.2,28.61,West,264,0.0,4.5,97,0.00,,---,1.65,VWS V14.01,2013-06-12 07:48:00,
2013-06-12 03:49:00,69.1,68.2,28.61,West,264,0.0,0.0,97,0.00,,---,1.65,VWS V14.01,2013-06-12 07:49:00,
2013-06-12 03:50:00,69.1,65.4,28.82,WSW,237,0.0,0.0,88,0.00,,---,0.00,VWS V14.01,2013-06-12 07:50:00,
2013-06-12 03:51:00,69.1,68.2,28.61,ESE,123,5.4,5.8,97,0.00,,---,1.65,VWS V14.01,2013-06-12 07:51:00,
2013-06-12 03:52:00,68.9,68.0,28.61,SSE,157,0.0,5.4,97,0.00,,---,1.65,VWS V14.01,2013-06-12 07:52:00,
2013-06-12 03:53:00,69.1,68.2,28.61,West,279,4.9,5.8,97,0.00,,---,1.65,VWS V14.01,2013-06-12 07:53:00,
2013-06-12 03:54:00,69.1,68.2,28.61,SW,235,2.7,6.7,97,0.00,,---,1.65,VWS V14.01,2013-06-12 07:54:00,
2013-06-12 03:55:00,69.3,65.6,28.82,WSW,237,0.0,0.0,88,0.00,,---,0.00,VWS V14.01,2013-06-12 07:55:00,
2013-06-12 03:56:00,69.1,68.2,28.61,East,93,5.8,5.8,97,0.00,,---,1.65,VWS V14.01,2013-06-12 07:56:00,
2013-06-12 03:57:00,69.1,68.2,28.58,SSE,155,0.0,5.8,97,0.00,,---,1.65,VWS V14.01,2013-06-12 07:57:00,
2013-06-12 03:58:00,69.1,68.2,28.59,WSW,237,0.0,4.0,97,0.00,,---,1.65,VWS V14.01,2013-06-12 07:58:00,
2013-06-12 03:59:00,69.1,68.2,28.59,West,260,4.0,5.8,97,0.00,,---,1.65,VWS V14.01,2013-06-12 07:59:00,
2013-06-12 04:00:00,69.4,65.7,28.82,SW,236,0.0,0.0,88,0.00,,---,0.00,VWS V14.01,2013-06-12 08:00:00,
2013-06-12 04:01:00,69.1,68.2,28.58,SW,229,0.0,2.7,97,0.00,,---,1.65,VWS V14.01,2013-06-12 08:01:00,
2013-06-12 04:02:00,68.9,68.0,28.58,SW,225,0.0,0.0,97,0.00,,---,1.65,VWS V14.01,2013-06-12 08:02:00,
2013-06-12 04:03:00,68.9,68.0,28.58,West,278,3.6,5.4,97,0.00,,---,1.65,VWS V14.01,2013-06-12 08:03:00,
2013-06-12 04:04:00,69.1,68.2,28.58,West,260,4.0,6.7,97,0.00,,---,1.65,VWS V14.01,2013-06-12 08:04:00,
2013-06-12 04:05:00,69.4,65.7,28.82,WSW,237,0.0,0.0,88,0.00,,---,0.00,VWS V14.01,2013-06-12 08:05:00,
2013-06-12 04:06:00,68.9,68.0,28.58,WNW,291,0.0,3.6,97,0.00,,---,1.65,VWS V14.01,2013-06-12 08:06:00,
2013-06-12 04:07:00,68.9,68.0,28.58,West,281,0.0,2.7,97,0.00,,---,1.65,VWS V14.01,2013-06-12 08:07:00,
2013-06-12 04:08:00,68.9,68.0,28.58,West,281,0.0,0.0,97,0.00,,---,1.65,VWS V14.01,2013-06-12 08:08:00,
2013-06-12 04:09:00,69.1,68.2,28.58,West,273,0.0,5.4,97,0.00,,---,1.65,VWS V14.01,2013-06-12 08:09:00,
2013-06-12 04:10:00,69.6,66.2,28.82,WSW,237,0.0,0.0,89,0.00,,---,0.00,VWS V14.01,2013-06-12 08:10:00,
2013-06-12 04:11:00,69.1,68.2,28.59,NNW,339,0.0,0.0,97,0.00,,---,1.65,VWS V14.01,2013-06-12 08:11:00,
2013-06-12 04:12:00,69.1,68.2,28.59,WNW,287,0.0,4.0,97,0.00,,---,1.65,VWS V14.01,2013-06-12 08:12:00,
2013-06-12 04:13:00,69.1,68.2,28.58,WSW,253,0.0,4.5,97,0.00,,---,1.65,VWS V14.01,2013-06-12 08:13:00,
2013-06-12 04:14:00,68.9,68.0,28.59,SW,219,2.7,2.7,97,0.00,,---,1.65,VWS V14.01,2013-06-12 08:14:00,
2013-06-12 04:15:00,69.6,65.9,28.82,WSW,237,0.0,0.0,88,0.00,,---,0.00,VWS V14.01,2013-06-12 08:15:00,
2013-06-12 04:16:00,68.9,68.0,28.58,WNW,297,0.0,3.1,97,0.00,,---,1.65,VWS V14.01,2013-06-12 08:16:00,
2013-06-12 04:17:00,68.9,68.0,28.58,WNW,297,0.0,0.0,97,0.00,,---,1.65,VWS V14.01,2013-06-12 08:17:00,
2013-06-12 04:18:00,68.9,68.0,28.58,WNW,297,0.0,2.7,97,0.00,,---,1.65,VWS V14.01,2013-06-12 08:18:00,
2013-06-12 04:19:00,68.9,68.0,28.58,SSW,207,0.0,4.9,97,0.00,,---,1.65,VWS V14.01,2013-06-12 08:19:00,
2013-06-12 04:20:00,69.6,65.9,28.82,WSW,237,0.0,0.0,88,0.00,,---,0.00,VWS V14.01,2013-06-12 08:20:00,
2013-06-12 04:21:00,68.9,68.0,28.58,SSW,207,0.0,3.1,97,0.00,,---,1.65,VWS V14.01,2013-06-12 08:21:00,
2013-06-12 04:22:00,68.9,68.0,28.59,SSW,207,0.0,0.0,97,0.00,,---,1.65,VWS V14.01,2013-06-12 08:22:00,
2013-06-12 04:23:00,68.9,68.0,28.58,SSW,207,0.0,0.0,97,0.00,,---,1.65,VWS V14.01,2013-06-12 08:23:00,
2013-06-12 04:24:00,68.9,68.0,28.58,SSW,207,0.0,0.0,97,0.00,,---,1.65,VWS V14.01,2013-06-12 08:24:00,
2013-06-12 04:25:00,69.6,65.9,28.82,WSW,237,0.0,0.0,88,0.00,,---,0.00,VWS V14.01,2013-06-12 08:25:00,
2013-06-12 04:26:00,68.9,68.0,28.59,WSW,250,0.0,0.0,97,0.00,,---,1.65,VWS V14.01,2013-06-12 08:26:00,
2013-06-12 04:27:00,68.9,68.0,28.58,WSW,250,0.0,0.0,97,0.00,,---,1.65,VWS V14.01,2013-06-12 08:27:00,
2013-06-12 04:28:00,68.9,68.0,28.59,WSW,250,0.0,0.0,97,0.00,,---,1.65,VWS V14.01,2013-06-12 08:28:00,
2013-06-12 04:29:00,68.9,68.0,28.58,WSW,250,0.0,0.0,97,0.00,,---,1.65,VWS V14.01,2013-06-12 08:29:00,
2013-06-12 04:30:00,69.6,65.9,28.82,WSW,237,0.0,0.0,88,0.00,,---,0.00,VWS V14.01,2013-06-12 08:30:00,
2013-06-12 04:31:00,68.9,68.0,28.58,WSW,250,0.0,0.0,97,0.00,,---,1.65,VWS V14.01,2013-06-12 08:31:00,
2013-06-12 04:32:00,68.9,68.0,28.59,WSW,250,0.0,0.0,97,0.00,,---,1.65,VWS V14.01,2013-06-12 08:32:00,
2013-06-12 04:33:00,68.9,68.0,28.58,WSW,249,0.0,4.0,97,0.00,,---,1.65,VWS V14.01,2013-06-12 08:33:00,
2013-06-12 04:34:00,68.9,68.0,28.58,WSW,249,0.0,0.0,97,0.00,,---,1.65,VWS V14.01,2013-06-12 08:34:00,
2013-06-12 04:35:00,69.4,65.7,28.82,WSW,237,0.0,0.0,88,0.00,,---,0.00,VWS V14.01,2013-06-12 08:35:00,
2013-06-12 04:36:00,68.9,68.0,28.58,SW,228,0.0,4.0,97,0.00,,---,1.65,VWS V14.01,2013-06-12 08:36:00,
2013-06-12 04:37:00,68.9,68.0,28.58,SW,235,0.0,3.1,97,0.00,,---,1.65,VWS V14.01,2013-06-12 08:37:00,
2013-06-12 04:38:00,68.9,68.0,28.58,SW,235,0.0,0.0,97,0.00,,---,1.65,VWS V14.01,2013-06-12 08:38:00,
2013-06-12 04:39:00,68.9,68.0,28.58,West,269,2.7,4.5,97,0.00,,---,1.65,VWS V14.01,2013-06-12 08:39:00,
2013-06-12 04:40:00,69.4,65.7,28.82,WSW,237,0.0,0.0,88,0.00,,---,0.00,VWS V14.01,2013-06-12 08:40:00,
2013-06-12 04:41:00,68.9,68.0,28.58,West,269,0.0,0.0,97,0.00,,---,1.65,VWS V14.01,2013-06-12 08:41:00,
2013-06-12 04:42:00,68.9,68.0,28.59,West,269,3.1,3.1,97,0.00,,---,1.65,VWS V14.01,2013-06-12 08:42:00,
2013-06-12 04:43:00,68.9,68.0,28.58,West,269,0.0,3.6,97,0.00,,---,1.65,VWS V14.01,2013-06-12 08:43:00,
2013-06-12 04:44:00,68.9,68.0,28.58,West,269,0.0,0.0,97,0.00,,---,1.65,VWS V14.01,2013-06-12 08:44:00,
2013-06-12 04:45:00,69.4,65.7,28.82,WSW,237,0.0,0.0,88,0.00,,---,0.00,VWS V14.01,2013-06-12 08:45:00,
2013-06-12 04:46:00,68.7,67.8,28.59,West,269,0.0,3.1,97,0.00,,---,1.65,VWS V14.01,2013-06-12 08:46:00,
2013-06-12 04:47:00,68.7,67.8,28.58,West,269,0.0,0.0,97,0.00,,---,1.65,VWS V14.01,2013-06-12 08:47:00,
2013-06-12 04:48:00,68.7,67.8,28.59,WSW,246,3.1,4.5,97,0.00,,---,1.65,VWS V14.01,2013-06-12 08:48:00,
2013-06-12 04:49:00,68.7,67.8,28.58,WSW,242,0.0,3.1,97,0.00,,---,1.65,VWS V14.01,2013-06-12 08:49:00,
2013-06-12 04:50:00,69.4,65.7,28.82,WSW,237,0.0,0.0,88,0.00,,---,0.00,VWS V14.01,2013-06-12 08:50:00,
2013-06-12 04:51:00,68.7,67.8,28.59,West,278,0.0,2.7,97,0.00,,---,1.65,VWS V14.01,2013-06-12 08:51:00,
2013-06-12 04:52:00,68.7,67.8,28.59,West,278,0.0,2.7,97,0.00,,---,1.65,VWS V14.01,2013-06-12 08:52:00,
2013-06-12 04:53:00,68.7,67.8,28.58,WSW,240,4.5,4.5,97,0.00,,---,1.65,VWS V14.01,2013-06-12 08:53:00,
2013-06-12 04:54:00,68.9,68.0,28.58,West,271,0.0,6.3,97,0.00,,---,1.65,VWS V14.01,2013-06-12 08:54:00,
2013-06-12 04:55:00,69.4,65.7,28.82,SW,236,0.0,0.0,88,0.00,,---,0.00,VWS V14.01,2013-06-12 08:55:00,
2013-06-12 04:56:00,68.7,67.8,28.59,WNW,286,2.7,3.1,97,0.00,,---,1.65,VWS V14.01,2013-06-12 08:56:00,
2013-06-12 04:57:00,68.7,67.8,28.58,WSW,251,0.0,3.1,97,0.00,,---,1.65,VWS V14.01,2013-06-12 08:57:00,
2013-06-12 04:58:00,68.7,67.8,28.58,West,275,4.0,5.4,97,0.00,,---,1.65,VWS V14.01,2013-06-12 08:58:00,
2013-06-12 04:59:00,68.7,67.8,28.58,West,266,3.6,4.5,97,0.00,,---,1.65,VWS V14.01,2013-06-12 08:59:00,
2013-06-12 05:00:00,69.3,65.6,28.85,WSW,237,0.0,0.0,88,0.00,,---,0.00,VWS V14.01,2013-06-12 09:00:00,
2013-06-12 05:01:00,68.7,67.8,28.58,West,261,3.6,3.6,97,0.00,,---,1.65,VWS V14.01,2013-06-12 09:01:00,
2013-06-12 05:02:00,68.7,67.8,28.58,WSW,251,4.5,6.9,97,0.00,,---,1.65,VWS V14.01,2013-06-12 09:02:00,
2013-06-12 05:03:00,68.7,67.8,28.59,WNW,290,2.7,4.5,97,0.00,,---,1.65,VWS V14.01,2013-06-12 09:03:00,
2013-06-12 05:04:00,68.7,67.8,28.58,WNW,290,0.0,3.1,97,0.00,,---,1.65,VWS V14.01,2013-06-12 09:04:00,
2013-06-12 05:05:00,69.3,65.6,28.85,WSW,237,0.0,0.0,88,0.00,,---,0.00,VWS V14.01,2013-06-12 09:05:00,
2013-06-12 05:06:00,68.7,67.8,28.59,SSW,206,0.0,4.5,97,0.00,,---,1.65,VWS V14.01,2013-06-12 09:06:00,
2013-06-12 05:07:00,68.7,67.8,28.59,West,265,0.0,3.6,97,0.00,,---,1.65,VWS V14.01,2013-06-12 09:07:00,
2013-06-12 05:08:00,68.7,67.8,28.58,West,267,0.0,0.0,97,0.00,,---,1.65,VWS V14.01,2013-06-12 09:08:00,
2013-06-12 05:09:00,68.7,67.8,28.59,WNW,294,2.7,6.3,97,0.00,,---,1.65,VWS V14.01,2013-06-12 09:09:00,
2013-06-12 05:10:00,69.1,65.4,28.85,SW,236,0.0,0.0,88,0.00,,---,0.00,VWS V14.01,2013-06-12 09:10:00,
2013-06-12 05:11:00,68.7,67.8,28.59,West,269,3.1,4.5,97,0.00,,---,1.65,VWS V14.01,2013-06-12 09:11:00,
2013-06-12 05:12:00,68.5,67.7,28.59,WSW,256,4.0,4.5,97,0.00,,---,1.65,VWS V14.01,2013-06-12 09:12:00,
2013-06-12 05:13:00,68.5,67.7,28.59,West,277,2.7,5.8,97,0.00,,---,1.65,VWS V14.01,2013-06-12 09:13:00,
2013-06-12 05:14:00,68.5,67.7,28.58,West,270,0.0,4.0,97,0.00,,---,1.65,VWS V14.01,2013-06-12 09:14:00,
2013-06-12 05:15:00,69.1,65.4,28.85,WSW,237,0.0,0.0,88,0.00,,---,0.00,VWS V14.01,2013-06-12 09:15:00,
2013-06-12 05:16:00,68.5,67.7,28.58,NW,311,4.5,5.8,97,0.00,,---,1.65,VWS V14.01,2013-06-12 09:16:00,
2013-06-12 05:17:00,68.5,67.7,28.59,WNW,286,0.0,4.9,97,0.00,,---,1.65,VWS V14.01,2013-06-12 09:17:00,
2013-06-12 05:18:00,68.5,67.7,28.58,WNW,297,0.0,4.0,97,0.00,,---,1.65,VWS V14.01,2013-06-12 09:18:00,
2013-06-12 05:19:00,68.5,67.7,28.59,WNW,297,3.1,3.1,97,0.00,,---,1.65,VWS V14.01,2013-06-12 09:19:00,
2013-06-12 05:20:00,68.9,65.2,28.85,SW,236,0.0,0.0,88,0.00,,---,0.00,VWS V14.01,2013-06-12 09:20:00,
2013-06-12 05:21:00,68.4,67.5,28.58,WNW,296,4.5,4.5,97,0.00,,---,1.65,VWS V14.01,2013-06-12 09:21:00,
2013-06-12 05:22:00,68.4,67.5,28.58,WNW,296,0.0,4.5,97,0.00,,---,1.65,VWS V14.01,2013-06-12 09:22:00,
2013-06-12 05:23:00,68.4,67.5,28.58,WNW,294,0.0,3.6,97,0.00,,---,1.65,VWS V14.01,2013-06-12 09:23:00,
2013-06-12 05:24:00,68.4,67.5,28.59,NW,321,4.0,5.4,97,0.00,,---,1.65,VWS V14.01,2013-06-12 09:24:00,
2013-06-12 05:25:00,68.9,65.2,28.85,SW,236,0.0,0.0,88,0.00,,---,0.00,VWS V14.01,2013-06-12 09:25:00,
2013-06-12 05:26:00,68.4,67.5,28.58,WNW,302,2.7,5.8,97,0.00,,---,1.65,VWS V14.01,2013-06-12 09:26:00,
2013-06-12 05:27:00,68.4,67.5,28.58,WNW,302,0.0,3.6,97,0.00,,---,1.65,VWS V14.01,2013-06-12 09:27:00,
2013-06-12 05:28:00,68.4,67.5,28.58,West,278,3.1,4.9,97,0.00,,---,1.65,VWS V14.01,2013-06-12 09:28:00,
2013-06-12 05:29:00,68.4,67.5,28.58,West,281,3.1,4.5,97,0.00,,---,1.65,VWS V14.01,2013-06-12 09:29:00,
2013-06-12 05:30:00,68.9,65.2,28.85,WSW,237,0.0,0.0,88,0.00,,---,0.00,VWS V14.01,2013-06-12 09:30:00,
2013-06-12 05:31:00,68.2,67.3,28.58,NW,316,3.1,3.6,97,0.00,,---,1.65,VWS V14.01,2013-06-12 09:31:00,
2013-06-12 05:32:00,68.2,67.3,28.58,NW,317,0.0,3.1,97,0.00,,---,1.65,VWS V14.01,2013-06-12 09:32:00,
2013-06-12 05:33:00,68.2,67.3,28.59,NNE,28,0.0,3.1,97,0.00,,---,1.65,VWS V14.01,2013-06-12 09:33:00,
2013-06-12 05:34:00,68.2,67.3,28.58,NNE,28,0.0,0.0,97,0.00,,---,1.65,VWS V14.01,2013-06-12 09:34:00,
2013-06-12 05:35:00,68.9,65.2,28.85,SW,236,0.0,0.0,88,0.00,,---,0.00,VWS V14.01,2013-06-12 09:35:00,
2013-06-12 05:36:00,68.0,67.1,28.58,NNE,25,0.0,0.0,97,0.00,,---,1.65,VWS V14.01,2013-06-12 09:36:00,
2013-06-12 05:37:00,68.0,67.1,28.58,NNW,333,0.0,3.6,97,0.00,,---,1.65,VWS V14.01,2013-06-12 09:37:00,
2013-06-12 05:38:00,68.0,67.1,28.58,NNW,336,0.0,2.7,97,0.00,,---,1.65,VWS V14.01,2013-06-12 09:38:00,
2013-06-12 05:39:00,68.0,67.1,28.58,NNW,337,0.0,4.5,97,0.00,,---,1.65,VWS V14.01,2013-06-12 09:39:00,
2013-06-12 05:40:00,68.7,65.0,28.85,SW,236,0.0,0.0,88,0.00,,---,0.00,VWS V14.01,2013-06-12 09:40:00,
2013-06-12 05:41:00,68.0,67.1,28.58,NE,39,3.6,4.0,97,0.00,,---,1.65,VWS V14.01,2013-06-12 09:41:00,
2013-06-12 05:42:00,68.2,67.3,28.61,NNW,338,3.6,4.0,97,0.00,,---,1.65,VWS V14.01,2013-06-12 09:42:00,
2013-06-12 05:43:00,68.2,67.3,28.61,North,351,0.0,3.6,97,0.00,,---,1.65,VWS V14.01,2013-06-12 09:43:00,
2013-06-12 05:44:00,68.2,67.3,28.61,NNE,14,3.6,4.5,97,0.00,,---,1.65,VWS V14.01,2013-06-12 09:44:00,
2013-06-12 05:45:00,68.7,65.0,28.85,WSW,237,0.0,0.0,88,0.00,,---,0.00,VWS V14.01,2013-06-12 09:45:00,
2013-06-12 05:46:00,68.2,67.3,28.61,North,4,0.0,3.1,97,0.00,,---,1.65,VWS V14.01,2013-06-12 09:46:00,
2013-06-12 05:47:00,68.4,67.5,28.61,North,8,3.1,4.5,97,0.00,,---,1.65,VWS V14.01,2013-06-12 09:47:00,
2013-06-12 05:48:00,68.4,67.5,28.61,NNE,29,0.0,3.6,97,0.00,,---,1.65,VWS V14.01,2013-06-12 09:48:00,
2013-06-12 05:49:00,68.4,67.5,28.61,NNE,19,0.0,4.0,97,0.00,,---,1.65,VWS V14.01,2013-06-12 09:49:00,
2013-06-12 05:50:00,68.7,65.3,28.85,WSW,237,0.0,0.0,89,0.00,,---,0.00,VWS V14.01,2013-06-12 09:50:00,
2013-06-12 05:51:00,68.5,67.7,28.61,NW,315,3.6,5.8,97,0.00,,---,1.65,VWS V14.01,2013-06-12 09:51:00,
2013-06-12 05:52:00,68.5,67.7,28.61,NNE,23,3.6,4.0,97,0.00,,---,1.65,VWS V14.01,2013-06-12 09:52:00,
2013-06-12 05:53:00,68.5,67.7,28.61,NNE,12,4.0,4.5,97,0.00,,---,1.65,VWS V14.01,2013-06-12 09:53:00,
2013-06-12 05:54:00,68.5,67.7,28.61,NW,321,3.1,4.5,97,0.00,,---,1.65,VWS V14.01,2013-06-12 09:54:00,
2013-06-12 05:55:00,68.7,65.3,28.85,WSW,237,0.0,0.0,89,0.00,,---,0.00,VWS V14.01,2013-06-12 09:55:00,
2013-06-12 05:56:00,68.5,67.7,28.61,NW,321,0.0,3.6,97,0.00,,---,1.65,VWS V14.01,2013-06-12 09:56:00,
2013-06-12 05:57:00,68.5,67.7,28.61,NNE,22,0.0,7.8,97,0.00,,---,1.65,VWS V14.01,2013-06-12 09:57:00,
2013-06-12 05:58:00,68.5,67.7,28.61,NNE,22,0.0,0.0,97,0.00,,---,1.65,VWS V14.01,2013-06-12 09:58:00,
2013-06-12 05:59:00,68.5,67.7,28.61,WNW,300,4.0,6.3,97,0.00,,---,1.65,VWS V14.01,2013-06-12 09:59:00,
2013-06-12 06:00:00,68.5,65.2,28.85,WSW,237,0.0,0.0,89,0.00,,---,0.00,VWS V14.01,2013-06-12 10:00:00,
2013-06-12 06:01:00,68.5,67.7,28.61,NNW,340,0.0,0.0,97,0.00,,---,1.65,VWS V14.01,2013-06-12 10:01:00,
2013-06-12 06:02:00,68.5,67.7,28.61,NNW,340,0.0,0.0,97,0.00,,---,1.65,VWS V14.01,2013-06-12 10:02:00,
2013-06-12 06:03:00,68.5,67.7,28.61,North,351,4.9,4.9,97,0.00,,---,1.65,VWS V14.01,2013-06-12 10:03:00,
2013-06-12 06:04:00,68.5,67.7,28.61,North,351,0.0,4.9,97,0.00,,---,1.65,VWS V14.01,2013-06-12 10:04:00,
2013-06-12 06:05:00,68.5,65.2,28.85,WSW,237,0.0,0.0,89,0.00,,---,0.00,VWS V14.01,2013-06-12 10:05:00,
2013-06-12 06:06:00,68.5,67.7,28.61,North,351,0.0,2.7,97,0.00,,---,1.65,VWS V14.01,2013-06-12 10:06:00,
2013-06-12 06:07:00,68.4,67.5,28.61,NW,309,0.0,4.5,97,0.00,,---,1.65,VWS V14.01,2013-06-12 10:07:00,
2013-06-12 06:08:00,68.4,67.5,28.61,NNW,339,3.6,3.6,97,0.00,,---,1.65,VWS V14.01,2013-06-12 10:08:00,
2013-06-12 06:09:00,68.4,67.5,28.61,NNW,329,0.0,5.8,97,0.00,,---,1.65,VWS V14.01,2013-06-12 10:09:00,
2013-06-12 06:10:00,68.4,65.0,28.85,WSW,237,0.0,0.0,89,0.00,,---,0.00,VWS V14.01,2013-06-12 10:10:00,
2013-06-12 06:11:00,68.4,67.5,28.61,NNW,329,0.0,2.7,97,0.00,,---,1.65,VWS V14.01,2013-06-12 10:11:00,
2013-06-12 06:12:00,68.4,67.5,28.61,WNW,293,3.6,4.5,97,0.00,,---,1.65,VWS V14.01,2013-06-12 10:12:00,
2013-06-12 06:13:00,68.4,67.5,28.61,NW,323,0.0,3.6,97,0.00,,---,1.65,VWS V14.01,2013-06-12 10:13:00,
2013-06-12 06:14:00,68.4,67.5,28.61,NW,320,3.1,3.6,97,0.00,,---,1.65,VWS V14.01,2013-06-12 10:14:00,
2013-06-12 06:15:00,68.4,65.0,28.85,WSW,237,0.0,0.0,89,0.00,,---,0.00,VWS V14.01,2013-06-12 10:15:00,
2013-06-12 06:16:00,68.4,67.5,28.61,NNW,335,0.0,4.0,97,0.00,,---,1.65,VWS V14.01,2013-06-12 10:16:00,
2013-06-12 06:17:00,68.4,67.5,28.61,NNW,335,0.0,0.0,97,0.00,,---,1.65,VWS V14.01,2013-06-12 10:17:00,
2013-06-12 06:18:00,68.4,67.5,28.61,NNW,335,0.0,0.0,97,0.00,,---,1.65,VWS V14.01,2013-06-12 10:18:00,
2013-06-12 06:19:00,68.4,67.5,28.61,NNW,335,0.0,2.7,97,0.00,,---,1.65,VWS V14.01,2013-06-12 10:19:00,
2013-06-12 06:20:00,68.2,64.8,28.85,WSW,237,0.0,0.0,89,0.00,,---,0.00,VWS V14.01,2013-06-12 10:20:00,
2013-06-12 06:21:00,68.4,67.5,28.61,NNW,335,0.0,0.0,97,0.00,,---,1.65,VWS V14.01,2013-06-12 10:21:00,
2013-06-12 06:22:00,68.4,67.5,28.61,NNW,335,0.0,0.0,97,0.00,,---,1.65,VWS V14.01,2013-06-12 10:22:00,
2013-06-12 06:23:00,68.4,67.5,28.61,NNW,335,3.6,3.6,97,0.00,,---,1.65,VWS V14.01,2013-06-12 10:23:00,
2013-06-12 06:24:00,68.2,67.3,28.61,NNW,335,0.0,3.6,97,0.00,,---,1.65,VWS V14.01,2013-06-12 10:24:00,
2013-06-12 06:25:00,68.2,64.8,28.85,SW,236,0.0,0.0,89,0.00,,---,0.00,VWS V14.01,2013-06-12 10:25:00,
2013-06-12 06:26:00,68.2,67.3,28.61,NW,325,2.7,4.0,97,0.00,,---,1.65,VWS V14.01,2013-06-12 10:26:00,
2013-06-12 06:27:00,68.2,67.3,28.61,North,351,4.0,5.4,97,0.00,,---,1.65,VWS V14.01,2013-06-12 10:27:00,
2013-06-12 06:28:00,68.2,67.3,28.61,North,351,0.0,4.0,97,0.00,,---,1.65,VWS V14.01,2013-06-12 10:28:00,
2013-06-12 06:29:00,68.0,67.1,28.61,North,351,0.0,0.0,97,0.00,,---,1.65,VWS V14.01,2013-06-12 10:29:00,
2013-06-12 06:30:00,68.2,64.8,28.85,WSW,237,0.0,0.0,89,0.00,,---,0.00,VWS V14.01,2013-06-12 10:30:00,
2013-06-12 06:31:00,68.0,67.1,28.61,North,351,0.0,0.0,97,0.00,,---,1.65,VWS V14.01,2013-06-12 10:31:00,
2013-06-12 06:32:00,68.0,67.1,28.61,NNW,327,4.5,4.9,97,0.00,,---,1.65,VWS V14.01,2013-06-12 10:32:00,
2013-06-12 06:33:00,68.0,67.1,28.61,NNW,328,0.0,4.5,97,0.00,,---,1.65,VWS V14.01,2013-06-12 10:33:00,
2013-06-12 06:34:00,68.0,67.1,28.61,NNW,328,0.0,0.0,97,0.00,,---,1.65,VWS V14.01,2013-06-12 10:34:00,
2013-06-12 06:35:00,68.2,64.8,28.85,WSW,237,0.0,0.0,89,0.00,,---,0.00,VWS V14.01,2013-06-12 10:35:00,
2013-06-12 06:36:00,68.0,67.1,28.61,North,351,0.0,3.6,97,0.00,,---,1.65,VWS V14.01,2013-06-12 10:36:00,
2013-06-12 06:37:00,68.0,67.1,28.61,North,351,2.7,2.7,97,0.00,,---,1.65,VWS V14.01,2013-06-12 10:37:00,
2013-06-12 06:38:00,68.0,67.1,28.61,North,351,0.0,2.7,97,0.00,,---,1.65,VWS V14.01,2013-06-12 10:38:00,
2013-06-12 06:39:00,68.2,67.3,28.61,North,351,0.0,3.1,97,0.00,,---,1.65,VWS V14.01,2013-06-12 10:39:00,
2013-06-12 06:40:00,68.2,65.1,28.85,WSW,237,0.0,0.0,90,0.00,,---,0.00,VWS V14.01,2013-06-12 10:40:00,
2013-06-12 06:41:00,68.2,67.3,28.61,North,351,0.0,0.0,97,0.00,,---,1.65,VWS V14.01,2013-06-12 10:41:00,
2013-06-12 06:42:00,68.2,67.3,28.61,North,351,0.0,0.0,97,0.00,,---,1.65,VWS V14.01,2013-06-12 10:42:00,
2013-06-12 06:43:00,68.2,67.3,28.61,NNW,337,0.0,3.6,97,0.00,,---,1.65,VWS V14.01,2013-06-12 10:43:00,
2013-06-12 06:44:00,68.2,67.3,28.61,NNW,337,2.7,3.1,97,0.00,,---,1.65,VWS V14.01,2013-06-12 10:44:00,
2013-06-12 06:45:00,68.4,65.3,28.85,WSW,237,0.0,0.0,90,0.00,,---,0.00,VWS V14.01,2013-06-12 10:45:00,
2013-06-12 06:46:00,68.2,67.3,28.61,NNW,337,0.0,0.0,97,0.00,,---,1.65,VWS V14.01,2013-06-12 10:46:00,
2013-06-12 06:47:00,68.4,67.5,28.61,NNW,337,0.0,0.0,97,0.00,,---,1.65,VWS V14.01,2013-06-12 10:47:00,
2013-06-12 06:48:00,68.4,67.5,28.61,NNW,337,0.0,3.1,97,0.00,,---,1.65,VWS V14.01,2013-06-12 10:48:00,
2013-06-12 06:49:00,68.5,67.7,28.61,NNW,337,0.0,0.0,97,0.00,,---,1.65,VWS V14.01,2013-06-12 10:49:00,
2013-06-12 06:50:00,68.5,65.5,28.85,WSW,237,0.0,0.0,90,0.00,,---,0.00,VWS V14.01,2013-06-12 10:50:00,
2013-06-12 06:51:00,68.5,67.7,28.61,NNW,337,0.0,4.0,97,0.00,,---,1.65,VWS V14.01,2013-06-12 10:51:00,
2013-06-12 06:52:00,68.5,67.7,28.61,NNW,337,0.0,2.7,97,0.00,,---,1.65,VWS V14.01,2013-06-12 10:52:00,
2013-06-12 06:53:00,68.5,67.7,28.61,NNW,337,3.1,3.6,97,0.00,,---,1.65,VWS V14.01,2013-06-12 10:53:00,
2013-06-12 06:54:00,68.5,67.7,28.61,NNW,337,0.0,4.0,97,0.00,,---,1.65,VWS V14.01,2013-06-12 10:54:00,
2013-06-12 06:55:00,68.7,65.7,28.85,WSW,237,0.0,0.0,90,0.00,,---,0.00,VWS V14.01,2013-06-12 10:55:00,
2013-06-12 06:56:00,68.7,67.8,28.61,NNW,334,0.0,4.0,97,0.00,,---,1.65,VWS V14.01,2013-06-12 10:56:00,
2013-06-12 06:58:00,68.7,67.8,28.61,NNW,334,3.6,3.6,97,0.00,,---,1.65,VWS V14.01,2013-06-12 10:58:00,
2013-06-12 06:59:00,68.7,67.8,28.61,NNW,333,3.1,5.8,97,0.00,,---,1.65,VWS V14.01,2013-06-12 10:59:00,
2013-06-12 07:00:00,68.9,65.8,28.85,SW,236,0.0,0.0,90,0.00,,---,0.00,VWS V14.01,2013-06-12 11:00:00,
2013-06-12 07:01:00,68.5,67.7,28.61,NNW,333,0.0,2.7,97,0.00,,---,1.65,VWS V14.01,2013-06-12 11:01:00,
2013-06-12 07:02:00,68.7,67.8,28.61,NNW,334,0.0,3.1,97,0.00,,---,1.65,VWS V14.01,2013-06-12 11:02:00,
2013-06-12 07:03:00,68.5,67.7,28.61,North,351,0.0,4.9,97,0.00,,---,1.65,VWS V14.01,2013-06-12 11:03:00,
2013-06-12 07:04:00,68.5,67.7,28.61,North,351,0.0,0.0,97,0.00,,---,1.65,VWS V14.01,2013-06-12 11:04:00,
2013-06-12 07:05:00,69.3,66.2,28.85,WSW,237,0.0,0.0,90,0.00,,---,0.00,VWS V14.01,2013-06-12 11:05:00,
2013-06-12 07:06:00,68.7,67.8,28.61,North,351,0.0,0.0,97,0.00,,---,1.65,VWS V14.01,2013-06-12 11:06:00,
2013-06-12 07:07:00,68.7,67.8,28.61,North,351,0.0,3.1,97,0.00,,---,1.65,VWS V14.01,2013-06-12 11:07:00,
2013-06-12 07:08:00,68.7,67.8,28.61,NNW,332,0.0,2.7,97,0.00,,---,1.65,VWS V14.01,2013-06-12 11:08:00,
2013-06-12 07:09:00,68.7,67.8,28.61,North,351,0.0,4.0,97,0.00,,---,1.65,VWS V14.01,2013-06-12 11:09:00,
2013-06-12 07:10:00,69.4,66.4,28.85,WSW,237,0.0,0.0,90,0.00,,---,0.00,VWS V14.01,2013-06-12 11:10:00,
2013-06-12 07:11:00,68.7,67.8,28.61,NNW,329,0.0,5.4,97,0.00,,---,1.65,VWS V14.01,2013-06-12 11:11:00,
2013-06-12 07:12:00,68.5,67.7,28.64,NNW,329,0.0,0.0,97,0.00,,---,1.65,VWS V14.01,2013-06-12 11:12:00,
2013-06-12 07:13:00,68.5,67.7,28.64,NNW,334,4.5,4.9,97,0.00,,---,1.65,VWS V14.01,2013-06-12 11:13:00,
2013-06-12 07:14:00,68.5,67.7,28.64,NNW,334,2.7,4.5,97,0.00,,---,1.65,VWS V14.01,2013-06-12 11:14:00,
2013-06-12 07:15:00,69.6,66.9,28.88,WSW,237,0.0,0.0,91,0.00,,---,0.00,VWS V14.01,2013-06-12 11:15:00,
2013-06-12 07:16:00,68.4,67.5,28.64,NW,322,3.6,4.0,97,0.00,,---,1.65,VWS V14.01,2013-06-12 11:16:00,
2013-06-12 07:17:00,68.4,67.5,28.64,NW,315,5.8,6.7,97,0.00,,---,1.65,VWS V14.01,2013-06-12 11:17:00,
2013-06-12 07:18:00,68.2,67.3,28.64,NNW,341,2.7,5.8,97,0.00,,---,1.65,VWS V14.01,2013-06-12 11:18:00,
2013-06-12 07:19:00,68.2,67.3,28.64,NE,38,4.5,6.7,97,0.00,,---,1.65,VWS V14.01,2013-06-12 11:19:00,
2013-06-12 07:20:00,70.0,67.2,28.88,WSW,237,0.0,0.0,91,0.00,,---,0.00,VWS V14.01,2013-06-12 11:20:00,
2013-06-12 07:21:00,68.0,67.1,28.64,NNW,332,0.0,4.9,97,0.00,,---,1.65,VWS V14.01,2013-06-12 11:21:00,
2013-06-12 07:22:00,68.0,67.1,28.64,NNW,336,6.3,6.3,97,0.00,,---,1.65,VWS V14.01,2013-06-12 11:22:00,
2013-06-12 07:23:00,68.0,67.1,28.64,NW,316,3.6,6.3,97,0.00,,---,1.65,VWS V14.01,2013-06-12 11:23:00,
2013-06-12 07:24:00,68.0,67.1,28.64,North,3,0.0,8.3,97,0.00,,---,1.65,VWS V14.01,2013-06-12 11:24:00,
2013-06-12 07:25:00,70.3,67.6,28.88,WSW,237,0.0,0.0,91,0.00,,---,0.00,VWS V14.01,2013-06-12 11:25:00,
2013-06-12 07:26:00,68.0,67.1,28.64,NW,321,0.0,7.8,97,0.04,,---,1.69,VWS V14.01,2013-06-12 11:26:00,
2013-06-12 07:27:00,68.0,67.1,28.67,NNW,337,2.7,6.7,97,0.04,,---,1.69,VWS V14.01,2013-06-12 11:27:00,
2013-06-12 07:28:00,68.0,67.1,28.67,NNW,343,3.1,5.4,97,0.04,,---,1.69,VWS V14.01,2013-06-12 11:28:00,
2013-06-12 07:29:00,68.0,67.1,28.67,NNW,341,0.0,4.0,97,0.04,,---,1.69,VWS V14.01,2013-06-12 11:29:00,
2013-06-12 07:30:00,70.5,67.8,28.85,SW,236,0.0,0.0,91,0.00,,---,0.00,VWS V14.01,2013-06-12 11:30:00,
2013-06-12 07:31:00,67.8,66.9,28.67,NNW,332,4.5,7.4,97,0.04,,---,1.69,VWS V14.01,2013-06-12 11:31:00,
2013-06-12 07:32:00,67.8,66.9,28.67,NW,316,3.1,5.4,97,0.04,,---,1.69,VWS V14.01,2013-06-12 11:32:00,
2013-06-12 07:33:00,67.8,66.9,28.67,NNW,330,6.3,7.8,97,0.04,,---,1.69,VWS V14.01,2013-06-12 11:33:00,
2013-06-12 07:34:00,67.8,66.9,28.67,NNW,345,5.8,7.4,97,0.04,,---,1.69,VWS V14.01,2013-06-12 11:34:00,
2013-06-12 07:35:00,70.9,68.1,28.85,SW,236,0.0,0.0,91,0.00,,---,0.00,VWS V14.01,2013-06-12 11:35:00,
2013-06-12 07:36:00,67.6,66.8,28.67,NNW,335,4.0,8.3,97,0.04,,---,1.69,VWS V14.01,2013-06-12 11:36:00,
2013-06-12 07:37:00,67.6,66.8,28.67,NNW,336,4.0,6.3,97,0.04,,---,1.69,VWS V14.01,2013-06-12 11:37:00,
2013-06-12 07:38:00,67.6,66.8,28.67,WNW,287,4.5,5.4,97,0.04,,---,1.69,VWS V14.01,2013-06-12 11:38:00,
2013-06-12 07:39:00,67.6,66.8,28.67,ENE,65,5.8,6.9,97,0.04,,---,1.69,VWS V14.01,2013-06-12 11:39:00,
2013-06-12 07:40:00,71.1,68.3,28.85,WSW,237,0.0,0.0,91,0.00,,---,0.00,VWS V14.01,2013-06-12 11:40:00,
2013-06-12 07:41:00,67.5,66.6,28.67,WNW,288,5.4,5.4,97,0.04,,---,1.69,VWS V14.01,2013-06-12 11:41:00,
2013-06-12 07:42:00,67.3,66.4,28.67,NW,323,0.0,5.8,97,0.04,,---,1.69,VWS V14.01,2013-06-12 11:42:00,
2013-06-12 07:43:00,67.3,66.4,28.67,NNW,330,5.4,6.7,97,0.04,,---,1.69,VWS V14.01,2013-06-12 11:43:00,
2013-06-12 07:44:00,67.3,66.4,28.67,NNE,13,0.0,5.4,97,0.04,,---,1.69,VWS V14.01,2013-06-12 11:44:00,
2013-06-12 07:45:00,71.4,68.7,28.85,WSW,237,0.0,0.0,91,0.00,,---,0.00,VWS V14.01,2013-06-12 11:45:00,
2013-06-12 07:46:00,67.1,66.2,28.67,NW,321,4.5,6.7,97,0.04,,---,1.69,VWS V14.01,2013-06-12 11:46:00,
2013-06-12 07:47:00,67.1,66.2,28.67,NNE,28,0.0,6.7,97,0.04,,---,1.69,VWS V14.01,2013-06-12 11:47:00,
2013-06-12 07:48:00,67.1,66.2,28.67,NW,318,5.4,5.4,97,0.04,,---,1.69,VWS V14.01,2013-06-12 11:48:00,
2013-06-12 07:49:00,67.1,66.2,28.67,WNW,296,5.4,5.4,97,0.04,,---,1.69,VWS V14.01,2013-06-12 11:49:00,
2013-06-12 07:50:00,71.6,68.8,28.85,WSW,237,0.0,0.0,91,0.00,,---,0.00,VWS V14.01,2013-06-12 11:50:00,
2013-06-12 07:51:00,66.9,66.0,28.67,NNW,340,4.5,4.5,97,0.04,,---,1.69,VWS V14.01,2013-06-12 11:51:00,
2013-06-12 07:52:00,66.9,66.0,28.67,WNW,301,3.1,5.4,97,0.04,,---,1.69,VWS V14.01,2013-06-12 11:52:00,
2013-06-12 07:53:00,66.9,66.0,28.67,North,11,0.0,5.4,97,0.04,,---,1.69,VWS V14.01,2013-06-12 11:53:00,
2013-06-12 07:54:00,66.9,66.0,28.67,North,11,0.0,0.0,97,0.04,,---,1.69,VWS V14.01,2013-06-12 11:54:00,
2013-06-12 07:55:00,71.8,69.0,28.85,SW,236,0.0,0.0,91,0.00,,---,0.00,VWS V14.01,2013-06-12 11:55:00,
2013-06-12 07:56:00,67.1,66.2,28.67,NNW,340,2.7,2.7,97,0.04,,---,1.69,VWS V14.01,2013-06-12 11:56:00,
2013-06-12 07:57:00,67.1,66.2,28.67,North,351,5.8,7.4,97,0.04,,---,1.69,VWS V14.01,2013-06-12 11:57:00,
2013-06-12 07:58:00,66.9,66.0,28.67,North,356,0.0,5.8,97,0.08,,---,1.73,VWS V14.01,2013-06-12 11:58:00,
2013-06-12 07:59:00,66.7,65.9,28.67,North,10,0.0,5.4,97,0.08,,---,1.73,VWS V14.01,2013-06-12 11:59:00,
2013-06-12 08:00:00,72.3,69.2,28.85,WSW,237,0.0,0.0,90,0.00,,---,0.00,VWS V14.01,2013-06-12 12:00:00,
2013-06-12 08:01:00,66.9,66.0,28.67,NNW,336,0.0,3.1,97,0.08,,---,1.73,VWS V14.01,2013-06-12 12:01:00,
2013-06-12 08:02:00,66.9,66.0,28.67,North,9,0.0,0.0,97,0.08,,---,1.73,VWS V14.01,2013-06-12 12:02:00,
2013-06-12 08:03:00,66.9,66.0,28.67,North,351,2.7,4.0,97,0.08,,---,1.73,VWS V14.01,2013-06-12 12:03:00,
2013-06-12 08:04:00,66.9,66.0,28.67,NW,320,2.7,3.6,97,0.08,,---,1.73,VWS V14.01,2013-06-12 12:04:00,
2013-06-12 08:05:00,73.0,69.6,28.85,WSW,237,0.0,0.0,89,0.00,,---,0.00,VWS V14.01,2013-06-12 12:05:00,
2013-06-12 08:06:00,66.9,66.0,28.67,NNW,332,0.0,4.0,97,0.08,,---,1.73,VWS V14.01,2013-06-12 12:06:00,
2013-06-12 08:07:00,66.9,66.0,28.67,NNW,334,2.7,3.1,97,0.08,,---,1.73,VWS V14.01,2013-06-12 12:07:00,
2013-06-12 08:08:00,66.9,66.0,28.67,NW,309,3.1,3.1,97,0.08,,---,1.73,VWS V14.01,2013-06-12 12:08:00,
2013-06-12 08:09:00,66.9,66.0,28.67,West,271,0.0,3.1,97,0.08,,---,1.73,VWS V14.01,2013-06-12 12:09:00,
2013-06-12 08:10:00,73.4,70.0,28.85,SW,236,0.0,0.0,89,0.00,,---,0.00,VWS V14.01,2013-06-12 12:10:00,
2013-06-12 08:11:00,66.9,66.0,28.67,NNE,23,4.0,4.5,97,0.08,,---,1.73,VWS V14.01,2013-06-12 12:11:00,
2013-06-12 08:12:00,66.9,66.0,28.67,NNE,23,0.0,4.0,97,0.08,,---,1.73,VWS V14.01,2013-06-12 12:12:00,
2013-06-12 08:13:00,66.9,66.0,28.67,NNW,344,0.0,2.7,97,0.08,,---,1.73,VWS V14.01,2013-06-12 12:13:00,
2013-06-12 08:14:00,67.1,66.2,28.67,NNW,347,3.6,3.6,97,0.08,,---,1.73,VWS V14.01,2013-06-12 12:14:00,
2013-06-12 08:15:00,74.8,71.1,28.85,WSW,237,0.0,0.0,88,0.00,,---,0.00,VWS V14.01,2013-06-12 12:15:00,
2013-06-12 08:16:00,67.1,66.2,28.67,North,356,3.1,5.4,97,0.08,,---,1.73,VWS V14.01,2013-06-12 12:16:00,
2013-06-12 08:17:00,67.1,66.2,28.67,NNE,16,3.6,3.6,97,0.08,,---,1.73,VWS V14.01,2013-06-12 12:17:00,
2013-06-12 08:18:00,67.1,66.2,28.67,North,356,0.0,4.5,97,0.08,,---,1.73,VWS V14.01,2013-06-12 12:18:00,
2013-06-12 08:19:00,67.1,66.2,28.67,NNW,333,2.7,4.5,97,0.08,,---,1.73,VWS V14.01,2013-06-12 12:19:00,
2013-06-12 08:20:00,77.2,72.7,28.85,WSW,237,0.0,0.0,86,0.00,,---,0.00,VWS V14.01,2013-06-12 12:20:00,
2013-06-12 08:21:00,67.1,66.2,28.67,NNE,21,5.8,6.3,97,0.08,,---,1.73,VWS V14.01,2013-06-12 12:21:00,
2013-06-12 08:22:00,67.1,66.2,28.67,NNW,334,3.1,5.8,97,0.08,,---,1.73,VWS V14.01,2013-06-12 12:22:00,
2013-06-12 08:23:00,67.3,66.4,28.67,NNE,25,0.0,4.0,97,0.08,,---,1.73,VWS V14.01,2013-06-12 12:23:00,
2013-06-12 08:24:00,67.3,66.4,28.67,North,351,6.3,6.3,97,0.08,,---,1.73,VWS V14.01,2013-06-12 12:24:00,
2013-06-12 08:25:00,80.2,72.8,28.85,WSW,237,0.0,0.0,78,0.00,,---,0.00,VWS V14.01,2013-06-12 12:25:00,
2013-06-12 08:26:00,67.5,66.6,28.67,NW,311,2.7,2.7,97,0.04,,---,1.73,VWS V14.01,2013-06-12 12:26:00,
2013-06-12 08:27:00,67.5,66.6,28.67,NW,320,4.9,5.4,97,0.04,,---,1.73,VWS V14.01,2013-06-12 12:27:00,
2013-06-12 08:28:00,67.5,66.6,28.67,NNW,329,0.0,4.9,97,0.04,,---,1.73,VWS V14.01,2013-06-12 12:28:00,
2013-06-12 08:29:00,67.5,66.6,28.67,North,356,0.0,4.5,97,0.04,,---,1.73,VWS V14.01,2013-06-12 12:29:00,
2013-06-12 08:30:00,84.4,72.2,28.85,SW,236,0.0,0.0,67,0.00,,---,0.00,VWS V14.01,2013-06-12 12:30:00,
2013-06-12 08:31:00,67.5,66.6,28.67,NNE,33,3.1,4.5,97,0.04,,---,1.73,VWS V14.01,2013-06-12 12:31:00,
2013-06-12 08:32:00,67.5,66.6,28.67,NNW,327,3.6,4.5,97,0.04,,---,1.73,VWS V14.01,2013-06-12 12:32:00,
2013-06-12 08:33:00,67.5,66.6,28.67,NNW,329,0.0,4.5,97,0.04,,---,1.73,VWS V14.01,2013-06-12 12:33:00,
2013-06-12 08:34:00,67.5,66.6,28.67,NNW,329,2.7,3.6,97,0.04,,---,1.73,VWS V14.01,2013-06-12 12:34:00,
2013-06-12 08:35:00,87.3,68.6,28.85,WSW,237,0.0,0.0,54,0.00,,---,0.00,VWS V14.01,2013-06-12 12:35:00,
2013-06-12 08:36:00,67.5,66.6,28.67,North,351,0.0,6.3,97,0.04,,---,1.73,VWS V14.01,2013-06-12 12:36:00,
2013-06-12 08:37:00,67.5,66.6,28.67,NW,323,4.5,4.5,97,0.04,,---,1.73,VWS V14.01,2013-06-12 12:37:00,
2013-06-12 08:38:00,67.5,66.6,28.67,NNW,333,2.7,5.8,97,0.04,,---,1.73,VWS V14.01,2013-06-12 12:38:00,
2013-06-12 08:39:00,67.5,66.6,28.67,NE,42,0.0,4.0,97,0.04,,---,1.73,VWS V14.01,2013-06-12 12:39:00,
2013-06-12 08:40:00,89.6,64.8,28.85,SSW,196,0.0,0.0,44,0.00,,---,0.00,VWS V14.01,2013-06-12 12:40:00,
2013-06-12 08:41:00,67.6,66.8,28.67,NNE,16,0.0,0.0,97,0.04,,---,1.73,VWS V14.01,2013-06-12 12:41:00,
2013-06-12 08:42:00,67.8,66.9,28.67,NNE,20,0.0,3.1,97,0.04,,---,1.73,VWS V14.01,2013-06-12 12:42:00,
2013-06-12 08:43:00,68.0,67.1,28.67,NNE,20,2.7,2.7,97,0.04,,---,1.73,VWS V14.01,2013-06-12 12:43:00,
2013-06-12 08:44:00,68.0,67.1,28.67,North,356,3.6,3.6,97,0.04,,---,1.73,VWS V14.01,2013-06-12 12:44:00,
2013-06-12 08:45:00,87.8,61.2,28.85,SSW,196,0.0,0.0,41,0.00,,---,0.00,VWS V14.01,2013-06-12 12:45:00,
2013-06-12 08:46:00,67.8,66.9,28.67,NNE,12,4.0,4.0,97,0.04,,---,1.73,VWS V14.01,2013-06-12 12:46:00,
2013-06-12 08:47:00,67.8,66.9,28.67,NW,326,3.1,4.0,97,0.04,,---,1.73,VWS V14.01,2013-06-12 12:47:00,
2013-06-12 08:48:00,67.6,66.8,28.67,NNE,20,4.0,6.3,97,0.04,,---,1.73,VWS V14.01,2013-06-12 12:48:00,
2013-06-12 08:49:00,67.6,66.8,28.67,NNE,29,0.0,4.0,97,0.04,,---,1.73,VWS V14.01,2013-06-12 12:49:00,
2013-06-12 08:50:00,84.6,60.3,28.85,West,262,0.0,3.1,44,0.00,,---,0.00,VWS V14.01,2013-06-12 12:50:00,
2013-06-12 08:51:00,67.8,66.9,28.67,NE,47,0.0,4.0,97,0.04,,---,1.73,VWS V14.01,2013-06-12 12:51:00,
2013-06-12 08:52:00,67.8,66.9,28.67,NNW,330,4.0,4.5,97,0.04,,---,1.73,VWS V14.01,2013-06-12 12:52:00,
2013-06-12 08:53:00,67.8,66.9,28.67,North,8,3.6,5.4,97,0.04,,---,1.73,VWS V14.01,2013-06-12 12:53:00,
2013-06-12 08:54:00,67.8,66.9,28.67,NNE,24,5.8,7.4,97,0.04,,---,1.73,VWS V14.01,2013-06-12 12:54:00,
2013-06-12 08:55:00,79.7,63.1,28.85,West,275,3.1,6.7,57,0.00,,---,0.00,VWS V14.01,2013-06-12 12:55:00,
2013-06-12 08:56:00,67.8,66.9,28.67,NNE,27,2.7,3.6,97,0.04,,---,1.73,VWS V14.01,2013-06-12 12:56:00,
2013-06-12 08:57:00,67.8,66.9,28.67,NNW,340,4.9,4.9,97,0.04,,---,1.73,VWS V14.01,2013-06-12 12:57:00,
2013-06-12 08:58:00,67.6,66.8,28.67,NW,321,2.7,7.4,97,0.04,,---,1.73,VWS V14.01,2013-06-12 12:58:00,
2013-06-12 08:59:00,67.6,66.8,28.67,NNE,16,0.0,5.4,97,0.00,,---,1.73,VWS V14.01,2013-06-12 12:59:00,
2013-06-12 09:00:00,78.3,65.1,28.85,WSW,252,0.0,3.1,64,0.00,,---,0.00,VWS V14.01,2013-06-12 13:00:00,
2013-06-12 09:01:00,67.6,66.8,28.67,North,356,3.6,4.5,97,0.00,,---,1.73,VWS V14.01,2013-06-12 13:01:00,
2013-06-12 09:02:00,67.8,66.9,28.67,WNW,294,2.7,4.0,97,0.00,,---,1.73,VWS V14.01,2013-06-12 13:02:00,
2013-06-12 09:03:00,67.8,66.9,28.67,NE,34,0.0,4.0,97,0.00,,---,1.73,VWS V14.01,2013-06-12 13:03:00,
2013-06-12 09:04:00,67.8,66.9,28.67,NW,324,2.7,4.5,97,0.00,,---,1.73,VWS V14.01,2013-06-12 13:04:00,
2013-06-12 09:05:00,77.7,66.3,28.85,West,263,0.0,2.7,68,0.00,,---,0.00,VWS V14.01,2013-06-12 13:05:00,
2013-06-12 09:06:00,67.8,66.9,28.67,NNE,14,2.7,3.6,97,0.00,,---,1.73,VWS V14.01,2013-06-12 13:06:00,
2013-06-12 09:07:00,67.8,66.9,28.67,NNE,13,0.0,3.1,97,0.00,,---,1.73,VWS V14.01,2013-06-12 13:07:00,
2013-06-12 09:08:00,67.8,66.9,28.67,NNE,14,0.0,2.7,97,0.00,,---,1.73,VWS V14.01,2013-06-12 13:08:00,
2013-06-12 09:09:00,68.0,67.1,28.67,NNE,14,0.0,3.6,97,0.00,,---,1.73,VWS V14.01,2013-06-12 13:09:00,
2013-06-12 09:10:00,68.0,67.1,28.67,NW,312,0.0,3.6,97,0.00,,---,1.73,VWS V14.01,2013-06-12 13:10:00,
2013-06-12 09:11:00,68.0,67.1,28.67,NNE,27,0.0,4.0,97,0.00,,---,1.73,VWS V14.01,2013-06-12 13:11:00,
2013-06-12 09:12:00,67.8,66.9,28.67,NNE,32,3.1,5.8,97,0.00,,---,1.73,VWS V14.01,2013-06-12 13:12:00,
2013-06-12 09:13:00,67.6,66.8,28.67,NNE,25,4.5,7.8,97,0.00,,---,1.73,VWS V14.01,2013-06-12 13:13:00,
2013-06-12 09:14:00,67.6,66.8,28.67,NNE,19,3.6,4.9,97,0.00,,---,1.73,VWS V14.01,2013-06-12 13:14:00,
2013-06-12 09:15:00,67.6,66.8,28.67,North,0,3.1,4.9,97,0.00,,---,1.73,VWS V14.01,2013-06-12 13:15:00,
2013-06-12 09:16:00,67.8,66.9,28.67,NNE,27,2.7,4.9,97,0.00,,---,1.73,VWS V14.01,2013-06-12 13:16:00,
2013-06-12 09:17:00,68.0,67.1,28.67,North,356,4.9,6.7,97,0.00,,---,1.73,VWS V14.01,2013-06-12 13:17:00,
2013-06-12 09:18:00,68.0,67.1,28.67,NNE,27,0.0,4.9,97,0.00,,---,1.73,VWS V14.01,2013-06-12 13:18:00,
2013-06-12 09:19:00,68.2,67.3,28.67,NNE,33,0.0,4.0,97,0.00,,---,1.73,VWS V14.01,2013-06-12 13:19:00,
2013-06-12 09:20:00,68.4,67.5,28.67,NNE,26,0.0,4.0,97,0.00,,---,1.73,VWS V14.01,2013-06-12 13:20:00,
2013-06-12 09:21:00,78.8,66.5,28.88,West,266,4.0,6.7,66,0.00,,---,0.00,VWS V14.01,2013-06-12 13:21:00,
2013-06-12 09:22:00,68.5,67.7,28.67,North,9,3.1,4.0,97,0.00,,---,1.73,VWS V14.01,2013-06-12 13:22:00,
2013-06-12 09:23:00,68.7,67.8,28.67,North,356,0.0,3.1,97,0.00,,---,1.73,VWS V14.01,2013-06-12 13:23:00,
2013-06-12 09:24:00,68.9,68.0,28.67,NE,35,0.0,4.0,97,0.00,,---,1.73,VWS V14.01,2013-06-12 13:24:00,
2013-06-12 09:25:00,69.1,68.2,28.67,NNE,22,4.9,4.9,97,0.00,,---,1.73,VWS V14.01,2013-06-12 13:25:00,
2013-06-12 09:26:00,69.3,68.4,28.67,North,6,0.0,4.9,97,0.00,,---,1.73,VWS V14.01,2013-06-12 13:26:00,
2013-06-12 09:27:00,69.3,68.4,28.70,NNE,16,0.0,3.6,97,0.00,,---,1.73,VWS V14.01,2013-06-12 13:27:00,
2013-06-12 09:28:00,69.4,68.6,28.70,NNE,18,2.7,2.7,97,0.00,,---,1.73,VWS V14.01,2013-06-12 13:28:00,
2013-06-12 09:29:00,78.6,66.3,28.88,WSW,250,3.1,6.3,66,0.00,,---,0.00,VWS V14.01,2013-06-12 13:29:00,
2013-06-12 09:30:00,69.6,68.7,28.70,NW,307,2.7,4.5,97,0.00,,---,1.73,VWS V14.01,2013-06-12 13:30:00,
2013-06-12 09:31:00,69.4,68.6,28.70,North,7,0.0,4.5,97,0.00,,---,1.73,VWS V14.01,2013-06-12 13:31:00,
2013-06-12 09:32:00,69.6,68.7,28.70,SSE,153,0.0,3.1,97,0.00,,---,1.73,VWS V14.01,2013-06-12 13:32:00,
2013-06-12 09:33:00,69.4,68.6,28.70,NNW,342,2.7,3.6,97,0.00,,---,1.73,VWS V14.01,2013-06-12 13:33:00,
2013-06-12 09:34:00,69.4,68.6,28.70,North,0,0.0,2.7,97,0.00,,---,1.73,VWS V14.01,2013-06-12 13:34:00,
2013-06-12 09:35:00,69.3,68.4,28.70,North,351,0.0,0.0,97,0.00,,---,1.73,VWS V14.01,2013-06-12 13:35:00,
2013-06-12 09:36:00,68.9,68.0,28.70,NE,39,0.0,4.5,97,0.00,,---,1.73,VWS V14.01,2013-06-12 13:36:00,
2013-06-12 09:37:00,68.7,67.8,28.70,NNE,12,0.0,5.4,97,0.00,,---,1.73,VWS V14.01,2013-06-12 13:37:00,
2013-06-12 09:38:00,68.9,68.0,28.70,NNE,12,0.0,0.0,97,0.00,,---,1.73,VWS V14.01,2013-06-12 13:38:00,
2013-06-12 09:39:00,68.9,68.0,28.70,NNE,24,0.0,7.8,97,0.00,,---,1.73,VWS V14.01,2013-06-12 13:39:00,
2013-06-12 09:40:00,79.3,66.1,28.85,WSW,251,4.5,6.9,64,0.00,,---,0.00,VWS V14.01,2013-06-12 13:40:00,
2013-06-12 09:41:00,68.7,67.8,28.70,NNE,16,0.0,4.0,97,0.00,,---,1.73,VWS V14.01,2013-06-12 13:41:00,
2013-06-12 09:42:00,68.7,67.8,28.70,North,356,0.0,4.0,97,0.00,,---,1.73,VWS V14.01,2013-06-12 13:42:00,
2013-06-12 09:43:00,68.7,67.8,28.70,NE,37,0.0,4.0,97,0.00,,---,1.73,VWS V14.01,2013-06-12 13:43:00,
2013-06-12 09:44:00,68.7,67.8,28.70,NNE,23,3.1,4.5,97,0.00,,---,1.73,VWS V14.01,2013-06-12 13:44:00,
2013-06-12 09:45:00,79.7,66.5,28.88,West,271,6.3,6.3,64,0.00,,---,0.00,VWS V14.01,2013-06-12 13:45:00,
2013-06-12 09:46:00,69.3,68.4,28.70,NNE,22,0.0,2.7,97,0.00,,---,1.73,VWS V14.01,2013-06-12 13:46:00,
2013-06-12 09:47:00,69.3,68.4,28.70,NNE,22,0.0,0.0,97,0.00,,---,1.73,VWS V14.01,2013-06-12 13:47:00,
2013-06-12 09:48:00,69.1,68.2,28.70,NE,41,0.0,3.6,97,0.00,,---,1.73,VWS V14.01,2013-06-12 13:48:00,
2013-06-12 09:49:00,68.9,68.0,28.70,NE,34,0.0,4.9,97,0.00,,---,1.73,VWS V14.01,2013-06-12 13:49:00,
2013-06-12 09:50:00,68.7,67.8,28.70,NNW,339,0.0,3.1,97,0.00,,---,1.73,VWS V14.01,2013-06-12 13:50:00,
2013-06-12 09:51:00,68.7,67.8,28.70,North,351,0.0,0.0,97,0.00,,---,1.73,VWS V14.01,2013-06-12 13:51:00,
2013-06-12 09:52:00,68.7,67.8,28.70,North,351,0.0,0.0,97,0.00,,---,1.73,VWS V14.01,2013-06-12 13:52:00,
2013-06-12 09:53:00,68.4,67.5,28.70,NE,45,4.5,4.5,97,0.00,,---,1.73,VWS V14.01,2013-06-12 13:53:00,
2013-06-12 09:54:00,81.0,65.8,28.88,WNW,302,5.8,7.4,60,0.00,,---,0.00,VWS V14.01,2013-06-12 13:54:00,
2013-06-12 09:55:00,68.7,67.8,28.70,WNW,291,4.5,4.5,97,0.00,,---,1.73,VWS V14.01,2013-06-12 13:55:00,
2013-06-12 09:56:00,68.7,67.8,28.70,NW,325,0.0,4.5,97,0.00,,---,1.73,VWS V14.01,2013-06-12 13:56:00,
2013-06-12 09:57:00,68.5,67.7,28.70,West,280,3.1,3.6,97,0.00,,---,1.73,VWS V14.01,2013-06-12 13:57:00,
2013-06-12 09:58:00,68.4,67.5,28.70,NNW,343,0.0,4.5,97,0.00,,---,1.73,VWS V14.01,2013-06-12 13:58:00,
2013-06-12 09:59:00,68.4,67.5,28.70,NE,42,0.0,5.4,97,0.00,,---,1.73,VWS V14.01,2013-06-12 13:59:00,
2013-06-12 10:00:00,68.0,67.1,28.70,ENE,59,3.6,8.7,97,0.00,,---,1.73,VWS V14.01,2013-06-12 14:00:00,
2013-06-12 10:01:00,68.0,67.1,28.70,NNW,334,5.8,5.8,97,0.00,,---,1.73,VWS V14.01,2013-06-12 14:01:00,
2013-06-12 10:02:00,66.2,61.9,28.70,NE,34,0.0,5.8,86,0.00,,---,1.73,VWS V14.01,2013-06-12 14:02:00,
2013-06-12 10:03:00,68.0,67.1,28.70,NNE,20,2.7,6.7,97,0.00,,---,1.73,VWS V14.01,2013-06-12 14:03:00,
2013-06-12 10:04:00,68.2,67.3,28.70,NW,305,4.5,4.5,97,0.00,,---,1.73,VWS V14.01,2013-06-12 14:04:00,
2013-06-12 10:05:00,68.2,67.3,28.70,NW,316,4.0,5.8,97,0.00,,---,1.73,VWS V14.01,2013-06-12 14:05:00,
2013-06-12 10:06:00,68.4,67.5,28.70,NNW,346,0.0,4.9,97,0.00,,---,1.73,VWS V14.01,2013-06-12 14:06:00,
2013-06-12 10:07:00,68.4,67.5,28.70,NNW,347,4.0,4.0,97,0.00,,---,1.73,VWS V14.01,2013-06-12 14:07:00,
2013-06-12 10:08:00,68.4,67.5,28.70,NNE,33,3.1,6.9,97,0.00,,---,1.73,VWS V14.01,2013-06-12 14:08:00,
2013-06-12 10:09:00,68.5,67.7,28.70,East,98,0.0,3.1,97,0.00,,---,1.73,VWS V14.01,2013-06-12 14:09:00,
2013-06-12 10:10:00,81.0,65.3,28.88,WSW,258,4.9,7.8,59,0.00,,---,0.00,VWS V14.01,2013-06-12 14:10:00,
2013-06-12 10:11:00,68.7,67.8,28.70,North,9,0.0,0.0,97,0.00,,---,1.73,VWS V14.01,2013-06-12 14:11:00,
2013-06-12 10:12:00,68.9,67.7,28.70,NW,317,0.0,2.7,96,0.00,,---,1.73,VWS V14.01,2013-06-12 14:12:00,
2013-06-12 10:13:00,68.9,67.7,28.70,NW,317,0.0,0.0,96,0.00,,---,1.73,VWS V14.01,2013-06-12 14:13:00,
2013-06-12 10:14:00,69.1,67.9,28.70,NNE,29,2.7,3.1,96,0.00,,---,1.73,VWS V14.01,2013-06-12 14:14:00,
2013-06-12 10:15:00,68.9,68.0,28.70,NNE,25,0.0,6.9,97,0.00,,---,1.73,VWS V14.01,2013-06-12 14:15:00,
2013-06-12 10:16:00,68.9,67.7,28.70,NNE,25,0.0,0.0,96,0.00,,---,1.73,VWS V14.01,2013-06-12 14:16:00,
2013-06-12 10:17:00,68.7,67.5,28.70,NE,41,0.0,3.6,96,0.00,,---,1.73,VWS V14.01,2013-06-12 14:17:00,
2013-06-12 10:18:00,68.5,67.4,28.70,NNW,344,5.8,5.8,96,0.00,,---,1.73,VWS V14.01,2013-06-12 14:18:00,
2013-06-12 10:19:00,68.5,67.4,28.70,ENE,69,0.0,5.8,96,0.00,,---,1.73,VWS V14.01,2013-06-12 14:19:00,
2013-06-12 10:20:00,68.4,67.2,28.70,NNW,343,6.3,6.3,96,0.00,,---,1.73,VWS V14.01,2013-06-12 14:20:00,
2013-06-12 10:21:00,68.2,66.7,28.70,NNE,31,4.9,7.4,95,0.00,,---,1.73,VWS V14.01,2013-06-12 14:21:00,
2013-06-12 10:22:00,68.2,66.7,28.70,NW,312,4.0,4.9,95,0.00,,---,1.73,VWS V14.01,2013-06-12 14:22:00,
2013-06-12 10:23:00,68.2,66.4,28.70,NE,36,3.1,6.7,94,0.00,,---,1.73,VWS V14.01,2013-06-12 14:23:00,
2013-06-12 10:24:00,68.2,66.4,28.70,NW,318,4.0,5.8,94,0.00,,---,1.73,VWS V14.01,2013-06-12 14:24:00,
2013-06-12 10:25:00,68.2,66.1,28.70,North,10,0.0,4.9,93,0.00,,---,1.73,VWS V14.01,2013-06-12 14:25:00,
2013-06-12 10:26:00,68.2,66.1,28.70,NNW,338,4.0,4.5,93,0.00,,---,1.73,VWS V14.01,2013-06-12 14:26:00,
2013-06-12 10:27:00,82.0,65.3,28.88,West,264,0.0,3.1,57,0.00,,---,0.00,VWS V14.01,2013-06-12 14:27:00,
2013-06-12 10:28:00,68.2,65.8,28.73,NE,34,0.0,0.0,92,0.00,,---,1.73,VWS V14.01,2013-06-12 14:28:00,
2013-06-12 10:29:00,68.2,65.5,28.73,NNE,23,0.0,4.5,91,0.00,,---,1.73,VWS V14.01,2013-06-12 14:29:00,
2013-06-12 10:30:00,68.2,65.5,28.73,NE,37,0.0,4.5,91,0.00,,---,1.73,VWS V14.01,2013-06-12 14:30:00,
2013-06-12 10:31:00,68.0,65.3,28.73,NNE,28,0.0,4.9,91,0.00,,---,1.73,VWS V14.01,2013-06-12 14:31:00,
2013-06-12 10:32:00,68.0,65.0,28.73,NE,47,3.1,7.4,90,0.00,,---,1.73,VWS V14.01,2013-06-12 14:32:00,
2013-06-12 10:33:00,68.0,65.0,28.73,West,277,0.0,6.3,90,0.00,,---,1.73,VWS V14.01,2013-06-12 14:33:00,
2013-06-12 10:34:00,68.0,65.0,28.73,NNE,19,0.0,4.0,90,0.00,,---,1.73,VWS V14.01,2013-06-12 14:34:00,
2013-06-12 10:35:00,67.8,64.8,28.73,West,262,6.7,6.7,90,0.00,,---,1.73,VWS V14.01,2013-06-12 14:35:00,
2013-06-12 10:36:00,82.0,64.3,28.88,WSW,237,5.4,6.3,55,0.00,,---,0.00,VWS V14.01,2013-06-12 14:36:00,
2013-06-12 10:37:00,67.6,64.3,28.73,NNE,31,2.7,4.5,89,0.00,,---,1.73,VWS V14.01,2013-06-12 14:37:00,
2013-06-12 10:38:00,67.6,64.3,28.73,NNE,23,0.0,3.6,89,0.00,,---,1.73,VWS V14.01,2013-06-12 14:38:00,
2013-06-12 10:39:00,67.6,64.3,28.73,WNW,289,3.1,4.5,89,0.00,,---,1.73,VWS V14.01,2013-06-12 14:39:00,
2013-06-12 10:40:00,67.5,64.1,28.73,West,260,3.1,4.5,89,0.00,,---,1.73,VWS V14.01,2013-06-12 14:40:00,
2013-06-12 10:41:00,67.5,64.1,28.73,NNE,33,0.0,5.4,89,0.00,,---,1.73,VWS V14.01,2013-06-12 14:41:00,
2013-06-12 10:42:00,67.5,64.1,28.73,North,351,0.0,4.9,89,0.00,,---,1.73,VWS V14.01,2013-06-12 14:42:00,
2013-06-12 10:43:00,67.3,63.6,28.73,North,11,5.4,6.7,88,0.00,,---,1.73,VWS V14.01,2013-06-12 14:43:00,
2013-06-12 10:44:00,67.3,63.6,28.73,WNW,292,3.1,5.4,88,0.00,,---,1.73,VWS V14.01,2013-06-12 14:44:00,
2013-06-12 10:45:00,67.3,63.6,28.73,East,83,0.0,5.4,88,0.00,,---,1.73,VWS V14.01,2013-06-12 14:45:00,
2013-06-12 10:46:00,67.3,63.6,28.73,North,5,0.0,0.0,88,0.00,,---,1.73,VWS V14.01,2013-06-12 14:46:00,
2013-06-12 10:47:00,67.3,63.6,28.73,East,96,0.0,0.0,88,0.00,,---,1.73,VWS V14.01,2013-06-12 14:47:00,
2013-06-12 10:48:00,67.3,63.3,28.73,ENE,78,3.6,5.4,87,0.00,,---,1.73,VWS V14.01,2013-06-12 14:48:00,
2013-06-12 10:49:00,67.3,63.3,28.73,NNW,343,0.0,4.9,87,0.00,,---,1.73,VWS V14.01,2013-06-12 14:49:00,
2013-06-12 10:50:00,67.1,63.1,28.73,NNE,21,0.0,4.0,87,0.00,,---,1.73,VWS V14.01,2013-06-12 14:50:00,
2013-06-12 10:51:00,67.3,63.3,28.73,NNE,18,0.0,0.0,87,0.00,,---,1.73,VWS V14.01,2013-06-12 14:51:00,
2013-06-12 10:52:00,67.3,63.0,28.73,North,3,0.0,0.0,86,0.00,,---,1.73,VWS V14.01,2013-06-12 14:52:00,
2013-06-12 10:53:00,83.8,64.9,28.85,WSW,248,4.5,5.4,53,0.00,,---,0.00,VWS V14.01,2013-06-12 14:53:00,
2013-06-12 10:54:00,67.1,62.8,28.73,NNE,29,3.1,4.5,86,0.00,,---,1.73,VWS V14.01,2013-06-12 14:54:00,
2013-06-12 10:55:00,67.1,62.5,28.73,NNE,30,0.0,4.0,85,0.00,,---,1.73,VWS V14.01,2013-06-12 14:55:00,
2013-06-12 10:56:00,66.9,61.9,28.73,NE,34,3.1,5.4,84,0.00,,---,1.73,VWS V14.01,2013-06-12 14:56:00,
2013-06-12 10:57:00,66.9,61.6,28.76,ENE,66,0.0,3.1,83,0.00,,---,1.73,VWS V14.01,2013-06-12 14:57:00,
2013-06-12 10:58:00,84.4,62.6,28.85,West,276,4.9,7.4,48,0.00,,---,0.00,VWS V14.01,2013-06-12 14:58:00,
2013-06-12 10:59:00,66.9,60.9,28.76,ENE,64,3.1,4.9,81,0.00,,---,1.73,VWS V14.01,2013-06-12 14:59:00,
2013-06-12 11:00:00,66.9,60.9,28.76,North,356,0.0,5.8,81,0.00,,---,1.73,VWS V14.01,2013-06-12 15:00:00,
2013-06-12 11:01:00,66.9,60.9,28.76,North,356,3.6,4.5,81,0.00,,---,1.73,VWS V14.01,2013-06-12 15:01:00,
2013-06-12 11:02:00,66.9,60.6,28.76,North,11,0.0,3.6,80,0.00,,---,1.73,VWS V14.01,2013-06-12 15:02:00,
2013-06-12 11:03:00,83.5,63.5,28.85,SW,219,4.0,6.3,51,0.00,,---,0.00,VWS V14.01,2013-06-12 15:03:00,
2013-06-12 11:04:00,66.7,59.7,28.76,South,170,0.0,7.8,78,0.00,,---,1.73,VWS V14.01,2013-06-12 15:04:00,
2013-06-12 11:05:00,66.6,58.8,28.76,ESE,105,4.5,4.9,76,0.00,,---,1.73,VWS V14.01,2013-06-12 15:05:00,
2013-06-12 11:06:00,66.7,57.8,28.76,North,1,0.0,4.5,73,0.00,,---,1.73,VWS V14.01,2013-06-12 15:06:00,
2013-06-12 11:07:00,66.9,57.6,28.76,NW,307,0.0,0.0,72,0.00,,---,1.73,VWS V14.01,2013-06-12 15:07:00,
2013-06-12 11:08:00,84.0,62.2,28.85,NW,309,5.4,6.3,48,0.00,,---,0.00,VWS V14.01,2013-06-12 15:08:00,
2013-06-12 11:09:00,67.1,56.6,28.76,SSE,168,0.0,2.7,69,0.00,,---,1.73,VWS V14.01,2013-06-12 15:09:00,
2013-06-12 11:10:00,67.3,56.4,28.76,NE,39,0.0,2.7,68,0.00,,---,1.73,VWS V14.01,2013-06-12 15:10:00,
2013-06-12 11:11:00,67.5,56.5,28.76,SE,128,0.0,0.0,68,0.00,,---,1.73,VWS V14.01,2013-06-12 15:11:00,
2013-06-12 11:12:00,67.8,56.9,28.76,South,187,0.0,4.9,68,0.00,,---,1.73,VWS V14.01,2013-06-12 15:12:00,
2013-06-12 11:13:00,84.4,62.6,28.85,WNW,293,0.0,5.4,48,0.00,,---,0.00,VWS V14.01,2013-06-12 15:13:00,
2013-06-12 11:14:00,68.5,58.0,28.76,NE,36,0.0,0.0,69,0.00,,---,1.73,VWS V14.01,2013-06-12 15:14:00,
2013-06-12 11:15:00,68.9,58.3,28.76,SSE,167,0.0,3.1,69,0.00,,---,1.73,VWS V14.01,2013-06-12 15:15:00,
2013-06-12 11:16:00,69.1,58.1,28.76,North,351,0.0,4.0,68,0.00,,---,1.73,VWS V14.01,2013-06-12 15:16:00,
2013-06-12 11:17:00,69.4,57.2,28.76,North,351,3.1,4.9,65,0.00,,---,1.73,VWS V14.01,2013-06-12 15:17:00,
2013-06-12 11:18:00,84.7,61.7,28.85,NW,319,3.6,4.9,46,0.00,,---,0.00,VWS V14.01,2013-06-12 15:18:00,
2013-06-12 11:19:00,70.2,56.5,28.76,NNE,31,3.1,4.9,62,0.00,,---,1.73,VWS V14.01,2013-06-12 15:19:00,
2013-06-12 11:20:00,70.5,55.5,28.76,SSE,161,3.1,5.8,59,0.00,,---,1.73,VWS V14.01,2013-06-12 15:20:00,
2013-06-12 11:21:00,70.9,53.9,28.76,ENE,60,0.0,4.9,55,0.00,,---,1.73,VWS V14.01,2013-06-12 15:21:00,
2013-06-12 11:22:00,71.2,52.7,28.76,NE,36,0.0,5.8,52,0.00,,---,1.73,VWS V14.01,2013-06-12 15:22:00,
2013-06-12 11:23:00,71.4,50.2,28.76,ENE,64,2.7,3.1,47,0.00,,---,1.73,VWS V14.01,2013-06-12 15:23:00,
2013-06-12 11:24:00,84.9,62.5,28.85,West,276,0.0,5.4,47,0.00,,---,0.00,VWS V14.01,2013-06-12 15:24:00,
2013-06-12 11:25:00,72.1,50.2,28.76,NE,54,2.7,4.9,46,0.00,,---,1.73,VWS V14.01,2013-06-12 15:25:00,
2013-06-12 11:26:00,72.3,50.4,28.76,North,351,0.0,3.6,46,0.00,,---,1.73,VWS V14.01,2013-06-12 15:26:00,
2013-06-12 11:27:00,72.5,49.4,28.76,North,351,0.0,5.8,44,0.00,,---,1.73,VWS V14.01,2013-06-12 15:27:00,
2013-06-12 11:28:00,72.7,48.9,28.76,North,351,2.7,2.7,43,0.00,,---,1.73,VWS V14.01,2013-06-12 15:28:00,
2013-06-12 11:29:00,86.4,63.2,28.85,West,263,2.7,4.0,46,0.00,,---,0.00,VWS V14.01,2013-06-12 15:29:00,
2013-06-12 11:30:00,72.9,49.1,28.76,NE,50,0.0,2.7,43,0.00,,---,1.73,VWS V14.01,2013-06-12 15:30:00,
2013-06-12 11:31:00,72.5,48.1,28.76,NE,35,4.5,6.3,42,0.00,,---,1.73,VWS V14.01,2013-06-12 15:31:00,
2013-06-12 11:32:00,72.7,48.3,28.76,NW,326,3.1,4.5,42,0.00,,---,1.73,VWS V14.01,2013-06-12 15:32:00,
2013-06-12 11:33:00,72.7,48.3,28.76,NNE,16,0.0,3.6,42,0.00,,---,1.73,VWS V14.01,2013-06-12 15:33:00,
2013-06-12 11:34:00,73.0,49.2,28.76,East,95,0.0,0.0,43,0.00,,---,1.73,VWS V14.01,2013-06-12 15:34:00,
2013-06-12 11:35:00,88.0,62.0,28.88,WSW,251,0.0,4.0,42,0.00,,---,0.00,VWS V14.01,2013-06-12 15:35:00,
2013-06-12 11:36:00,73.2,49.4,28.76,NNE,21,0.0,3.1,43,0.00,,---,1.73,VWS V14.01,2013-06-12 15:36:00,
2013-06-12 11:37:00,72.9,46.5,28.76,NE,41,2.7,7.4,39,0.00,,---,1.73,VWS V14.01,2013-06-12 15:37:00,
2013-06-12 11:38:00,72.9,46.5,28.76,North,11,0.0,4.5,39,0.00,,---,1.73,VWS V14.01,2013-06-12 15:38:00,
2013-06-12 11:39:00,72.7,47.7,28.76,SE,136,2.7,5.4,41,0.00,,---,1.73,VWS V14.01,2013-06-12 15:39:00,
2013-06-12 11:40:00,87.8,59.8,28.88,WNW,293,0.0,0.0,39,0.00,,---,0.00,VWS V14.01,2013-06-12 15:40:00,
2013-06-12 11:41:00,72.7,46.3,28.76,SSW,198,0.0,0.0,39,0.00,,---,1.73,VWS V14.01,2013-06-12 15:41:00,
2013-06-12 11:42:00,72.7,46.3,28.79,NNE,32,3.1,4.9,39,0.00,,---,1.73,VWS V14.01,2013-06-12 15:42:00,
2013-06-12 11:43:00,72.7,46.3,28.79,SSW,202,0.0,3.1,39,0.00,,---,1.73,VWS V14.01,2013-06-12 15:43:00,
2013-06-12 11:44:00,72.9,47.8,28.79,NNE,29,3.6,4.0,41,0.00,,---,1.73,VWS V14.01,2013-06-12 15:44:00,
2013-06-12 11:45:00,87.8,60.5,28.85,WNW,293,0.0,0.0,40,0.00,,---,0.00,VWS V14.01,2013-06-12 15:45:00,
2013-06-12 11:46:00,73.4,48.9,28.79,NNW,344,0.0,3.6,42,0.00,,---,1.73,VWS V14.01,2013-06-12 15:46:00,
2013-06-12 11:47:00,73.6,49.1,28.79,NNE,31,0.0,3.1,42,0.00,,---,1.73,VWS V14.01,2013-06-12 15:47:00,
2013-06-12 11:48:00,73.9,49.4,28.79,NE,37,0.0,0.0,42,0.00,,---,1.73,VWS V14.01,2013-06-12 15:48:00,
2013-06-12 11:49:00,74.1,48.3,28.79,NNE,22,0.0,2.7,40,0.00,,---,1.73,VWS V14.01,2013-06-12 15:49:00,
2013-06-12 11:50:00,87.3,60.7,28.85,NW,319,4.0,4.5,41,0.00,,---,0.00,VWS V14.01,2013-06-12 15:50:00,
2013-06-12 11:51:00,74.7,47.4,28.79,SSW,212,0.0,4.0,38,0.00,,---,1.73,VWS V14.01,2013-06-12 15:51:00,
2013-06-12 11:52:00,74.8,46.8,28.79,SSE,160,0.0,3.6,37,0.00,,---,1.73,VWS V14.01,2013-06-12 15:52:00,
2013-06-12 11:53:00,75.0,46.3,28.79,North,10,0.0,4.5,36,0.00,,---,1.73,VWS V14.01,2013-06-12 15:53:00,
2013-06-12 11:54:00,75.2,46.4,28.79,SE,146,3.6,5.8,36,0.00,,---,1.73,VWS V14.01,2013-06-12 15:54:00,
2013-06-12 11:55:00,87.4,60.9,28.85,NW,319,0.0,3.1,41,0.00,,---,0.00,VWS V14.01,2013-06-12 15:55:00,
2013-06-12 11:56:00,75.7,46.2,28.79,NW,321,5.4,5.4,35,0.00,,---,1.73,VWS V14.01,2013-06-12 15:56:00,
2013-06-12 11:57:00,75.6,45.2,28.79,NE,37,0.0,5.8,34,0.00,,---,1.73,VWS V14.01,2013-06-12 15:57:00,
2013-06-12 11:58:00,75.7,45.4,28.79,North,356,0.0,3.1,34,0.00,,---,1.73,VWS V14.01,2013-06-12 15:58:00,
2013-06-12 11:59:00,75.7,44.6,28.79,NE,40,0.0,4.9,33,0.00,,---,1.73,VWS V14.01,2013-06-12 15:59:00,
2013-06-12 12:00:00,88.0,60.0,28.85,WNW,297,0.0,0.0,39,0.00,,---,0.00,VWS V14.01,2013-06-12 16:00:00,
2013-06-12 12:01:00,75.4,45.1,28.79,NNE,21,3.1,4.0,34,0.00,,---,1.73,VWS V14.01,2013-06-12 16:01:00,
2013-06-12 12:02:00,75.4,45.1,28.79,NNE,33,2.7,3.6,34,0.00,,---,1.73,VWS V14.01,2013-06-12 16:02:00,
2013-06-12 12:03:00,75.0,44.0,28.79,East,89,0.0,6.3,33,0.00,,---,1.73,VWS V14.01,2013-06-12 16:03:00,
2013-06-12 12:04:00,75.0,44.8,28.79,NNE,26,4.5,5.4,34,0.00,,---,1.73,VWS V14.01,2013-06-12 16:04:00,
2013-06-12 12:05:00,88.0,60.0,28.85,West,272,0.0,3.6,39,0.00,,---,0.00,VWS V14.01,2013-06-12 16:05:00,
2013-06-12 12:06:00,75.2,44.9,28.79,North,9,0.0,4.9,34,0.00,,---,1.73,VWS V14.01,2013-06-12 16:06:00,
2013-06-12 12:07:00,75.2,44.9,28.79,NNE,28,0.0,3.1,34,0.00,,---,1.73,VWS V14.01,2013-06-12 16:07:00,
2013-06-12 12:08:00,75.6,46.0,28.79,NNW,345,0.0,5.8,35,0.00,,---,1.73,VWS V14.01,2013-06-12 16:08:00,
2013-06-12 12:09:00,75.7,45.4,28.79,North,351,0.0,2.7,34,0.00,,---,1.73,VWS V14.01,2013-06-12 16:09:00,
2013-06-12 12:10:00,88.9,60.8,28.85,West,272,0.0,0.0,39,0.00,,---,0.00,VWS V14.01,2013-06-12 16:10:00,
2013-06-12 12:11:00,75.9,46.3,28.79,NE,34,3.1,6.7,35,0.00,,---,1.73,VWS V14.01,2013-06-12 16:11:00,
2013-06-12 12:12:00,76.1,44.9,28.79,NNE,20,4.5,4.5,33,0.00,,---,1.73,VWS V14.01,2013-06-12 16:12:00,
2013-06-12 12:13:00,76.1,44.1,28.79,NW,325,0.0,4.9,32,0.00,,---,1.73,VWS V14.01,2013-06-12 16:13:00,
2013-06-12 12:14:00,75.7,44.6,28.79,East,80,0.0,7.8,33,0.00,,---,1.73,VWS V14.01,2013-06-12 16:14:00,
2013-06-12 12:15:00,88.9,56.9,28.85,East,91,4.0,4.5,34,0.00,,---,0.00,VWS V14.01,2013-06-12 16:15:00,
2013-06-12 12:16:00,76.5,46.0,28.79,SE,137,0.0,0.0,34,0.00,,---,1.73,VWS V14.01,2013-06-12 16:16:00,
2013-06-12 12:17:00,76.6,45.4,28.79,WSW,246,0.0,4.5,33,0.00,,---,1.73,VWS V14.01,2013-06-12 16:17:00,
2013-06-12 12:18:00,77.2,46.7,28.79,North,4,0.0,4.5,34,0.00,,---,1.73,VWS V14.01,2013-06-12 16:18:00,
2013-06-12 12:19:00,77.5,46.2,28.79,NE,37,0.0,4.9,33,0.00,,---,1.73,VWS V14.01,2013-06-12 16:19:00,
2013-06-12 12:20:00,88.9,57.7,28.85,NE,42,0.0,2.7,35,0.00,,---,0.00,VWS V14.01,2013-06-12 16:20:00,
2013-06-12 12:21:00,78.1,45.0,28.79,North,351,0.0,5.4,31,0.00,,---,1.73,VWS V14.01,2013-06-12 16:21:00,
2013-06-12 12:22:00,78.3,45.2,28.79,SE,141,0.0,0.0,31,0.00,,---,1.73,VWS V14.01,2013-06-12 16:22:00,
2013-06-12 12:23:00,78.6,46.3,28.79,SSE,168,0.0,3.6,32,0.00,,---,1.73,VWS V14.01,2013-06-12 16:23:00,
2013-06-12 12:24:00,78.8,46.5,28.79,NW,313,4.0,4.9,32,0.00,,---,1.73,VWS V14.01,2013-06-12 16:24:00,
2013-06-12 12:25:00,89.1,57.1,28.85,NE,43,0.0,0.0,34,0.00,,---,0.00,VWS V14.01,2013-06-12 16:25:00,
2013-06-12 12:26:00,78.6,45.5,28.79,WSW,249,3.1,3.1,31,0.00,,---,1.73,VWS V14.01,2013-06-12 16:26:00,
2013-06-12 12:27:00,78.4,44.5,28.79,North,356,4.0,6.3,30,0.00,,---,1.73,VWS V14.01,2013-06-12 16:27:00,
2013-06-12 12:28:00,78.1,42.4,28.79,NE,42,4.5,7.8,28,0.00,,---,1.73,VWS V14.01,2013-06-12 16:28:00,
2013-06-12 12:29:00,78.4,44.5,28.79,NNE,14,2.7,4.9,30,0.00,,---,1.73,VWS V14.01,2013-06-12 16:29:00,
2013-06-12 12:30:00,90.5,58.3,28.85,NE,43,0.0,3.6,34,0.00,,---,0.00,VWS V14.01,2013-06-12 16:30:00,
2013-06-12 12:31:00,78.3,44.3,28.79,WNW,298,4.0,4.5,30,0.00,,---,1.73,VWS V14.01,2013-06-12 16:31:00,
2013-06-12 12:32:00,77.9,42.2,28.79,NNE,33,3.6,6.7,28,0.00,,---,1.73,VWS V14.01,2013-06-12 16:32:00,
2013-06-12 12:33:00,78.4,44.5,28.79,NE,35,0.0,5.8,30,0.00,,---,1.73,VWS V14.01,2013-06-12 16:33:00,
2013-06-12 12:34:00,78.4,44.5,28.79,North,4,3.6,3.6,30,0.00,,---,1.73,VWS V14.01,2013-06-12 16:34:00,
2013-06-12 12:35:00,90.9,57.0,28.85,SW,236,0.0,0.0,32,0.00,,---,0.00,VWS V14.01,2013-06-12 16:35:00,
2013-06-12 12:36:00,78.8,44.8,28.79,WNW,302,3.6,5.8,30,0.00,,---,1.73,VWS V14.01,2013-06-12 16:36:00,
2013-06-12 12:37:00,78.8,44.8,28.79,NW,307,0.0,4.0,30,0.00,,---,1.73,VWS V14.01,2013-06-12 16:37:00,
2013-06-12 12:38:00,79.2,45.1,28.79,NNE,12,0.0,4.9,30,0.00,,---,1.73,VWS V14.01,2013-06-12 16:38:00,
2013-06-12 12:39:00,79.5,45.4,28.79,ENE,73,0.0,4.9,30,0.00,,---,1.73,VWS V14.01,2013-06-12 16:39:00,
2013-06-12 12:40:00,90.1,58.0,28.85,SW,214,3.1,4.5,34,0.00,,---,0.00,VWS V14.01,2013-06-12 16:40:00,
2013-06-12 12:41:00,80.2,45.1,28.79,NNE,13,0.0,3.6,29,0.00,,---,1.73,VWS V14.01,2013-06-12 16:41:00,
2013-06-12 12:42:00,80.4,46.2,28.79,NNE,15,0.0,0.0,30,0.00,,---,1.73,VWS V14.01,2013-06-12 16:42:00,
2013-06-12 12:43:00,80.6,44.5,28.79,NW,324,0.0,0.0,28,0.00,,---,1.73,VWS V14.01,2013-06-12 16:43:00,
2013-06-12 12:44:00,80.1,44.0,28.79,NNE,20,0.0,8.7,28,0.00,,---,1.73,VWS V14.01,2013-06-12 16:44:00,
2013-06-12 12:45:00,89.4,57.4,28.85,WSW,250,4.9,5.8,34,0.00,,---,0.00,VWS V14.01,2013-06-12 16:45:00,
2013-06-12 12:46:00,79.9,45.7,28.79,North,351,0.0,4.9,30,0.00,,---,1.73,VWS V14.01,2013-06-12 16:46:00,
2013-06-12 12:47:00,79.7,45.6,28.79,NNW,328,2.7,3.1,30,0.00,,---,1.73,VWS V14.01,2013-06-12 16:47:00,
2013-06-12 12:48:00,79.3,45.2,28.79,North,351,4.0,4.0,30,0.00,,---,1.73,VWS V14.01,2013-06-12 16:48:00,
2013-06-12 12:49:00,79.3,45.2,28.79,NW,308,3.6,4.0,30,0.00,,---,1.73,VWS V14.01,2013-06-12 16:49:00,
2013-06-12 12:50:00,88.7,59.9,28.85,SW,228,0.0,4.0,38,0.00,,---,0.00,VWS V14.01,2013-06-12 16:50:00,
2013-06-12 12:51:00,79.0,44.9,28.79,SE,131,0.0,3.1,30,0.00,,---,1.73,VWS V14.01,2013-06-12 16:51:00,
2013-06-12 12:52:00,79.2,45.1,28.79,East,87,0.0,5.8,30,0.00,,---,1.73,VWS V14.01,2013-06-12 16:52:00,
2013-06-12 12:53:00,79.3,45.2,28.79,SE,129,0.0,4.0,30,0.00,,---,1.73,VWS V14.01,2013-06-12 16:53:00,
2013-06-12 12:54:00,79.2,45.1,28.79,NNE,33,3.1,3.6,30,0.00,,---,1.73,VWS V14.01,2013-06-12 16:54:00,
2013-06-12 12:55:00,89.4,56.6,28.85,SSW,204,0.0,6.9,33,0.00,,---,0.00,VWS V14.01,2013-06-12 16:55:00,
2013-06-12 12:56:00,78.3,41.6,28.79,ENE,66,3.1,8.3,27,0.00,,---,1.73,VWS V14.01,2013-06-12 16:56:00,
2013-06-12 12:57:00,78.4,44.5,28.79,NNE,26,0.0,3.1,30,0.00,,---,1.73,VWS V14.01,2013-06-12 16:57:00,
2013-06-12 12:58:00,78.6,44.6,28.79,NNE,19,0.0,0.0,30,0.00,,---,1.73,VWS V14.01,2013-06-12 16:58:00,
2013-06-12 12:59:00,79.2,45.1,28.79,NE,51,0.0,5.4,30,0.00,,---,1.73,VWS V14.01,2013-06-12 16:59:00,
2013-06-12 13:00:00,90.7,58.5,28.82,SW,219,3.1,4.9,34,0.00,,---,0.00,VWS V14.01,2013-06-12 17:00:00,
2013-06-12 13:01:00,79.2,40.3,28.79,NNE,18,3.6,4.9,25,0.00,,---,1.73,VWS V14.01,2013-06-12 17:01:00,
2013-06-12 13:02:00,79.5,42.6,28.79,North,351,4.5,4.5,27,0.00,,---,1.73,VWS V14.01,2013-06-12 17:02:00,
2013-06-12 13:03:00,79.2,41.4,28.79,NNW,334,0.0,6.7,26,0.00,,---,1.73,VWS V14.01,2013-06-12 17:03:00,
2013-06-12 13:04:00,79.3,45.2,28.79,North,0,0.0,5.4,30,0.00,,---,1.73,VWS V14.01,2013-06-12 17:04:00,
2013-06-12 13:05:00,91.4,57.4,28.82,ESE,118,4.0,5.4,32,0.00,,---,0.00,VWS V14.01,2013-06-12 17:05:00,
2013-06-12 13:06:00,78.4,39.7,28.79,NNW,333,7.4,11.2,25,0.00,,---,1.73,VWS V14.01,2013-06-12 17:06:00,
2013-06-12 13:07:00,78.4,41.7,28.79,West,264,7.4,8.3,27,0.00,,---,1.73,VWS V14.01,2013-06-12 17:07:00,
2013-06-12 13:08:00,78.4,43.6,28.79,NNE,32,3.1,7.4,29,0.00,,---,1.73,VWS V14.01,2013-06-12 17:08:00,
2013-06-12 13:09:00,78.8,44.8,28.79,ESE,103,0.0,3.1,30,0.00,,---,1.73,VWS V14.01,2013-06-12 17:09:00,
2013-06-12 13:10:00,91.2,56.4,28.82,SE,126,4.9,5.8,31,0.00,,---,0.00,VWS V14.01,2013-06-12 17:10:00,
2013-06-12 13:11:00,79.9,46.6,28.79,NE,34,0.0,3.6,31,0.00,,---,1.73,VWS V14.01,2013-06-12 17:11:00,
2013-06-12 13:12:00,80.2,46.0,28.79,ESE,119,0.0,4.5,30,0.00,,---,1.73,VWS V14.01,2013-06-12 17:12:00,
2013-06-12 13:13:00,80.6,45.4,28.79,NE,44,0.0,4.9,29,0.00,,---,1.73,VWS V14.01,2013-06-12 17:13:00,
2013-06-12 13:14:00,81.0,46.6,28.79,North,4,2.7,2.7,30,0.00,,---,1.73,VWS V14.01,2013-06-12 17:14:00,
2013-06-12 13:15:00,89.6,55.9,28.82,SE,141,4.0,7.4,32,0.00,,---,0.00,VWS V14.01,2013-06-12 17:15:00,
2013-06-12 13:16:00,80.2,40.2,28.79,NNE,14,4.0,10.5,24,0.00,,---,1.73,VWS V14.01,2013-06-12 17:16:00,
2013-06-12 13:17:00,79.9,39.9,28.79,ESE,117,3.1,6.3,24,0.00,,---,1.73,VWS V14.01,2013-06-12 17:17:00,
2013-06-12 13:18:00,79.9,43.9,28.79,NNW,347,4.5,4.5,28,0.00,,---,1.73,VWS V14.01,2013-06-12 17:18:00,
2013-06-12 13:19:00,80.2,45.1,28.79,NNE,19,0.0,4.5,29,0.00,,---,1.73,VWS V14.01,2013-06-12 17:19:00,
2013-06-12 13:20:00,90.5,55.8,28.82,SE,143,3.1,3.6,31,0.00,,---,0.00,VWS V14.01,2013-06-12 17:20:00,
2013-06-12 13:21:00,81.0,45.8,28.79,North,356,0.0,2.7,29,0.00,,---,1.73,VWS V14.01,2013-06-12 17:21:00,
2013-06-12 13:22:00,81.1,43.0,28.79,ENE,77,0.0,3.1,26,0.00,,---,1.73,VWS V14.01,2013-06-12 17:22:00,
2013-06-12 13:23:00,81.9,43.7,28.79,SE,132,0.0,4.0,26,0.00,,---,1.73,VWS V14.01,2013-06-12 17:23:00,
2013-06-12 13:24:00,82.0,45.8,28.79,NNE,33,0.0,0.0,28,0.00,,---,1.73,VWS V14.01,2013-06-12 17:24:00,
2013-06-12 13:25:00,90.3,54.7,28.82,SSW,209,5.8,7.4,30,0.00,,---,0.00,VWS V14.01,2013-06-12 17:25:00,
2013-06-12 13:26:00,82.2,41.9,28.79,North,2,3.6,5.4,24,0.00,,---,1.73,VWS V14.01,2013-06-12 17:26:00,
2013-06-12 13:27:00,81.7,42.5,28.79,North,356,3.1,6.9,25,0.00,,---,1.73,VWS V14.01,2013-06-12 17:27:00,
2013-06-12 13:28:00,81.9,44.6,28.79,NNE,13,3.6,3.6,27,0.00,,---,1.73,VWS V14.01,2013-06-12 17:28:00,
2013-06-12 13:29:00,81.7,46.4,28.79,SE,141,6.3,6.3,29,0.00,,---,1.73,VWS V14.01,2013-06-12 17:29:00,
2013-06-12 13:30:00,90.7,55.9,28.82,SW,235,3.6,4.0,31,0.00,,---,0.00,VWS V14.01,2013-06-12 17:30:00,
2013-06-12 13:31:00,82.0,43.8,28.79,WNW,293,3.6,3.6,26,0.00,,---,1.73,VWS V14.01,2013-06-12 17:31:00,
2013-06-12 13:32:00,81.9,40.5,28.79,NW,324,4.5,4.5,23,0.00,,---,1.73,VWS V14.01,2013-06-12 17:32:00,
2013-06-12 13:33:00,81.5,41.3,28.79,North,5,0.0,8.3,24,0.00,,---,1.73,VWS V14.01,2013-06-12 17:33:00,
2013-06-12 13:34:00,81.7,44.5,28.79,North,11,0.0,3.1,27,0.00,,---,1.73,VWS V14.01,2013-06-12 17:34:00,
2013-06-12 13:35:00,91.2,54.5,28.82,WNW,288,7.8,7.8,29,0.00,,---,0.00,VWS V14.01,2013-06-12 17:35:00,
2013-06-12 13:36:00,82.6,45.2,28.79,NW,326,0.0,4.0,27,0.00,,---,1.73,VWS V14.01,2013-06-12 17:36:00,
2013-06-12 13:37:00,82.4,42.0,28.79,NE,39,2.7,4.5,24,0.00,,---,1.73,VWS V14.01,2013-06-12 17:37:00,
2013-06-12 13:38:00,81.3,38.9,28.79,NNW,335,4.9,12.1,22,0.00,,---,1.73,VWS V14.01,2013-06-12 17:38:00,
2013-06-12 13:39:00,79.7,37.5,28.79,NW,320,11.0,13.0,22,0.00,,---,1.73,VWS V14.01,2013-06-12 17:39:00,
2013-06-12 13:40:00,91.6,56.7,28.82,SSE,151,0.0,5.4,31,0.00,,---,0.00,VWS V14.01,2013-06-12 17:40:00,
2013-06-12 13:41:00,79.0,39.2,28.79,East,85,4.9,11.2,24,0.00,,---,1.73,VWS V14.01,2013-06-12 17:41:00,
2013-06-12 13:42:00,79.3,40.5,28.79,NNE,31,4.9,6.3,25,0.00,,---,1.73,VWS V14.01,2013-06-12 17:42:00,
2013-06-12 13:43:00,79.9,42.0,28.79,North,356,5.4,6.7,26,0.00,,---,1.73,VWS V14.01,2013-06-12 17:43:00,
2013-06-12 13:44:00,79.5,38.5,28.79,NNW,332,8.3,11.0,23,0.00,,---,1.73,VWS V14.01,2013-06-12 17:44:00,
2013-06-12 13:45:00,92.1,54.4,28.79,SE,145,5.4,5.4,28,0.00,,---,0.00,VWS V14.01,2013-06-12 17:45:00,
2013-06-12 13:46:00,79.9,39.9,28.79,North,0,0.0,3.6,24,0.00,,---,1.73,VWS V14.01,2013-06-12 17:46:00,
2013-06-12 13:47:00,80.6,42.6,28.79,SE,130,3.1,3.6,26,0.00,,---,1.73,VWS V14.01,2013-06-12 17:47:00,
2013-06-12 13:48:00,80.6,40.5,28.79,NW,315,4.9,5.4,24,0.00,,---,1.73,VWS V14.01,2013-06-12 17:48:00,
2013-06-12 13:49:00,80.4,40.4,28.79,NNE,23,4.9,4.9,24,0.00,,---,1.73,VWS V14.01,2013-06-12 17:49:00,
2013-06-12 13:50:00,92.7,54.8,28.79,South,170,3.6,6.3,28,0.00,,---,0.00,VWS V14.01,2013-06-12 17:50:00,
2013-06-12 13:51:00,79.0,38.1,28.79,NNW,335,6.9,7.8,23,0.00,,---,1.73,VWS V14.01,2013-06-12 17:51:00,
2013-06-12 13:52:00,78.8,40.0,28.79,NE,37,0.0,8.7,25,0.00,,---,1.73,VWS V14.01,2013-06-12 17:52:00,
2013-06-12 13:53:00,79.0,44.9,28.79,NNW,330,4.9,4.9,30,0.00,,---,1.73,VWS V14.01,2013-06-12 17:53:00,
2013-06-12 13:54:00,79.5,45.4,28.79,ESE,109,0.0,4.9,30,0.00,,---,1.73,VWS V14.01,2013-06-12 17:54:00,
2013-06-12 13:55:00,93.2,55.3,28.79,ESE,111,0.0,3.1,28,0.00,,---,0.00,VWS V14.01,2013-06-12 17:55:00,
2013-06-12 13:56:00,80.2,42.3,28.79,ENE,68,0.0,4.5,26,0.00,,---,1.73,VWS V14.01,2013-06-12 17:56:00,
2013-06-12 13:57:00,80.1,40.1,28.79,WNW,288,4.0,5.8,24,0.00,,---,1.73,VWS V14.01,2013-06-12 17:57:00,
2013-06-12 13:58:00,80.2,41.3,28.79,NNE,24,3.1,4.0,25,0.00,,---,1.73,VWS V14.01,2013-06-12 17:58:00,
2013-06-12 13:59:00,80.1,41.1,28.79,NNE,19,3.6,8.3,25,0.00,,---,1.73,VWS V14.01,2013-06-12 17:59:00,
2013-06-12 14:00:00,93.0,54.1,28.79,West,280,4.0,6.9,27,0.00,,---,0.00,VWS V14.01,2013-06-12 18:00:00,
2013-06-12 14:01:00,80.6,42.6,28.79,SSE,161,2.7,4.9,26,0.00,,---,1.73,VWS V14.01,2013-06-12 18:01:00,
2013-06-12 14:02:00,81.3,44.2,28.79,NNE,19,7.4,8.7,27,0.00,,---,1.73,VWS V14.01,2013-06-12 18:02:00,
2013-06-12 14:03:00,81.7,42.5,28.79,NNE,27,5.4,7.4,25,0.00,,---,1.73,VWS V14.01,2013-06-12 18:03:00,
2013-06-12 14:04:00,82.4,42.0,28.79,SE,146,0.0,6.9,24,0.00,,---,1.73,VWS V14.01,2013-06-12 18:04:00,
2013-06-12 14:05:00,91.8,56.9,28.79,ESE,118,0.0,2.7,31,0.00,,---,0.00,VWS V14.01,2013-06-12 18:05:00,
2013-06-12 14:06:00,83.3,41.7,28.79,NNW,343,4.0,5.4,23,0.00,,---,1.73,VWS V14.01,2013-06-12 18:06:00,
2013-06-12 14:07:00,82.4,38.6,28.79,NW,311,6.9,10.5,21,0.00,,---,1.73,VWS V14.01,2013-06-12 18:07:00,
2013-06-12 14:08:00,81.7,38.0,28.79,WSW,239,6.7,9.6,21,0.00,,---,1.73,VWS V14.01,2013-06-12 18:08:00,
2013-06-12 14:09:00,81.1,38.7,28.79,SE,127,2.7,11.2,22,0.00,,---,1.73,VWS V14.01,2013-06-12 18:09:00,
2013-06-12 14:10:00,92.3,55.5,28.79,SSW,196,0.0,3.6,29,0.00,,---,0.00,VWS V14.01,2013-06-12 18:10:00,
2013-06-12 14:11:00,80.8,38.4,28.79,SW,218,2.7,4.9,22,0.00,,---,1.73,VWS V14.01,2013-06-12 18:11:00,
2013-06-12 14:12:00,81.0,40.8,28.79,North,1,2.7,5.4,24,0.00,,---,1.73,VWS V14.01,2013-06-12 18:12:00,
2013-06-12 14:13:00,81.7,42.5,28.79,North,5,3.1,3.6,25,0.00,,---,1.73,VWS V14.01,2013-06-12 18:13:00,
2013-06-12 14:14:00,82.2,41.9,28.79,NNE,22,3.1,4.0,24,0.00,,---,1.73,VWS V14.01,2013-06-12 18:14:00,
2013-06-12 14:15:00,92.7,53.8,28.79,SSE,168,0.0,3.1,27,0.00,,---,0.00,VWS V14.01,2013-06-12 18:15:00,
2013-06-12 14:16:00,82.8,40.1,28.79,WNW,291,0.0,7.8,22,0.00,,---,1.73,VWS V14.01,2013-06-12 18:16:00,
2013-06-12 14:17:00,82.8,40.1,28.79,NE,36,0.0,6.9,22,0.00,,---,1.73,VWS V14.01,2013-06-12 18:17:00,
2013-06-12 14:18:00,83.1,42.6,28.79,NE,45,0.0,7.8,24,0.00,,---,1.73,VWS V14.01,2013-06-12 18:18:00,
2013-06-12 14:19:00,83.7,40.8,28.79,NNE,21,3.1,4.9,22,0.00,,---,1.73,VWS V14.01,2013-06-12 18:19:00,
2013-06-12 14:20:00,92.7,53.8,28.79,WNW,291,7.4,7.4,27,0.00,,---,0.00,VWS V14.01,2013-06-12 18:20:00,
2013-06-12 14:21:00,83.5,38.2,28.79,NW,314,3.6,6.3,20,0.00,,---,1.73,VWS V14.01,2013-06-12 18:21:00,
2013-06-12 14:22:00,83.3,38.1,28.79,North,8,3.6,8.7,20,0.00,,---,1.73,VWS V14.01,2013-06-12 18:22:00,
2013-06-12 14:23:00,83.8,38.5,28.79,NNE,25,4.5,5.8,20,0.00,,---,1.73,VWS V14.01,2013-06-12 18:23:00,
2013-06-12 14:24:00,83.7,38.4,28.79,ENE,65,0.0,5.8,20,0.00,,---,1.73,VWS V14.01,2013-06-12 18:24:00,
2013-06-12 14:25:00,92.3,53.5,28.79,WSW,252,0.0,0.0,27,0.00,,---,0.00,VWS V14.01,2013-06-12 18:25:00,
2013-06-12 14:26:00,83.1,39.2,28.79,WNW,290,3.1,6.7,21,0.00,,---,1.73,VWS V14.01,2013-06-12 18:26:00,
2013-06-12 14:27:00,82.4,37.3,28.79,WNW,298,4.0,9.2,20,0.00,,---,1.73,VWS V14.01,2013-06-12 18:27:00,
2013-06-12 14:28:00,82.2,38.4,28.79,WNW,299,8.3,8.3,21,0.00,,---,1.73,VWS V14.01,2013-06-12 18:28:00,
2013-06-12 14:29:00,81.7,38.0,28.79,NNW,333,4.9,11.6,21,0.00,,---,1.73,VWS V14.01,2013-06-12 18:29:00,
2013-06-12 14:30:00,92.3,53.5,28.76,SSW,205,3.1,4.0,27,0.00,,---,0.00,VWS V14.01,2013-06-12 18:30:00,
2013-06-12 14:31:00,81.5,40.2,28.79,North,8,4.9,6.7,23,0.00,,---,1.73,VWS V14.01,2013-06-12 18:31:00,
2013-06-12 14:32:00,81.5,39.0,28.79,NNW,346,2.7,6.9,22,0.00,,---,1.73,VWS V14.01,2013-06-12 18:32:00,
2013-06-12 14:33:00,81.3,37.7,28.79,NW,316,6.7,9.6,21,0.00,,---,1.73,VWS V14.01,2013-06-12 18:33:00,
2013-06-12 14:34:00,81.3,37.7,28.79,NW,305,7.8,7.8,21,0.00,,---,1.73,VWS V14.01,2013-06-12 18:34:00,
2013-06-12 14:35:00,91.9,54.2,28.76,WNW,294,0.0,4.5,28,0.00,,---,0.00,VWS V14.01,2013-06-12 18:35:00,
2013-06-12 14:36:00,81.0,37.4,28.79,North,6,4.5,11.0,21,0.00,,---,1.73,VWS V14.01,2013-06-12 18:36:00,
2013-06-12 14:37:00,81.0,36.2,28.79,NNW,340,9.2,11.2,20,0.00,,---,1.73,VWS V14.01,2013-06-12 18:37:00,
2013-06-12 14:38:00,80.6,37.1,28.79,WSW,254,5.8,9.2,21,0.00,,---,1.73,VWS V14.01,2013-06-12 18:38:00,
2013-06-12 14:39:00,80.6,37.1,28.79,NNW,341,7.8,10.1,21,0.00,,---,1.73,VWS V14.01,2013-06-12 18:39:00,
2013-06-12 14:40:00,91.6,54.9,28.76,SW,236,3.1,3.6,29,0.00,,---,0.00,VWS V14.01,2013-06-12 18:40:00,
2013-06-12 14:41:00,80.8,39.6,28.79,NNE,13,4.0,6.3,23,0.00,,---,1.73,VWS V14.01,2013-06-12 18:41:00,
2013-06-12 14:42:00,81.0,38.6,28.82,NW,319,0.0,11.2,22,0.00,,---,1.73,VWS V14.01,2013-06-12 18:42:00,
2013-06-12 14:43:00,81.3,38.9,28.82,NE,38,4.0,5.8,22,0.00,,---,1.73,VWS V14.01,2013-06-12 18:43:00,
2013-06-12 14:44:00,81.7,38.0,28.82,NE,38,5.4,8.3,21,0.00,,---,1.73,VWS V14.01,2013-06-12 18:44:00,
2013-06-12 14:45:00,81.7,36.8,28.82,NNE,26,5.8,8.3,20,0.00,,---,1.73,VWS V14.01,2013-06-12 18:45:00,
2013-06-12 14:46:00,92.3,54.5,28.76,WNW,287,5.4,7.8,28,0.00,,---,0.00,VWS V14.01,2013-06-12 18:46:00,
2013-06-12 14:47:00,81.5,36.6,28.82,NNE,16,2.7,6.3,20,0.00,,---,1.73,VWS V14.01,2013-06-12 18:47:00,
2013-06-12 14:48:00,81.5,37.8,28.82,North,3,6.7,7.4,21,0.00,,---,1.73,VWS V14.01,2013-06-12 18:48:00,
2013-06-12 14:49:00,81.3,37.7,28.82,NNW,346,5.8,6.7,21,0.00,,---,1.73,VWS V14.01,2013-06-12 18:49:00,
2013-06-12 14:50:00,81.1,37.5,28.82,North,351,4.9,6.9,21,0.00,,---,1.73,VWS V14.01,2013-06-12 18:50:00,
2013-06-12 14:51:00,91.8,54.0,28.76,West,275,2.7,4.5,28,0.00,,---,0.00,VWS V14.01,2013-06-12 18:51:00,
2013-06-12 14:52:00,80.4,37.0,28.82,NNE,20,7.4,7.4,21,0.00,,---,1.73,VWS V14.01,2013-06-12 18:52:00,
2013-06-12 14:53:00,80.6,37.1,28.82,NW,319,5.8,7.4,21,0.00,,---,1.73,VWS V14.01,2013-06-12 18:53:00,
2013-06-12 14:54:00,81.0,38.6,28.82,WNW,303,7.8,7.8,22,0.00,,---,1.73,VWS V14.01,2013-06-12 18:54:00,
2013-06-12 14:55:00,81.0,38.6,28.82,NNW,333,7.8,9.2,22,0.00,,---,1.73,VWS V14.01,2013-06-12 18:55:00,
2013-06-12 14:56:00,91.0,54.4,28.76,WNW,288,6.3,6.9,29,0.00,,---,0.00,VWS V14.01,2013-06-12 18:56:00,
2013-06-12 14:57:00,80.8,37.2,28.82,WNW,290,5.8,7.4,21,0.00,,---,1.73,VWS V14.01,2013-06-12 18:57:00,
2013-06-12 14:58:00,80.8,37.2,28.82,North,356,6.7,10.5,21,0.00,,---,1.73,VWS V14.01,2013-06-12 18:58:00,
2013-06-12 14:59:00,80.6,37.1,28.82,NNW,335,6.7,8.7,21,0.00,,---,1.73,VWS V14.01,2013-06-12 18:59:00,
2013-06-12 15:00:00,80.6,39.4,28.82,North,356,6.9,7.4,23,0.00,,---,1.73,VWS V14.01,2013-06-12 19:00:00,
2013-06-12 15:01:00,91.0,53.4,28.76,WSW,252,6.3,8.3,28,0.00,,---,0.00,VWS V14.01,2013-06-12 19:01:00,
2013-06-12 15:02:00,81.0,37.4,28.82,NW,326,5.8,5.8,21,0.00,,---,1.73,VWS V14.01,2013-06-12 19:02:00,
2013-06-12 15:03:00,81.0,37.4,28.82,WNW,299,4.9,6.3,21,0.00,,---,1.73,VWS V14.01,2013-06-12 19:03:00,
2013-06-12 15:04:00,80.8,37.2,28.82,NW,324,10.1,10.1,21,0.00,,---,1.73,VWS V14.01,2013-06-12 19:04:00,
2013-06-12 15:05:00,80.8,38.4,28.82,WSW,250,4.0,10.1,22,0.00,,---,1.73,VWS V14.01,2013-06-12 19:05:00,
2013-06-12 15:06:00,91.4,54.7,28.76,WSW,243,6.3,7.4,29,0.00,,---,0.00,VWS V14.01,2013-06-12 19:06:00,
2013-06-12 15:07:00,81.5,39.0,28.82,NNE,29,3.1,8.3,22,0.00,,---,1.73,VWS V14.01,2013-06-12 19:07:00,
2013-06-12 15:08:00,81.7,38.0,28.82,NNW,327,5.8,6.3,21,0.00,,---,1.73,VWS V14.01,2013-06-12 19:08:00,
2013-06-12 15:09:00,81.9,36.9,28.82,West,278,4.0,8.3,20,0.00,,---,1.73,VWS V14.01,2013-06-12 19:09:00,
2013-06-12 15:10:00,81.9,36.9,28.82,NNE,24,4.9,11.0,20,0.00,,---,1.73,VWS V14.01,2013-06-12 19:10:00,
2013-06-12 15:11:00,92.8,55.0,28.76,WSW,240,6.3,6.9,28,0.00,,---,0.00,VWS V14.01,2013-06-12 19:11:00,
2013-06-12 15:12:00,82.0,37.0,28.82,NNW,330,5.8,6.9,20,0.00,,---,1.73,VWS V14.01,2013-06-12 19:12:00,
2013-06-12 15:13:00,82.2,37.2,28.82,NNW,331,3.1,7.8,20,0.00,,---,1.73,VWS V14.01,2013-06-12 19:13:00,
2013-06-12 15:14:00,82.4,37.3,28.82,NNW,336,5.8,6.3,20,0.00,,---,1.73,VWS V14.01,2013-06-12 19:14:00,
2013-06-12 15:15:00,82.4,37.3,28.82,NNE,23,3.1,7.8,20,0.00,,---,1.73,VWS V14.01,2013-06-12 19:15:00,
2013-06-12 15:16:00,92.3,53.5,28.76,WSW,247,4.9,8.3,27,0.00,,---,0.00,VWS V14.01,2013-06-12 19:16:00,
2013-06-12 15:17:00,82.0,37.0,28.82,WNW,298,4.5,10.5,20,0.00,,---,1.73,VWS V14.01,2013-06-12 19:17:00,
2013-06-12 15:18:00,81.7,36.8,28.82,NW,318,4.0,7.8,20,0.00,,---,1.73,VWS V14.01,2013-06-12 19:18:00,
2013-06-12 15:19:00,81.0,36.2,28.82,NW,304,3.6,6.9,20,0.00,,---,1.73,VWS V14.01,2013-06-12 19:19:00,
2013-06-12 15:20:00,80.6,37.1,28.82,North,0,5.8,6.7,21,0.00,,---,1.73,VWS V14.01,2013-06-12 19:20:00,
2013-06-12 15:21:00,92.8,54.0,28.76,ESE,117,0.0,6.7,27,0.00,,---,0.00,VWS V14.01,2013-06-12 19:21:00,
2013-06-12 15:22:00,80.6,37.1,28.82,WNW,300,4.0,8.7,21,0.00,,---,1.73,VWS V14.01,2013-06-12 19:22:00,
2013-06-12 15:23:00,80.1,36.7,28.82,NNE,16,8.3,9.6,21,0.00,,---,1.73,VWS V14.01,2013-06-12 19:23:00,
2013-06-12 15:24:00,79.9,36.5,28.82,NNW,346,7.4,9.2,21,0.00,,---,1.73,VWS V14.01,2013-06-12 19:24:00,
2013-06-12 15:25:00,79.7,36.3,28.82,NW,320,7.8,11.0,21,0.00,,---,1.73,VWS V14.01,2013-06-12 19:25:00,
2013-06-12 15:26:00,92.5,53.7,28.76,SSW,207,3.6,8.7,27,0.00,,---,0.00,VWS V14.01,2013-06-12 19:26:00,
2013-06-12 15:27:00,79.9,36.5,28.82,East,87,3.1,7.4,21,0.00,,---,1.73,VWS V14.01,2013-06-12 19:27:00,
2013-06-12 15:28:00,80.2,38.0,28.82,NNW,330,4.5,4.5,22,0.00,,---,1.73,VWS V14.01,2013-06-12 19:28:00,
2013-06-12 15:29:00,80.6,38.3,28.82,NNE,33,6.7,6.9,22,0.00,,---,1.73,VWS V14.01,2013-06-12 19:29:00,
2013-06-12 15:30:00,80.8,36.0,28.82,North,351,7.4,8.7,20,0.00,,---,1.73,VWS V14.01,2013-06-12 19:30:00,
2013-06-12 15:31:00,91.9,55.2,28.76,WSW,255,3.1,5.8,29,0.00,,---,0.00,VWS V14.01,2013-06-12 19:31:00,
2013-06-12 15:32:00,80.6,37.1,28.82,North,351,7.4,11.6,21,0.00,,---,1.73,VWS V14.01,2013-06-12 19:32:00,
2013-06-12 15:33:00,80.2,35.6,28.82,North,351,6.3,9.2,20,0.00,,---,1.73,VWS V14.01,2013-06-12 19:33:00,
2013-06-12 15:34:00,80.1,35.4,28.82,North,10,4.0,7.8,20,0.00,,---,1.73,VWS V14.01,2013-06-12 19:34:00,
2013-06-12 15:35:00,79.9,36.5,28.82,NNW,333,4.0,7.8,21,0.00,,---,1.73,VWS V14.01,2013-06-12 19:35:00,
2013-06-12 15:36:00,80.1,37.8,28.82,North,351,4.5,4.5,22,0.00,,---,1.73,VWS V14.01,2013-06-12 19:36:00,
2013-06-12 15:37:00,93.4,53.4,28.76,WNW,284,4.0,8.3,26,0.00,,---,0.00,VWS V14.01,2013-06-12 19:37:00,
2013-06-12 15:38:00,80.6,38.3,28.82,NE,37,0.0,4.0,22,0.00,,---,1.73,VWS V14.01,2013-06-12 19:38:00,
2013-06-12 15:39:00,80.8,38.4,28.82,WNW,287,4.9,7.4,22,0.00,,---,1.73,VWS V14.01,2013-06-12 19:39:00,
2013-06-12 15:40:00,81.1,38.7,28.82,WNW,303,7.8,8.3,22,0.00,,---,1.73,VWS V14.01,2013-06-12 19:40:00,
2013-06-12 15:41:00,81.1,37.5,28.82,NNW,338,5.8,8.3,21,0.00,,---,1.73,VWS V14.01,2013-06-12 19:41:00,
2013-06-12 15:42:00,94.8,54.6,28.76,SSW,199,2.7,6.3,26,0.00,,---,0.00,VWS V14.01,2013-06-12 19:42:00,
2013-06-12 15:43:00,81.5,39.0,28.82,NNW,339,4.5,6.3,22,0.00,,---,1.73,VWS V14.01,2013-06-12 19:43:00,
2013-06-12 15:44:00,81.7,38.0,28.82,NNW,338,10.1,12.1,21,0.00,,---,1.73,VWS V14.01,2013-06-12 19:44:00,
2013-06-12 15:45:00,81.3,37.7,28.82,NNW,338,9.2,10.1,21,0.00,,---,1.73,VWS V14.01,2013-06-12 19:45:00,
2013-06-12 15:46:00,80.4,35.7,28.82,North,6,9.6,11.0,20,0.00,,---,1.73,VWS V14.01,2013-06-12 19:46:00,
2013-06-12 15:47:00,94.1,51.8,28.76,South,184,2.7,7.8,24,0.00,,---,0.00,VWS V14.01,2013-06-12 19:47:00,
2013-06-12 15:48:00,80.1,36.7,28.82,NNW,339,4.9,6.9,21,0.00,,---,1.73,VWS V14.01,2013-06-12 19:48:00,
2013-06-12 15:49:00,80.1,37.8,28.82,WNW,303,6.9,9.2,22,0.00,,---,1.73,VWS V14.01,2013-06-12 19:49:00,
2013-06-12 15:50:00,80.1,37.8,28.82,NNW,344,6.3,8.3,22,0.00,,---,1.73,VWS V14.01,2013-06-12 19:50:00,
2013-06-12 15:51:00,80.1,37.8,28.82,WNW,302,6.9,8.3,22,0.00,,---,1.73,VWS V14.01,2013-06-12 19:51:00,
2013-06-12 15:52:00,93.4,53.4,28.76,South,189,6.3,7.4,26,0.00,,---,0.00,VWS V14.01,2013-06-12 19:52:00,
2013-06-12 15:53:00,79.9,37.7,28.82,NNW,339,5.4,9.6,22,0.00,,---,1.73,VWS V14.01,2013-06-12 19:53:00,
2013-06-12 15:54:00,79.9,37.7,28.82,North,8,6.7,7.8,22,0.00,,---,1.73,VWS V14.01,2013-06-12 19:54:00,
2013-06-12 15:55:00,79.7,37.5,28.82,North,8,2.7,8.3,22,0.00,,---,1.73,VWS V14.01,2013-06-12 19:55:00,
2013-06-12 15:56:00,79.9,37.7,28.82,NNE,21,6.3,10.5,22,0.00,,---,1.73,VWS V14.01,2013-06-12 19:56:00,
2013-06-12 15:57:00,92.5,53.7,28.76,WSW,247,2.7,3.1,27,0.00,,---,0.00,VWS V14.01,2013-06-12 19:57:00,
2013-06-12 15:58:00,80.4,38.1,28.82,North,356,7.8,8.3,22,0.00,,---,1.73,VWS V14.01,2013-06-12 19:58:00,
2013-06-12 15:59:00,80.1,37.8,28.82,WNW,297,4.0,9.6,22,0.00,,---,1.73,VWS V14.01,2013-06-12 19:59:00,
2013-06-12 16:00:00,79.9,37.7,28.82,North,351,7.4,10.5,22,0.00,,---,1.73,VWS V14.01,2013-06-12 20:00:00,
2013-06-12 16:01:00,79.7,37.5,28.82,NW,305,2.7,7.4,22,0.00,,---,1.73,VWS V14.01,2013-06-12 20:01:00,
2013-06-12 16:02:00,92.5,53.7,28.76,SW,216,4.5,4.9,27,0.00,,---,0.00,VWS V14.01,2013-06-12 20:02:00,
2013-06-12 16:03:00,80.2,39.1,28.82,West,272,4.5,6.3,23,0.00,,---,1.73,VWS V14.01,2013-06-12 20:03:00,
2013-06-12 16:04:00,80.2,39.1,28.82,NNE,33,4.5,6.9,23,0.00,,---,1.73,VWS V14.01,2013-06-12 20:04:00,
2013-06-12 16:05:00,80.4,39.3,28.82,NNW,347,0.0,4.5,23,0.00,,---,1.73,VWS V14.01,2013-06-12 20:05:00,
2013-06-12 16:06:00,80.4,40.4,28.82,NNE,12,5.8,6.9,24,0.00,,---,1.73,VWS V14.01,2013-06-12 20:06:00,
2013-06-12 16:07:00,92.8,54.0,28.76,South,173,4.0,5.8,27,0.00,,---,0.00,VWS V14.01,2013-06-12 20:07:00,
2013-06-12 16:08:00,80.2,36.8,28.82,NNW,328,3.6,10.1,21,0.00,,---,1.73,VWS V14.01,2013-06-12 20:08:00,
2013-06-12 16:09:00,80.4,38.1,28.82,NNW,328,7.8,8.7,22,0.00,,---,1.73,VWS V14.01,2013-06-12 20:09:00,
2013-06-12 16:10:00,80.4,37.0,28.82,NW,311,4.9,7.8,21,0.00,,---,1.73,VWS V14.01,2013-06-12 20:10:00,
2013-06-12 16:11:00,80.6,37.1,28.82,NW,311,4.5,11.0,21,0.00,,---,1.73,VWS V14.01,2013-06-12 20:11:00,
2013-06-12 16:12:00,94.1,55.0,28.76,SSE,163,5.4,5.8,27,0.00,,---,0.00,VWS V14.01,2013-06-12 20:12:00,
2013-06-12 16:13:00,80.8,37.2,28.82,NNE,12,4.9,8.7,21,0.00,,---,1.73,VWS V14.01,2013-06-12 20:13:00,
2013-06-12 16:14:00,81.0,37.4,28.82,NW,310,7.4,7.8,21,0.00,,---,1.73,VWS V14.01,2013-06-12 20:14:00,
2013-06-12 16:15:00,81.1,38.7,28.82,NE,42,3.6,7.4,22,0.00,,---,1.73,VWS V14.01,2013-06-12 20:15:00,
2013-06-12 16:16:00,81.3,37.7,28.82,North,5,7.4,8.3,21,0.00,,---,1.73,VWS V14.01,2013-06-12 20:16:00,
2013-06-12 16:17:00,94.1,54.0,28.73,SE,146,4.5,6.3,26,0.00,,---,0.00,VWS V14.01,2013-06-12 20:17:00,
2013-06-12 16:18:00,81.1,36.3,28.82,NNW,332,6.9,10.5,20,0.00,,---,1.73,VWS V14.01,2013-06-12 20:18:00,
2013-06-12 16:19:00,81.1,37.5,28.82,NW,322,4.9,6.9,21,0.00,,---,1.73,VWS V14.01,2013-06-12 20:19:00,
2013-06-12 16:20:00,81.3,37.7,28.82,NW,315,6.9,9.2,21,0.00,,---,1.73,VWS V14.01,2013-06-12 20:20:00,
2013-06-12 16:21:00,81.1,36.3,28.82,WNW,299,4.9,10.1,20,0.00,,---,1.73,VWS V14.01,2013-06-12 20:21:00,
2013-06-12 16:22:00,93.9,54.9,28.73,SE,133,4.0,5.8,27,0.00,,---,0.00,VWS V14.01,2013-06-12 20:22:00,
2013-06-12 16:23:00,81.3,36.5,28.82,NW,319,4.9,5.8,20,0.00,,---,1.73,VWS V14.01,2013-06-12 20:23:00,
2013-06-12 16:24:00,81.3,36.5,28.82,NW,325,6.9,10.1,20,0.00,,---,1.73,VWS V14.01,2013-06-12 20:24:00,
2013-06-12 16:25:00,81.1,36.3,28.82,NNW,343,7.8,10.1,20,0.00,,---,1.73,VWS V14.01,2013-06-12 20:25:00,
2013-06-12 16:26:00,81.0,36.2,28.82,NNW,343,5.8,8.7,20,0.00,,---,1.73,VWS V14.01,2013-06-12 20:26:00,
2013-06-12 16:27:00,94.3,54.2,28.73,SW,228,8.7,8.7,26,0.00,,---,0.00,VWS V14.01,2013-06-12 20:27:00,
2013-06-12 16:28:00,81.1,36.3,28.82,NNW,329,8.3,8.3,20,0.00,,---,1.73,VWS V14.01,2013-06-12 20:28:00,
2013-06-12 16:29:00,80.8,36.0,28.82,NNW,327,8.3,10.1,20,0.00,,---,1.73,VWS V14.01,2013-06-12 20:29:00,
2013-06-12 16:30:00,80.6,35.9,28.82,NNW,342,4.5,10.1,20,0.00,,---,1.73,VWS V14.01,2013-06-12 20:30:00,
2013-06-12 16:31:00,80.6,35.9,28.82,NNW,328,5.4,8.3,20,0.00,,---,1.73,VWS V14.01,2013-06-12 20:31:00,
2013-06-12 16:32:00,94.6,53.4,28.73,WSW,248,4.5,7.4,25,0.00,,---,0.00,VWS V14.01,2013-06-12 20:32:00,
2013-06-12 16:33:00,81.0,37.4,28.82,NW,318,6.3,8.3,21,0.00,,---,1.73,VWS V14.01,2013-06-12 20:33:00,
2013-06-12 16:34:00,81.0,36.2,28.82,North,356,14.8,14.8,20,0.00,,---,1.73,VWS V14.01,2013-06-12 20:34:00,
2013-06-12 16:35:00,80.2,35.6,28.82,North,7,9.2,14.8,20,0.00,,---,1.73,VWS V14.01,2013-06-12 20:35:00,
2013-06-12 16:36:00,80.1,35.4,28.82,NNW,332,4.5,10.1,20,0.00,,---,1.73,VWS V14.01,2013-06-12 20:36:00,
2013-06-12 16:37:00,93.9,53.9,28.73,SSW,213,4.9,10.5,26,0.00,,---,0.00,VWS V14.01,2013-06-12 20:37:00,
2013-06-12 16:38:00,80.4,35.7,28.82,NNW,342,12.1,12.1,20,0.00,,---,1.73,VWS V14.01,2013-06-12 20:38:00,
2013-06-12 16:39:00,80.4,35.7,28.82,NNW,340,7.4,12.1,20,0.00,,---,1.73,VWS V14.01,2013-06-12 20:39:00,
2013-06-12 16:40:00,80.6,37.1,28.82,NNE,18,3.1,7.4,21,0.00,,---,1.73,VWS V14.01,2013-06-12 20:40:00,
2013-06-12 16:41:00,80.8,38.4,28.82,North,351,4.9,5.8,22,0.00,,---,1.73,VWS V14.01,2013-06-12 20:41:00,
2013-06-12 16:42:00,94.5,52.1,28.73,South,183,4.9,9.6,24,0.00,,---,0.00,VWS V14.01,2013-06-12 20:42:00,
2013-06-12 16:43:00,80.4,35.7,28.82,NW,322,8.7,10.5,20,0.00,,---,1.73,VWS V14.01,2013-06-12 20:43:00,
2013-06-12 16:44:00,80.2,35.6,28.82,NW,315,7.4,9.2,20,0.00,,---,1.73,VWS V14.01,2013-06-12 20:44:00,
2013-06-12 16:45:00,79.7,35.1,28.82,NNW,345,5.8,8.3,20,0.00,,---,1.73,VWS V14.01,2013-06-12 20:45:00,
2013-06-12 16:46:00,79.5,36.2,28.82,North,351,4.0,10.1,21,0.00,,---,1.73,VWS V14.01,2013-06-12 20:46:00,
2013-06-12 16:47:00,93.0,54.1,28.73,West,259,6.7,7.8,27,0.00,,---,0.00,VWS V14.01,2013-06-12 20:47:00,
2013-06-12 16:48:00,79.7,36.3,28.82,NNW,339,3.6,6.7,21,0.00,,---,1.73,VWS V14.01,2013-06-12 20:48:00,
2013-06-12 16:49:00,79.9,36.5,28.82,WNW,295,10.1,10.1,21,0.00,,---,1.73,VWS V14.01,2013-06-12 20:49:00,
2013-06-12 16:50:00,79.9,35.3,28.82,NNW,329,6.7,10.1,20,0.00,,---,1.73,VWS V14.01,2013-06-12 20:50:00,
2013-06-12 16:51:00,80.1,35.4,28.82,North,5,4.9,6.7,20,0.00,,---,1.73,VWS V14.01,2013-06-12 20:51:00,
2013-06-12 16:52:00,94.1,56.0,28.73,SW,227,5.8,6.7,28,0.00,,---,0.00,VWS V14.01,2013-06-12 20:52:00,
2013-06-12 16:53:00,80.4,35.7,28.82,NNW,327,4.9,6.9,20,0.00,,---,1.73,VWS V14.01,2013-06-12 20:53:00,
2013-06-12 16:54:00,80.8,37.2,28.82,North,356,6.7,6.7,21,0.00,,---,1.73,VWS V14.01,2013-06-12 20:54:00,
2013-06-12 16:55:00,80.8,37.2,28.82,WNW,290,4.9,6.9,21,0.00,,---,1.73,VWS V14.01,2013-06-12 20:55:00,
2013-06-12 16:56:00,80.8,36.0,28.82,NW,305,6.7,8.3,20,0.00,,---,1.73,VWS V14.01,2013-06-12 20:56:00,
2013-06-12 16:57:00,93.4,54.4,28.73,WSW,249,2.7,10.1,27,0.00,,---,0.00,VWS V14.01,2013-06-12 20:57:00,
2013-06-12 16:58:00,80.2,35.6,28.82,North,356,4.5,11.0,20,0.00,,---,1.73,VWS V14.01,2013-06-12 20:58:00,
2013-06-12 16:59:00,80.2,36.8,28.82,North,10,6.9,6.9,21,0.00,,---,1.73,VWS V14.01,2013-06-12 20:59:00,
2013-06-12 17:00:00,80.1,35.4,28.82,NW,319,5.4,9.6,20,0.00,,---,1.73,VWS V14.01,2013-06-12 21:00:00,
2013-06-12 17:01:00,80.2,36.8,28.82,NW,319,5.8,8.3,21,0.00,,---,1.73,VWS V14.01,2013-06-12 21:01:00,
2013-06-12 17:02:00,93.2,54.3,28.73,South,183,2.7,6.9,27,0.00,,---,0.00,VWS V14.01,2013-06-12 21:02:00,
2013-06-12 17:03:00,80.2,36.8,28.82,North,356,4.9,8.3,21,0.00,,---,1.73,VWS V14.01,2013-06-12 21:03:00,
2013-06-12 17:04:00,80.4,37.0,28.82,NNE,17,4.0,7.4,21,0.00,,---,1.73,VWS V14.01,2013-06-12 21:04:00,
2013-06-12 17:05:00,80.6,37.1,28.82,NE,48,5.8,9.2,21,0.00,,---,1.73,VWS V14.01,2013-06-12 21:05:00,
2013-06-12 17:06:00,80.6,35.9,28.82,NNE,14,5.4,9.2,20,0.00,,---,1.73,VWS V14.01,2013-06-12 21:06:00,
2013-06-12 17:07:00,91.9,54.2,28.73,WSW,254,10.5,11.0,28,0.00,,---,0.00,VWS V14.01,2013-06-12 21:07:00,
2013-06-12 17:08:00,80.6,38.3,28.82,WNW,303,3.6,6.7,22,0.00,,---,1.73,VWS V14.01,2013-06-12 21:08:00,
2013-06-12 17:09:00,80.2,35.6,28.82,NW,322,5.8,12.5,20,0.00,,---,1.73,VWS V14.01,2013-06-12 21:09:00,
2013-06-12 17:10:00,79.9,35.3,28.82,NW,321,6.7,11.2,20,0.00,,---,1.73,VWS V14.01,2013-06-12 21:10:00,
2013-06-12 17:11:00,79.9,35.3,28.82,NNW,341,9.6,9.6,20,0.00,,---,1.73,VWS V14.01,2013-06-12 21:11:00,
2013-06-12 17:12:00,92.5,54.7,28.73,South,176,0.0,6.9,28,0.00,,---,0.00,VWS V14.01,2013-06-12 21:12:00,
2013-06-12 17:13:00,79.3,36.0,28.82,North,351,6.7,9.6,21,0.00,,---,1.73,VWS V14.01,2013-06-12 21:13:00,
2013-06-12 17:14:00,79.3,36.0,28.82,NW,325,5.8,8.7,21,0.00,,---,1.73,VWS V14.01,2013-06-12 21:14:00,
2013-06-12 17:15:00,79.3,36.0,28.82,WNW,297,9.6,10.5,21,0.00,,---,1.73,VWS V14.01,2013-06-12 21:15:00,
2013-06-12 17:16:00,79.5,36.2,28.82,North,351,10.5,10.5,21,0.00,,---,1.73,VWS V14.01,2013-06-12 21:16:00,
2013-06-12 17:17:00,93.2,53.2,28.73,SSW,200,6.7,10.1,26,0.00,,---,0.00,VWS V14.01,2013-06-12 21:17:00,
2013-06-12 17:18:00,79.5,36.2,28.82,North,351,6.9,8.3,21,0.00,,---,1.73,VWS V14.01,2013-06-12 21:18:00,
2013-06-12 17:19:00,79.7,36.3,28.82,NNW,332,4.5,6.9,21,0.00,,---,1.73,VWS V14.01,2013-06-12 21:19:00,
2013-06-12 17:20:00,79.7,36.3,28.82,NNW,331,6.7,7.8,21,0.00,,---,1.73,VWS V14.01,2013-06-12 21:20:00,
2013-06-12 17:21:00,79.5,36.2,28.82,North,356,8.3,9.2,21,0.00,,---,1.73,VWS V14.01,2013-06-12 21:21:00,
2013-06-12 17:22:00,93.6,51.4,28.73,WSW,244,11.6,11.6,24,0.00,,---,0.00,VWS V14.01,2013-06-12 21:22:00,
2013-06-12 17:23:00,78.8,35.6,28.82,North,351,5.4,11.6,21,0.00,,---,1.73,VWS V14.01,2013-06-12 21:23:00,
2013-06-12 17:24:00,78.6,35.5,28.82,NNW,340,6.9,10.5,21,0.00,,---,1.73,VWS V14.01,2013-06-12 21:24:00,
2013-06-12 17:25:00,78.6,35.5,28.82,NW,316,6.3,9.2,21,0.00,,---,1.73,VWS V14.01,2013-06-12 21:25:00,
2013-06-12 17:26:00,78.8,35.6,28.82,West,268,3.1,11.0,21,0.00,,---,1.73,VWS V14.01,2013-06-12 21:26:00,
2013-06-12 17:27:00,94.1,51.8,28.73,West,269,5.8,11.0,24,0.00,,---,0.00,VWS V14.01,2013-06-12 21:27:00,
2013-06-12 17:28:00,79.2,35.9,28.82,North,7,5.8,11.6,21,0.00,,---,1.73,VWS V14.01,2013-06-12 21:28:00,
2013-06-12 17:29:00,79.2,35.9,28.82,NNE,12,4.0,8.3,21,0.00,,---,1.73,VWS V14.01,2013-06-12 21:29:00,
2013-06-12 17:30:00,79.3,36.0,28.82,NW,313,6.3,6.9,21,0.00,,---,1.73,VWS V14.01,2013-06-12 21:30:00,
2013-06-12 17:31:00,79.0,35.8,28.82,NW,321,6.3,12.5,21,0.00,,---,1.73,VWS V14.01,2013-06-12 21:31:00,
2013-06-12 17:32:00,92.7,50.6,28.70,SW,227,0.0,5.4,24,0.00,,---,0.00,VWS V14.01,2013-06-12 21:32:00,
2013-06-12 17:33:00,79.0,35.8,28.82,North,356,6.3,11.0,21,0.00,,---,1.73,VWS V14.01,2013-06-12 21:33:00,
2013-06-12 17:34:00,79.2,35.9,28.82,WNW,289,9.2,9.2,21,0.00,,---,1.73,VWS V14.01,2013-06-12 21:34:00,
2013-06-12 17:35:00,79.2,35.9,28.82,NNW,328,6.9,9.2,21,0.00,,---,1.73,VWS V14.01,2013-06-12 21:35:00,
2013-06-12 17:36:00,79.3,36.0,28.82,North,5,4.5,6.9,21,0.00,,---,1.73,VWS V14.01,2013-06-12 21:36:00,
2013-06-12 17:37:00,91.8,53.1,28.70,West,264,4.5,10.1,27,0.00,,---,0.00,VWS V14.01,2013-06-12 21:37:00,
2013-06-12 17:38:00,79.3,36.0,28.82,NW,313,5.8,11.2,21,0.00,,---,1.73,VWS V14.01,2013-06-12 21:38:00,
2013-06-12 17:39:00,79.3,36.0,28.82,West,265,6.7,6.7,21,0.00,,---,1.73,VWS V14.01,2013-06-12 21:39:00,
2013-06-12 17:40:00,79.5,36.2,28.82,NNW,330,5.4,10.5,21,0.00,,---,1.73,VWS V14.01,2013-06-12 21:40:00,
2013-06-12 17:41:00,79.7,36.3,28.82,West,273,12.5,12.5,21,0.00,,---,1.73,VWS V14.01,2013-06-12 21:41:00,
2013-06-12 17:42:00,91.2,52.6,28.70,NW,307,4.5,12.5,27,0.00,,---,0.00,VWS V14.01,2013-06-12 21:42:00,
2013-06-12 17:43:00,79.3,36.0,28.82,NW,310,6.3,9.6,21,0.00,,---,1.73,VWS V14.01,2013-06-12 21:43:00,
2013-06-12 17:44:00,79.2,35.9,28.82,NNW,331,4.9,11.2,21,0.00,,---,1.73,VWS V14.01,2013-06-12 21:44:00,
2013-06-12 17:45:00,79.3,36.0,28.82,NNE,16,6.9,7.8,21,0.00,,---,1.73,VWS V14.01,2013-06-12 21:45:00,
2013-06-12 17:46:00,79.3,36.0,28.82,North,9,4.5,6.9,21,0.00,,---,1.73,VWS V14.01,2013-06-12 21:46:00,
2013-06-12 17:47:00,90.5,52.0,28.73,WSW,254,7.8,9.6,27,0.00,,---,0.00,VWS V14.01,2013-06-12 21:47:00,
2013-06-12 17:48:00,79.7,36.3,28.82,NNW,336,4.0,6.9,21,0.00,,---,1.73,VWS V14.01,2013-06-12 21:48:00,
2013-06-12 17:49:00,79.5,36.2,28.82,NNE,19,3.1,7.8,21,0.00,,---,1.73,VWS V14.01,2013-06-12 21:49:00,
2013-06-12 17:50:00,79.3,36.0,28.82,WNW,301,5.4,13.0,21,0.00,,---,1.73,VWS V14.01,2013-06-12 21:50:00,
2013-06-12 17:51:00,79.2,35.9,28.82,NNW,337,4.9,8.7,21,0.00,,---,1.73,VWS V14.01,2013-06-12 21:51:00,
2013-06-12 17:52:00,90.0,53.5,28.73,WSW,237,5.8,9.2,29,0.00,,---,0.00,VWS V14.01,2013-06-12 21:52:00,
2013-06-12 17:53:00,78.8,35.6,28.82,NW,311,5.4,10.5,21,0.00,,---,1.73,VWS V14.01,2013-06-12 21:53:00,
2013-06-12 17:54:00,78.8,35.6,28.82,NW,316,6.3,8.7,21,0.00,,---,1.73,VWS V14.01,2013-06-12 21:54:00,
2013-06-12 17:55:00,78.6,35.5,28.82,NNW,337,10.1,10.1,21,0.00,,---,1.73,VWS V14.01,2013-06-12 21:55:00,
2013-06-12 17:56:00,78.6,35.5,28.82,North,351,5.4,10.5,21,0.00,,---,1.73,VWS V14.01,2013-06-12 21:56:00,
2013-06-12 17:57:00,90.0,53.5,28.73,WNW,300,5.4,6.3,29,0.00,,---,0.00,VWS V14.01,2013-06-12 21:57:00,
2013-06-12 17:58:00,78.8,35.6,28.82,WNW,289,7.4,7.4,21,0.00,,---,1.73,VWS V14.01,2013-06-12 21:58:00,
2013-06-12 17:59:00,79.0,36.9,28.82,NNW,334,4.5,9.2,22,0.00,,---,1.73,VWS V14.01,2013-06-12 21:59:00,
2013-06-12 18:00:00,79.0,35.8,28.82,NNW,338,5.8,7.4,21,0.00,,---,1.73,VWS V14.01,2013-06-12 22:00:00,
2013-06-12 18:01:00,79.0,35.8,28.82,North,356,7.8,8.3,21,0.00,,---,1.73,VWS V14.01,2013-06-12 22:01:00,
2013-06-12 18:02:00,89.6,54.1,28.73,WSW,246,4.9,13.9,30,0.00,,---,0.00,VWS V14.01,2013-06-12 22:02:00,
2013-06-12 18:03:00,79.2,35.9,28.82,NNW,336,6.3,10.1,21,0.00,,---,1.73,VWS V14.01,2013-06-12 22:03:00,
2013-06-12 18:04:00,79.2,35.9,28.82,ENE,72,3.1,7.4,21,0.00,,---,1.73,VWS V14.01,2013-06-12 22:04:00,
2013-06-12 18:05:00,79.2,35.9,28.82,NNW,341,4.0,7.4,21,0.00,,---,1.73,VWS V14.01,2013-06-12 22:05:00,
2013-06-12 18:06:00,79.3,37.2,28.82,NNW,330,0.0,4.5,22,0.00,,---,1.73,VWS V14.01,2013-06-12 22:06:00,
2013-06-12 18:07:00,91.2,54.5,28.73,WSW,256,4.5,8.7,29,0.00,,---,0.00,VWS V14.01,2013-06-12 22:07:00,
2013-06-12 18:08:00,79.7,37.5,28.82,NW,314,7.4,7.8,22,0.00,,---,1.73,VWS V14.01,2013-06-12 22:08:00,
2013-06-12 18:09:00,79.5,37.4,28.82,NNE,16,2.7,9.2,22,0.00,,---,1.73,VWS V14.01,2013-06-12 22:09:00,
2013-06-12 18:10:00,79.5,36.2,28.82,NNW,327,6.9,7.4,21,0.00,,---,1.73,VWS V14.01,2013-06-12 22:10:00,
2013-06-12 18:11:00,79.5,36.2,28.82,NNW,343,6.7,7.4,21,0.00,,---,1.73,VWS V14.01,2013-06-12 22:11:00,
2013-06-12 18:12:00,91.8,53.1,28.73,WNW,290,6.9,12.5,27,0.00,,---,0.00,VWS V14.01,2013-06-12 22:12:00,
2013-06-12 18:13:00,79.2,35.9,28.82,NNW,345,8.3,8.3,21,0.00,,---,1.73,VWS V14.01,2013-06-12 22:13:00,
2013-06-12 18:14:00,79.2,37.1,28.82,NNW,331,7.8,8.3,22,0.00,,---,1.73,VWS V14.01,2013-06-12 22:14:00,
2013-06-12 18:15:00,79.0,35.8,28.82,NNW,335,7.8,9.2,21,0.00,,---,1.73,VWS V14.01,2013-06-12 22:15:00,
2013-06-12 18:16:00,79.0,36.9,28.82,NNE,30,4.0,7.8,22,0.00,,---,1.73,VWS V14.01,2013-06-12 22:16:00,
2013-06-12 18:17:00,92.5,52.6,28.73,NW,316,8.7,11.2,26,0.00,,---,0.00,VWS V14.01,2013-06-12 22:17:00,
2013-06-12 18:18:00,79.0,35.8,28.82,NNW,331,4.9,9.2,21,0.00,,---,1.73,VWS V14.01,2013-06-12 22:18:00,
2013-06-12 18:19:00,78.8,35.6,28.82,NW,312,4.9,9.2,21,0.00,,---,1.73,VWS V14.01,2013-06-12 22:19:00,
2013-06-12 18:20:00,78.8,35.6,28.82,NNW,333,8.3,10.5,21,0.00,,---,1.73,VWS V14.01,2013-06-12 22:20:00,
2013-06-12 18:21:00,78.8,35.6,28.82,NW,312,6.3,11.6,21,0.00,,---,1.73,VWS V14.01,2013-06-12 22:21:00,
2013-06-12 18:22:00,92.1,53.4,28.73,SSW,194,6.9,8.7,27,0.00,,---,0.00,VWS V14.01,2013-06-12 22:22:00,
2013-06-12 18:23:00,79.2,37.1,28.82,North,351,3.1,8.7,22,0.00,,---,1.73,VWS V14.01,2013-06-12 22:23:00,
2013-06-12 18:24:00,79.7,37.5,28.82,NNW,336,3.6,4.5,22,0.00,,---,1.73,VWS V14.01,2013-06-12 22:24:00,
2013-06-12 18:25:00,80.1,36.7,28.82,NNW,327,6.3,8.7,21,0.00,,---,1.73,VWS V14.01,2013-06-12 22:25:00,
2013-06-12 18:26:00,80.1,35.4,28.82,NW,317,7.4,14.3,20,0.00,,---,1.73,VWS V14.01,2013-06-12 22:26:00,
2013-06-12 18:27:00,92.1,51.3,28.73,WNW,282,10.5,14.8,25,0.00,,---,0.00,VWS V14.01,2013-06-12 22:27:00,
2013-06-12 18:28:00,79.5,36.2,28.85,NNW,335,8.3,12.5,21,0.00,,---,1.73,VWS V14.01,2013-06-12 22:28:00,
2013-06-12 18:29:00,79.3,36.0,28.85,NW,325,5.4,9.2,21,0.00,,---,1.73,VWS V14.01,2013-06-12 22:29:00,
2013-06-12 18:30:00,79.7,36.3,28.85,NNW,335,6.3,7.8,21,0.00,,---,1.73,VWS V14.01,2013-06-12 22:30:00,
2013-06-12 18:31:00,79.9,35.3,28.85,NE,47,6.7,14.8,20,0.00,,---,1.73,VWS V14.01,2013-06-12 22:31:00,
2013-06-12 18:32:00,93.0,52.0,28.73,WSW,252,5.4,7.8,25,0.00,,---,0.00,VWS V14.01,2013-06-12 22:32:00,
2013-06-12 18:33:00,80.1,35.4,28.85,North,351,9.2,11.6,20,0.00,,---,1.73,VWS V14.01,2013-06-12 22:33:00,
2013-06-12 18:34:00,79.9,35.3,28.85,West,277,9.2,10.5,20,0.00,,---,1.73,VWS V14.01,2013-06-12 22:34:00,
2013-06-12 18:35:00,80.1,35.4,28.85,North,351,8.3,9.2,20,0.00,,---,1.73,VWS V14.01,2013-06-12 22:35:00,
2013-06-12 18:36:00,80.2,35.6,28.85,North,1,3.6,8.3,20,0.00,,---,1.73,VWS V14.01,2013-06-12 22:36:00,
2013-06-12 18:37:00,94.6,48.7,28.73,WSW,257,5.8,9.6,21,0.00,,---,0.00,VWS V14.01,2013-06-12 22:37:00,
2013-06-12 18:38:00,80.2,35.6,28.85,NNE,15,6.7,12.1,20,0.00,,---,1.73,VWS V14.01,2013-06-12 22:38:00,
2013-06-12 18:39:00,80.1,35.4,28.85,NNW,328,10.1,10.1,20,0.00,,---,1.73,VWS V14.01,2013-06-12 22:39:00,
2013-06-12 18:40:00,80.1,35.4,28.85,NNE,33,6.7,11.6,20,0.00,,---,1.73,VWS V14.01,2013-06-12 22:40:00,
2013-06-12 18:41:00,80.1,35.4,28.85,NNW,327,6.9,6.9,20,0.00,,---,1.73,VWS V14.01,2013-06-12 22:41:00,
2013-06-12 18:42:00,94.8,47.5,28.73,West,272,4.5,13.0,20,0.00,,---,0.00,VWS V14.01,2013-06-12 22:42:00,
2013-06-12 18:43:00,80.2,35.6,28.85,NE,34,5.8,8.7,20,0.00,,---,1.73,VWS V14.01,2013-06-12 22:43:00,
2013-06-12 18:44:00,79.9,35.3,28.85,WNW,282,6.9,11.0,20,0.00,,---,1.73,VWS V14.01,2013-06-12 22:44:00,
2013-06-12 18:45:00,79.5,36.2,28.85,North,11,3.1,9.2,21,0.00,,---,1.73,VWS V14.01,2013-06-12 22:45:00,
2013-06-12 18:46:00,79.7,36.3,28.85,North,2,3.1,7.8,21,0.00,,---,1.73,VWS V14.01,2013-06-12 22:46:00,
2013-06-12 18:47:00,93.2,47.5,28.70,WNW,296,7.8,13.4,21,0.00,,---,0.00,VWS V14.01,2013-06-12 22:47:00,
2013-06-12 18:48:00,79.9,35.3,28.85,North,351,7.8,8.3,20,0.00,,---,1.73,VWS V14.01,2013-06-12 22:48:00,
2013-06-12 18:49:00,80.1,36.7,28.85,NNW,334,2.7,7.8,21,0.00,,---,1.73,VWS V14.01,2013-06-12 22:49:00,
2013-06-12 18:50:00,80.4,37.0,28.85,NNW,344,4.0,5.8,21,0.00,,---,1.73,VWS V14.01,2013-06-12 22:50:00,
2013-06-12 18:51:00,80.6,37.1,28.85,NNW,335,6.7,11.0,21,0.00,,---,1.73,VWS V14.01,2013-06-12 22:51:00,
2013-06-12 18:52:00,93.7,48.0,28.70,WSW,256,10.1,10.1,21,0.00,,---,0.00,VWS V14.01,2013-06-12 22:52:00,
2013-06-12 18:53:00,80.2,36.8,28.85,NW,307,8.3,9.2,21,0.00,,---,1.73,VWS V14.01,2013-06-12 22:53:00,
2013-06-12 18:54:00,79.9,36.5,28.85,NNW,329,6.9,8.7,21,0.00,,---,1.73,VWS V14.01,2013-06-12 22:54:00,
2013-06-12 18:55:00,79.9,36.5,28.85,North,351,6.9,9.2,21,0.00,,---,1.73,VWS V14.01,2013-06-12 22:55:00,
2013-06-12 18:56:00,79.7,36.3,28.85,North,351,7.8,9.2,21,0.00,,---,1.73,VWS V14.01,2013-06-12 22:56:00,
2013-06-12 18:57:00,93.7,49.2,28.70,WSW,253,6.9,11.6,22,0.00,,---,0.00,VWS V14.01,2013-06-12 22:57:00,
2013-06-12 18:58:00,79.0,35.8,28.85,NNW,330,8.7,12.1,21,0.00,,---,1.73,VWS V14.01,2013-06-12 22:58:00,
2013-06-12 18:59:00,78.4,36.5,28.85,NNW,338,8.3,13.9,22,0.00,,---,1.73,VWS V14.01,2013-06-12 22:59:00,
2013-06-12 19:00:00,78.1,36.2,28.85,NW,324,5.8,9.2,22,0.00,,---,1.73,VWS V14.01,2013-06-12 23:00:00,
2013-06-12 19:01:00,78.1,37.3,28.85,NW,310,5.8,8.7,23,0.00,,---,1.73,VWS V14.01,2013-06-12 23:01:00,
2013-06-12 19:02:00,92.8,48.4,28.70,WSW,257,4.9,12.1,22,0.00,,---,0.00,VWS V14.01,2013-06-12 23:02:00,
2013-06-12 19:03:00,78.4,36.5,28.85,North,10,4.0,6.7,22,0.00,,---,1.73,VWS V14.01,2013-06-12 23:03:00,
2013-06-12 19:04:00,78.8,36.8,28.85,NNW,329,5.8,7.8,22,0.00,,---,1.73,VWS V14.01,2013-06-12 23:04:00,
2013-06-12 19:05:00,79.0,36.9,28.85,NNE,32,0.0,6.3,22,0.00,,---,1.73,VWS V14.01,2013-06-12 23:05:00,
2013-06-12 19:06:00,79.0,35.8,28.85,North,351,4.9,8.3,21,0.00,,---,1.73,VWS V14.01,2013-06-12 23:06:00,
2013-06-12 19:07:00,93.4,48.9,28.70,SW,219,4.5,7.8,22,0.00,,---,0.00,VWS V14.01,2013-06-12 23:07:00,
2013-06-12 19:08:00,78.6,35.5,28.85,North,351,4.0,8.7,21,0.00,,---,1.73,VWS V14.01,2013-06-12 23:08:00,
2013-06-12 19:09:00,78.6,35.5,28.85,NE,35,4.0,9.6,21,0.00,,---,1.73,VWS V14.01,2013-06-12 23:09:00,
2013-06-12 19:10:00,79.0,35.8,28.85,North,351,4.9,9.2,21,0.00,,---,1.73,VWS V14.01,2013-06-12 23:10:00,
2013-06-12 19:11:00,79.0,34.5,28.85,North,351,6.9,8.3,20,0.00,,---,1.73,VWS V14.01,2013-06-12 23:11:00,
2013-06-12 19:12:00,93.2,48.7,28.70,SSW,210,6.3,10.5,22,0.00,,---,0.00,VWS V14.01,2013-06-12 23:12:00,
2013-06-12 19:13:00,79.5,35.0,28.85,NNW,345,3.1,8.3,20,0.00,,---,1.73,VWS V14.01,2013-06-12 23:13:00,
2013-06-12 19:14:00,79.3,34.8,28.85,North,7,6.7,10.5,20,0.00,,---,1.73,VWS V14.01,2013-06-12 23:14:00,
2013-06-12 19:15:00,79.2,34.7,28.85,NNE,26,3.6,7.4,20,0.00,,---,1.73,VWS V14.01,2013-06-12 23:15:00,
2013-06-12 19:16:00,79.3,34.8,28.85,NNW,335,9.6,9.6,20,0.00,,---,1.73,VWS V14.01,2013-06-12 23:16:00,
2013-06-12 19:17:00,92.7,51.7,28.70,NW,307,6.3,13.0,25,0.00,,---,0.00,VWS V14.01,2013-06-12 23:17:00,
2013-06-12 19:18:00,78.8,34.4,28.85,NW,314,6.7,6.9,20,0.00,,---,1.73,VWS V14.01,2013-06-12 23:18:00,
2013-06-12 19:19:00,78.6,34.2,28.85,North,5,3.6,9.2,20,0.00,,---,1.73,VWS V14.01,2013-06-12 23:19:00,
2013-06-12 19:20:00,78.4,34.1,28.85,NE,37,4.9,8.3,20,0.00,,---,1.73,VWS V14.01,2013-06-12 23:20:00,
2013-06-12 19:21:00,78.6,34.2,28.85,North,0,4.5,6.3,20,0.00,,---,1.73,VWS V14.01,2013-06-12 23:21:00,
2013-06-12 19:22:00,90.7,53.1,28.70,West,266,10.5,13.4,28,0.00,,---,0.00,VWS V14.01,2013-06-12 23:22:00,
2013-06-12 19:23:00,78.6,34.2,28.85,NNE,13,4.5,7.8,20,0.00,,---,1.73,VWS V14.01,2013-06-12 23:23:00,
2013-06-12 19:24:00,78.8,34.4,28.85,NNW,343,4.9,6.7,20,0.00,,---,1.73,VWS V14.01,2013-06-12 23:24:00,
2013-06-12 19:25:00,78.8,34.4,28.85,NNE,17,4.5,11.2,20,0.00,,---,1.73,VWS V14.01,2013-06-12 23:25:00,
2013-06-12 19:26:00,79.0,34.5,28.85,NNE,16,7.4,8.7,20,0.00,,---,1.73,VWS V14.01,2013-06-12 23:26:00,
2013-06-12 19:27:00,88.2,54.6,28.70,West,260,5.8,10.1,32,0.00,,---,0.00,VWS V14.01,2013-06-12 23:27:00,
2013-06-12 19:28:00,79.2,34.7,28.85,NNW,340,7.4,7.8,20,0.00,,---,1.73,VWS V14.01,2013-06-12 23:28:00,
2013-06-12 19:29:00,79.2,34.7,28.85,NW,307,8.3,8.3,20,0.00,,---,1.73,VWS V14.01,2013-06-12 23:29:00,
2013-06-12 19:30:00,78.6,34.2,28.85,NNW,342,4.5,8.7,20,0.00,,---,1.73,VWS V14.01,2013-06-12 23:30:00,
2013-06-12 19:31:00,78.3,33.9,28.85,NNW,328,5.8,11.2,20,0.00,,---,1.73,VWS V14.01,2013-06-12 23:31:00,
2013-06-12 19:32:00,87.1,56.9,28.70,West,270,4.5,8.3,36,0.00,,---,0.00,VWS V14.01,2013-06-12 23:32:00,
2013-06-12 19:33:00,77.9,34.9,28.85,NNW,344,6.7,9.2,21,0.00,,---,1.73,VWS V14.01,2013-06-12 23:33:00,
2013-06-12 19:34:00,77.5,34.6,28.85,WNW,290,5.8,8.3,21,0.00,,---,1.73,VWS V14.01,2013-06-12 23:34:00,
2013-06-12 19:35:00,77.9,34.9,28.85,NW,320,5.4,5.8,21,0.00,,---,1.73,VWS V14.01,2013-06-12 23:35:00,
2013-06-12 19:36:00,78.3,35.2,28.85,North,356,3.6,6.3,21,0.00,,---,1.73,VWS V14.01,2013-06-12 23:36:00,
2013-06-12 19:37:00,87.1,56.9,28.70,West,262,4.0,6.3,36,0.00,,---,0.00,VWS V14.01,2013-06-12 23:37:00,
2013-06-12 19:38:00,78.6,35.5,28.85,NNW,337,9.2,9.2,21,0.00,,---,1.73,VWS V14.01,2013-06-12 23:38:00,
2013-06-12 19:39:00,77.0,32.9,28.85,NNW,333,10.5,12.5,20,0.00,,---,1.73,VWS V14.01,2013-06-12 23:39:00,
2013-06-12 19:40:00,76.1,33.4,28.85,North,9,5.8,10.5,21,0.00,,---,1.73,VWS V14.01,2013-06-12 23:40:00,
2013-06-12 19:41:00,75.2,33.8,28.85,NW,312,6.7,7.8,22,0.00,,---,1.73,VWS V14.01,2013-06-12 23:41:00,
2013-06-12 19:42:00,74.3,34.1,28.85,NNE,16,5.4,10.1,23,0.00,,---,1.73,VWS V14.01,2013-06-12 23:42:00,
2013-06-12 19:43:00,86.7,58.1,28.70,WNW,289,4.5,6.3,38,0.00,,---,0.00,VWS V14.01,2013-06-12 23:43:00,
2013-06-12 19:44:00,73.2,34.3,28.85,NNW,346,8.7,8.7,24,0.00,,---,1.73,VWS V14.01,2013-06-12 23:44:00,
2013-06-12 19:45:00,72.9,34.0,28.85,NNE,20,3.1,8.7,24,0.00,,---,1.73,VWS V14.01,2013-06-12 23:45:00,
2013-06-12 19:46:00,72.5,34.7,28.85,NNE,26,4.9,8.3,25,0.00,,---,1.73,VWS V14.01,2013-06-12 23:46:00,
2013-06-12 19:47:00,72.1,34.4,28.85,NNW,336,9.6,11.0,25,0.00,,---,1.73,VWS V14.01,2013-06-12 23:47:00,
2013-06-12 19:48:00,86.4,59.2,28.70,WSW,237,4.0,4.9,40,0.00,,---,0.00,VWS V14.01,2013-06-12 23:48:00,
2013-06-12 19:49:00,71.8,35.1,28.85,NE,34,5.8,11.2,26,0.00,,---,1.73,VWS V14.01,2013-06-12 23:49:00,
2013-06-12 19:50:00,71.6,34.9,28.85,NNE,17,4.5,7.4,26,0.00,,---,1.73,VWS V14.01,2013-06-12 23:50:00,
2013-06-12 19:51:00,71.4,36.7,28.85,North,351,3.1,8.7,28,0.00,,---,1.73,VWS V14.01,2013-06-12 23:51:00,
2013-06-12 19:52:00,71.2,36.5,28.85,North,2,3.6,8.3,28,0.00,,---,1.73,VWS V14.01,2013-06-12 23:52:00,
2013-06-12 19:53:00,86.0,59.6,28.70,North,3,0.0,7.8,41,0.00,,---,0.00,VWS V14.01,2013-06-12 23:53:00,
2013-06-12 19:54:00,71.1,37.2,28.85,NNW,347,4.0,7.8,29,0.00,,---,1.73,VWS V14.01,2013-06-12 23:54:00,
2013-06-12 19:55:00,71.1,38.1,28.85,NNE,31,4.5,6.7,30,0.00,,---,1.73,VWS V14.01,2013-06-12 23:55:00,
2013-06-12 19:56:00,71.1,38.9,28.85,NNE,19,3.1,4.5,31,0.00,,---,1.73,VWS V14.01,2013-06-12 23:56:00,
2013-06-12 19:57:00,70.9,38.8,28.85,NE,38,4.5,6.7,31,0.00,,---,1.73,VWS V14.01,2013-06-12 23:57:00,
2013-06-12 19:58:00,85.6,59.3,28.70,SW,236,4.0,6.9,41,0.00,,---,0.00,VWS V14.01,2013-06-12 23:58:00,
2013-06-12 19:59:00,70.7,39.4,28.85,North,356,5.4,9.2,32,0.00,,---,1.73,VWS V14.01,2013-06-12 23:59:00,
2013-06-12 20:00:00,70.7,39.4,28.85,NW,321,4.9,7.4,32,0.00,,---,1.73,VWS V14.01,2013-06-13 00:00:00,
2013-06-12 20:01:00,70.5,39.3,28.85,NNW,332,6.3,8.7,32,0.00,,---,1.73,VWS V14.01,2013-06-13 00:01:00,
2013-06-12 20:02:00,70.3,39.1,28.85,NW,317,7.4,10.1,32,0.00,,---,1.73,VWS V14.01,2013-06-13 00:02:00,
2013-06-12 20:03:00,70.3,39.1,28.85,NW,323,8.3,12.5,32,0.00,,---,1.73,VWS V14.01,2013-06-13 00:03:00,
2013-06-12 20:04:00,85.5,60.4,28.70,West,270,2.7,3.1,43,0.00,,---,0.00,VWS V14.01,2013-06-13 00:04:00,
2013-06-12 20:05:00,70.2,39.0,28.85,NNE,23,3.1,8.3,32,0.00,,---,1.73,VWS V14.01,2013-06-13 00:05:00,
2013-06-12 20:06:00,70.2,39.0,28.85,NNW,332,3.6,7.4,32,0.00,,---,1.73,VWS V14.01,2013-06-13 00:06:00,
2013-06-12 20:07:00,70.0,38.8,28.85,NNW,329,6.3,7.4,32,0.00,,---,1.73,VWS V14.01,2013-06-13 00:07:00,
2013-06-12 20:08:00,70.0,38.8,28.85,NNE,14,3.1,8.7,32,0.00,,---,1.73,VWS V14.01,2013-06-13 00:08:00,
2013-06-12 20:09:00,85.3,60.3,28.70,SSW,213,4.5,5.8,43,0.00,,---,0.00,VWS V14.01,2013-06-13 00:09:00,
2013-06-12 20:10:00,69.8,38.6,28.85,NW,321,5.4,7.4,32,0.00,,---,1.73,VWS V14.01,2013-06-13 00:10:00,
2013-06-12 20:11:00,69.6,38.5,28.85,NNW,334,8.3,8.3,32,0.00,,---,1.73,VWS V14.01,2013-06-13 00:11:00,
2013-06-12 20:12:00,69.6,38.5,28.85,North,351,4.9,8.3,32,0.00,,---,1.73,VWS V14.01,2013-06-13 00:12:00,
2013-06-12 20:13:00,69.6,38.5,28.85,NNW,342,6.7,9.2,32,0.00,,---,1.73,VWS V14.01,2013-06-13 00:13:00,
2013-06-12 20:14:00,84.9,60.6,28.70,SW,235,4.5,5.8,44,0.00,,---,0.00,VWS V14.01,2013-06-13 00:14:00,
2013-06-12 20:15:00,69.4,38.3,28.85,NW,312,8.3,10.1,32,0.00,,---,1.73,VWS V14.01,2013-06-13 00:15:00,
2013-06-12 20:16:00,69.3,38.2,28.85,North,1,8.7,11.0,32,0.00,,---,1.73,VWS V14.01,2013-06-13 00:16:00,
2013-06-12 20:17:00,69.3,38.2,28.85,NNE,19,3.1,9.2,32,0.00,,---,1.73,VWS V14.01,2013-06-13 00:17:00,
2013-06-12 20:18:00,69.3,38.2,28.85,North,9,6.3,6.7,32,0.00,,---,1.73,VWS V14.01,2013-06-13 00:18:00,
2013-06-12 20:19:00,84.7,60.4,28.67,SSW,199,0.0,0.0,44,0.00,,---,0.00,VWS V14.01,2013-06-13 00:19:00,
2013-06-12 20:20:00,69.1,38.0,28.85,NNW,330,8.3,8.7,32,0.00,,---,1.73,VWS V14.01,2013-06-13 00:20:00,
2013-06-12 20:21:00,69.1,38.0,28.85,NNE,26,9.2,10.5,32,0.00,,---,1.73,VWS V14.01,2013-06-13 00:21:00,
2013-06-12 20:22:00,69.1,38.0,28.85,NNE,32,4.9,9.2,32,0.00,,---,1.73,VWS V14.01,2013-06-13 00:22:00,
2013-06-12 20:23:00,68.9,37.8,28.85,NW,309,6.9,9.6,32,0.00,,---,1.73,VWS V14.01,2013-06-13 00:23:00,
2013-06-12 20:24:00,84.7,61.1,28.67,WSW,238,2.7,4.5,45,0.00,,---,0.00,VWS V14.01,2013-06-13 00:24:00,
2013-06-12 20:25:00,68.9,37.8,28.85,North,351,4.9,6.7,32,0.00,,---,1.73,VWS V14.01,2013-06-13 00:25:00,
2013-06-12 20:26:00,68.9,37.8,28.85,North,3,4.5,9.6,32,0.00,,---,1.73,VWS V14.01,2013-06-13 00:26:00,
2013-06-12 20:27:00,68.9,37.8,28.85,NNE,31,5.8,9.2,32,0.00,,---,1.73,VWS V14.01,2013-06-13 00:27:00,
2013-06-12 20:28:00,68.7,38.5,28.85,NNW,329,5.4,7.4,33,0.00,,---,1.73,VWS V14.01,2013-06-13 00:28:00,
2013-06-12 20:29:00,84.6,60.9,28.67,WSW,243,0.0,4.5,45,0.00,,---,0.00,VWS V14.01,2013-06-13 00:29:00,
2013-06-12 20:30:00,68.7,38.5,28.85,NNE,22,9.2,9.2,33,0.00,,---,1.73,VWS V14.01,2013-06-13 00:30:00,
2013-06-12 20:31:00,68.7,38.5,28.85,NW,315,7.8,9.2,33,0.00,,---,1.73,VWS V14.01,2013-06-13 00:31:00,
2013-06-12 20:32:00,68.5,38.3,28.85,NW,318,4.0,10.1,33,0.00,,---,1.73,VWS V14.01,2013-06-13 00:32:00,
2013-06-12 20:33:00,68.5,38.3,28.85,North,351,5.8,7.4,33,0.00,,---,1.73,VWS V14.01,2013-06-13 00:33:00,
2013-06-12 20:34:00,84.4,61.4,28.70,South,187,3.6,4.5,46,0.00,,---,0.00,VWS V14.01,2013-06-13 00:34:00,
2013-06-12 20:35:00,68.5,38.3,28.85,NNW,331,0.0,7.8,33,0.00,,---,1.73,VWS V14.01,2013-06-13 00:35:00,
2013-06-12 20:36:00,68.5,39.1,28.85,NNE,14,3.1,5.4,34,0.00,,---,1.73,VWS V14.01,2013-06-13 00:36:00,
2013-06-12 20:37:00,68.4,38.9,28.85,NNW,331,4.9,5.8,34,0.00,,---,1.73,VWS V14.01,2013-06-13 00:37:00,
2013-06-12 20:38:00,68.4,38.9,28.85,NNW,327,5.8,5.8,34,0.00,,---,1.73,VWS V14.01,2013-06-13 00:38:00,
2013-06-12 20:39:00,84.0,61.6,28.70,WSW,237,0.0,3.1,47,0.00,,---,0.00,VWS V14.01,2013-06-13 00:39:00,
2013-06-12 20:40:00,68.4,39.7,28.85,NNW,333,3.6,5.4,35,0.00,,---,1.73,VWS V14.01,2013-06-13 00:40:00,
2013-06-12 20:41:00,68.4,39.7,28.85,NNW,328,4.9,5.8,35,0.00,,---,1.73,VWS V14.01,2013-06-13 00:41:00,
2013-06-12 20:42:00,68.2,39.5,28.88,NNW,334,3.6,5.8,35,0.00,,---,1.73,VWS V14.01,2013-06-13 00:42:00,
2013-06-12 20:43:00,68.2,40.2,28.88,NNW,334,4.0,6.3,36,0.00,,---,1.73,VWS V14.01,2013-06-13 00:43:00,
2013-06-12 20:44:00,83.8,62.1,28.70,SSW,194,0.0,2.7,48,0.00,,---,0.00,VWS V14.01,2013-06-13 00:44:00,
2013-06-12 20:45:00,68.0,40.8,28.88,NNW,344,4.5,9.2,37,0.00,,---,1.73,VWS V14.01,2013-06-13 00:45:00,
2013-06-12 20:46:00,68.0,40.8,28.88,NNW,335,7.4,7.4,37,0.00,,---,1.73,VWS V14.01,2013-06-13 00:46:00,
2013-06-12 20:47:00,68.0,40.8,28.88,NNW,341,5.4,8.7,37,0.00,,---,1.73,VWS V14.01,2013-06-13 00:47:00,
2013-06-12 20:48:00,67.8,40.6,28.88,NW,316,3.6,5.8,37,0.00,,---,1.73,VWS V14.01,2013-06-13 00:48:00,
2013-06-12 20:49:00,83.7,62.5,28.67,West,259,4.5,4.5,49,0.00,,---,0.00,VWS V14.01,2013-06-13 00:49:00,
2013-06-12 20:50:00,67.8,41.3,28.88,North,351,0.0,5.4,38,0.00,,---,1.73,VWS V14.01,2013-06-13 00:50:00,
2013-06-12 20:51:00,67.6,41.2,28.88,NW,322,3.6,6.7,38,0.00,,---,1.73,VWS V14.01,2013-06-13 00:51:00,
2013-06-12 20:52:00,67.6,41.2,28.88,NNW,342,5.4,5.8,38,0.00,,---,1.73,VWS V14.01,2013-06-13 00:52:00,
2013-06-12 20:53:00,67.6,41.2,28.88,NNW,335,4.0,6.9,38,0.00,,---,1.73,VWS V14.01,2013-06-13 00:53:00,
2013-06-12 20:54:00,83.3,62.7,28.67,West,271,3.1,3.6,50,0.00,,---,0.00,VWS V14.01,2013-06-13 00:54:00,
2013-06-12 20:55:00,67.5,41.0,28.88,NW,321,8.3,8.3,38,0.00,,---,1.73,VWS V14.01,2013-06-13 00:55:00,
2013-06-12 20:56:00,67.5,41.0,28.88,North,351,5.4,9.2,38,0.00,,---,1.73,VWS V14.01,2013-06-13 00:56:00,
2013-06-12 20:57:00,67.3,40.8,28.88,NNW,346,11.0,11.0,38,0.00,,---,1.73,VWS V14.01,2013-06-13 00:57:00,
2013-06-12 20:58:00,67.3,40.8,28.88,NNW,328,6.3,11.0,38,0.00,,---,1.73,VWS V14.01,2013-06-13 00:58:00,
2013-06-12 20:59:00,82.9,63.0,28.67,ESE,108,0.0,0.0,51,0.00,,---,0.00,VWS V14.01,2013-06-13 00:59:00,
2013-06-12 21:00:00,67.3,41.5,28.88,NNW,340,3.6,5.4,39,0.00,,---,1.73,VWS V14.01,2013-06-13 01:00:00,
2013-06-12 21:01:00,67.1,40.7,28.88,NE,44,5.8,6.9,38,0.00,,---,1.73,VWS V14.01,2013-06-13 01:01:00,
2013-06-12 21:02:00,67.1,41.3,28.88,North,356,3.6,6.3,39,0.00,,---,1.73,VWS V14.01,2013-06-13 01:02:00,
2013-06-12 21:03:00,67.1,41.3,28.88,WNW,285,7.4,7.8,39,0.00,,---,1.73,VWS V14.01,2013-06-13 01:03:00,
2013-06-12 21:04:00,82.8,63.4,28.67,SSE,167,0.0,0.0,52,0.00,,---,0.00,VWS V14.01,2013-06-13 01:04:00,
2013-06-12 21:05:00,66.9,41.2,28.88,NNW,330,8.3,9.2,39,0.00,,---,1.73,VWS V14.01,2013-06-13 01:05:00,
2013-06-12 21:06:00,66.9,41.2,28.88,NW,322,6.9,8.3,39,0.00,,---,1.73,VWS V14.01,2013-06-13 01:06:00,
2013-06-12 21:07:00,66.9,41.8,28.88,NW,319,5.4,6.9,40,0.00,,---,1.73,VWS V14.01,2013-06-13 01:07:00,
2013-06-12 21:08:00,66.9,41.8,28.88,NNW,345,6.3,6.3,40,0.00,,---,1.73,VWS V14.01,2013-06-13 01:08:00,
2013-06-12 21:09:00,82.6,63.7,28.67,SW,233,0.0,3.6,53,0.00,,---,0.00,VWS V14.01,2013-06-13 01:09:00,
2013-06-12 21:10:00,66.7,42.3,28.88,NNW,333,5.4,6.7,41,0.00,,---,1.73,VWS V14.01,2013-06-13 01:10:00,
2013-06-12 21:11:00,66.7,42.3,28.88,NNW,331,6.7,6.7,41,0.00,,---,1.73,VWS V14.01,2013-06-13 01:11:00,
2013-06-12 21:12:00,66.7,42.3,28.88,NNW,330,4.5,6.7,41,0.00,,---,1.73,VWS V14.01,2013-06-13 01:12:00,
2013-06-12 21:13:00,66.6,42.8,28.88,NNW,328,0.0,6.7,42,0.00,,---,1.73,VWS V14.01,2013-06-13 01:13:00,
2013-06-12 21:14:00,82.4,63.6,28.67,SW,233,0.0,0.0,53,0.00,,---,0.00,VWS V14.01,2013-06-13 01:14:00,
2013-06-12 21:15:00,66.6,43.4,28.88,NE,41,0.0,4.5,43,0.00,,---,1.73,VWS V14.01,2013-06-13 01:15:00,
2013-06-12 21:16:00,66.6,43.4,28.88,NNW,340,0.0,5.4,43,0.00,,---,1.73,VWS V14.01,2013-06-13 01:16:00,
2013-06-12 21:17:00,66.4,43.2,28.88,NNW,339,6.3,9.2,43,0.00,,---,1.73,VWS V14.01,2013-06-13 01:17:00,
2013-06-12 21:18:00,66.4,43.2,28.88,NW,324,5.4,6.3,43,0.00,,---,1.73,VWS V14.01,2013-06-13 01:18:00,
2013-06-12 21:19:00,82.2,63.9,28.64,SW,233,0.0,0.0,54,0.00,,---,0.00,VWS V14.01,2013-06-13 01:19:00,
2013-06-12 21:20:00,66.2,43.7,28.88,NW,323,0.0,4.5,44,0.00,,---,1.73,VWS V14.01,2013-06-13 01:20:00,
2013-06-12 21:21:00,66.2,43.7,28.88,NNW,333,4.0,5.4,44,0.00,,---,1.73,VWS V14.01,2013-06-13 01:21:00,
2013-06-12 21:22:00,66.2,44.3,28.88,NNW,331,5.8,5.8,45,0.00,,---,1.73,VWS V14.01,2013-06-13 01:22:00,
2013-06-12 21:23:00,66.2,44.3,28.88,NNW,329,4.9,6.7,45,0.00,,---,1.73,VWS V14.01,2013-06-13 01:23:00,
2013-06-12 21:24:00,82.0,63.8,28.64,WSW,238,0.0,0.0,54,0.00,,---,0.00,VWS V14.01,2013-06-13 01:24:00,
2013-06-12 21:25:00,66.0,44.1,28.88,North,351,4.5,4.5,45,0.00,,---,1.73,VWS V14.01,2013-06-13 01:25:00,
2013-06-12 21:26:00,66.0,44.7,28.88,NNW,339,3.6,6.3,46,0.00,,---,1.73,VWS V14.01,2013-06-13 01:26:00,
2013-06-12 21:27:00,65.8,44.5,28.88,NNW,345,2.7,4.9,46,0.00,,---,1.73,VWS V14.01,2013-06-13 01:27:00,
2013-06-12 21:28:00,65.8,44.5,28.88,NW,314,4.5,5.4,46,0.00,,---,1.73,VWS V14.01,2013-06-13 01:28:00,
2013-06-12 21:29:00,81.9,64.1,28.64,South,190,0.0,0.0,55,0.00,,---,0.00,VWS V14.01,2013-06-13 01:29:00,
2013-06-12 21:30:00,65.8,43.9,28.88,NW,326,2.7,8.7,45,0.00,,---,1.73,VWS V14.01,2013-06-13 01:30:00,
2013-06-12 21:31:00,65.8,43.9,28.88,NE,36,4.9,5.4,45,0.00,,---,1.73,VWS V14.01,2013-06-13 01:31:00,
2013-06-12 21:32:00,65.8,44.5,28.88,NNW,328,0.0,5.8,46,0.00,,---,1.73,VWS V14.01,2013-06-13 01:32:00,
2013-06-12 21:33:00,65.7,43.8,28.88,North,2,7.8,8.3,45,0.00,,---,1.73,VWS V14.01,2013-06-13 01:33:00,
2013-06-12 21:34:00,81.9,64.1,28.67,NW,326,0.0,3.1,55,0.00,,---,0.00,VWS V14.01,2013-06-13 01:34:00,
2013-06-12 21:35:00,65.7,43.2,28.88,NW,314,5.4,6.9,44,0.00,,---,1.73,VWS V14.01,2013-06-13 01:35:00,
2013-06-12 21:36:00,65.7,43.2,28.88,North,356,4.9,9.6,44,0.00,,---,1.73,VWS V14.01,2013-06-13 01:36:00,
2013-06-12 21:37:00,65.7,43.2,28.88,NNE,25,2.7,6.9,44,0.00,,---,1.73,VWS V14.01,2013-06-13 01:37:00,
2013-06-12 21:38:00,65.7,43.2,28.88,NNW,329,4.5,5.8,44,0.00,,---,1.73,VWS V14.01,2013-06-13 01:38:00,
2013-06-12 21:39:00,81.7,64.0,28.67,NW,326,0.0,0.0,55,0.00,,---,0.00,VWS V14.01,2013-06-13 01:39:00,
2013-06-12 21:40:00,65.7,42.6,28.88,NNW,330,4.0,5.8,43,0.00,,---,1.73,VWS V14.01,2013-06-13 01:40:00,
2013-06-12 21:41:00,65.7,42.6,28.88,North,351,6.3,8.3,43,0.00,,---,1.73,VWS V14.01,2013-06-13 01:41:00,
2013-06-12 21:42:00,65.5,42.4,28.88,NW,309,6.3,10.1,43,0.00,,---,1.73,VWS V14.01,2013-06-13 01:42:00,
2013-06-12 21:43:00,65.5,42.4,28.88,NNW,334,5.4,6.7,43,0.00,,---,1.73,VWS V14.01,2013-06-13 01:43:00,
2013-06-12 21:44:00,81.5,64.3,28.67,NW,317,0.0,0.0,56,0.00,,---,0.00,VWS V14.01,2013-06-13 01:44:00,
2013-06-12 21:45:00,65.5,42.4,28.88,North,0,6.9,8.3,43,0.00,,---,1.73,VWS V14.01,2013-06-13 01:45:00,
2013-06-12 21:46:00,65.5,42.4,28.88,NW,307,5.8,6.9,43,0.00,,---,1.73,VWS V14.01,2013-06-13 01:46:00,
2013-06-12 21:47:00,65.5,42.4,28.88,North,11,3.6,6.9,43,0.00,,---,1.73,VWS V14.01,2013-06-13 01:47:00,
2013-06-12 21:48:00,65.5,43.0,28.88,NW,305,0.0,4.5,44,0.00,,---,1.73,VWS V14.01,2013-06-13 01:48:00,
2013-06-12 21:49:00,81.5,64.3,28.64,SE,146,0.0,4.9,56,0.00,,---,0.00,VWS V14.01,2013-06-13 01:49:00,
2013-06-12 21:50:00,65.3,43.4,28.88,WNW,289,3.1,6.9,45,0.00,,---,1.73,VWS V14.01,2013-06-13 01:50:00,
2013-06-12 21:51:00,65.1,43.3,28.88,NW,322,4.5,5.4,45,0.00,,---,1.73,VWS V14.01,2013-06-13 01:51:00,
2013-06-12 21:52:00,65.1,43.3,28.88,NNW,327,3.1,4.5,45,0.00,,---,1.73,VWS V14.01,2013-06-13 01:52:00,
2013-06-12 21:53:00,65.1,43.8,28.88,NNW,331,4.9,5.8,46,0.00,,---,1.73,VWS V14.01,2013-06-13 01:53:00,
2013-06-12 21:54:00,81.3,64.7,28.64,SE,137,2.7,4.0,57,0.00,,---,0.00,VWS V14.01,2013-06-13 01:54:00,
2013-06-12 21:55:00,64.9,43.7,28.88,NNW,345,5.4,6.3,46,0.00,,---,1.73,VWS V14.01,2013-06-13 01:55:00,
2013-06-12 21:56:00,64.9,43.7,28.88,North,0,6.3,6.9,46,0.00,,---,1.73,VWS V14.01,2013-06-13 01:56:00,
2013-06-12 21:57:00,64.9,43.1,28.91,NNW,341,4.9,9.6,45,0.00,,---,1.73,VWS V14.01,2013-06-13 01:57:00,
2013-06-12 21:58:00,64.8,43.0,28.91,NW,314,7.4,8.3,45,0.00,,---,1.73,VWS V14.01,2013-06-13 01:58:00,
2013-06-12 21:59:00,81.3,64.7,28.64,SE,137,0.0,0.0,57,0.00,,---,0.00,VWS V14.01,2013-06-13 01:59:00,
2013-06-12 22:00:00,64.8,43.5,28.91,NNW,339,4.0,5.8,46,0.00,,---,1.73,VWS V14.01,2013-06-13 02:00:00,
2013-06-12 22:01:00,64.8,43.5,28.91,NW,318,9.2,9.2,46,0.00,,---,1.73,VWS V14.01,2013-06-13 02:01:00,
2013-06-12 22:02:00,64.8,43.5,28.91,NNW,338,4.9,9.2,46,0.00,,---,1.73,VWS V14.01,2013-06-13 02:02:00,
2013-06-12 22:03:00,64.6,43.3,28.91,NNW,336,4.0,6.9,46,0.00,,---,1.73,VWS V14.01,2013-06-13 02:03:00,
2013-06-12 22:04:00,81.1,64.5,28.64,South,176,0.0,0.0,57,0.00,,---,0.00,VWS V14.01,2013-06-13 02:04:00,
2013-06-12 22:05:00,64.6,43.9,28.91,NNW,331,4.5,5.4,47,0.00,,---,1.73,VWS V14.01,2013-06-13 02:05:00,
2013-06-12 22:06:00,64.4,43.8,28.91,NNW,332,0.0,4.5,47,0.00,,---,1.73,VWS V14.01,2013-06-13 02:06:00,
2013-06-12 22:07:00,64.4,43.8,28.91,NNW,331,4.9,5.4,47,0.00,,---,1.73,VWS V14.01,2013-06-13 02:07:00,
2013-06-12 22:08:00,64.4,43.8,28.91,NW,325,4.9,6.3,47,0.00,,---,1.73,VWS V14.01,2013-06-13 02:08:00,
2013-06-12 22:09:00,64.4,43.8,28.91,NW,320,4.0,4.9,47,0.00,,---,1.73,VWS V14.01,2013-06-13 02:09:00,
2013-06-12 22:10:00,81.1,65.0,28.64,WNW,282,2.7,2.7,58,0.00,,---,0.00,VWS V14.01,2013-06-13 02:10:00,
2013-06-12 22:11:00,64.2,44.1,28.91,NNW,340,4.9,4.9,48,0.00,,---,1.73,VWS V14.01,2013-06-13 02:11:00,
2013-06-12 22:12:00,64.2,44.1,28.91,NNW,333,5.4,8.7,48,0.00,,---,1.73,VWS V14.01,2013-06-13 02:12:00,
2013-06-12 22:13:00,64.2,44.1,28.91,WNW,302,5.4,5.4,48,0.00,,---,1.73,VWS V14.01,2013-06-13 02:13:00,
2013-06-12 22:14:00,64.2,44.1,28.91,NNW,336,2.7,5.8,48,0.00,,---,1.73,VWS V14.01,2013-06-13 02:14:00,
2013-06-12 22:15:00,81.0,64.8,28.61,SSE,150,0.0,0.0,58,0.00,,---,0.00,VWS V14.01,2013-06-13 02:15:00,
2013-06-12 22:16:00,64.0,44.0,28.91,NNW,342,0.0,6.3,48,0.00,,---,1.73,VWS V14.01,2013-06-13 02:16:00,
2013-06-12 22:17:00,64.0,44.0,28.91,NNW,334,0.0,4.9,48,0.00,,---,1.73,VWS V14.01,2013-06-13 02:17:00,
2013-06-12 22:18:00,64.0,44.0,28.91,NNW,337,6.9,7.8,48,0.00,,---,1.73,VWS V14.01,2013-06-13 02:18:00,
2013-06-12 22:19:00,64.0,44.0,28.91,North,351,5.8,6.9,48,0.00,,---,1.73,VWS V14.01,2013-06-13 02:19:00,
2013-06-12 22:20:00,81.0,65.3,28.61,South,173,0.0,0.0,59,0.00,,---,0.00,VWS V14.01,2013-06-13 02:20:00,
2013-06-12 22:21:00,63.9,43.8,28.91,NNW,328,0.0,4.5,48,0.00,,---,1.73,VWS V14.01,2013-06-13 02:21:00,
2013-06-12 22:22:00,63.9,44.3,28.91,NNW,328,0.0,3.1,49,0.00,,---,1.73,VWS V14.01,2013-06-13 02:22:00,
2013-06-12 22:23:00,63.9,44.3,28.91,NW,320,4.5,6.7,49,0.00,,---,1.73,VWS V14.01,2013-06-13 02:23:00,
2013-06-12 22:24:00,63.9,44.3,28.91,NW,320,0.0,4.5,49,0.00,,---,1.73,VWS V14.01,2013-06-13 02:24:00,
2013-06-12 22:25:00,81.0,65.3,28.61,SSE,168,0.0,5.4,59,0.00,,---,0.00,VWS V14.01,2013-06-13 02:25:00,
2013-06-12 22:26:00,63.7,44.7,28.91,NNW,336,4.9,6.3,50,0.00,,---,1.73,VWS V14.01,2013-06-13 02:26:00,
2013-06-12 22:27:00,63.7,44.7,28.91,WNW,300,0.0,4.9,50,0.00,,---,1.73,VWS V14.01,2013-06-13 02:27:00,
2013-06-12 22:28:00,63.5,44.5,28.91,NNW,327,4.9,5.4,50,0.00,,---,1.73,VWS V14.01,2013-06-13 02:28:00,
2013-06-12 22:29:00,63.5,45.1,28.91,NW,324,2.7,4.9,51,0.00,,---,1.73,VWS V14.01,2013-06-13 02:29:00,
2013-06-12 22:30:00,81.0,65.3,28.64,WSW,251,2.7,2.7,59,0.00,,---,0.00,VWS V14.01,2013-06-13 02:30:00,
2013-06-12 22:31:00,63.5,45.1,28.91,NNW,344,2.7,4.9,51,0.00,,---,1.73,VWS V14.01,2013-06-13 02:31:00,
2013-06-12 22:32:00,63.3,44.9,28.91,NNW,344,0.0,4.9,51,0.00,,---,1.73,VWS V14.01,2013-06-13 02:32:00,
2013-06-12 22:33:00,63.3,45.4,28.91,NNW,334,5.8,5.8,52,0.00,,---,1.73,VWS V14.01,2013-06-13 02:33:00,
2013-06-12 22:34:00,63.3,45.4,28.91,WNW,288,6.3,6.3,52,0.00,,---,1.73,VWS V14.01,2013-06-13 02:34:00,
2013-06-12 22:35:00,81.1,65.5,28.64,SSW,200,3.1,6.7,59,0.00,,---,0.00,VWS V14.01,2013-06-13 02:35:00,
2013-06-12 22:36:00,63.3,45.4,28.91,NNW,329,0.0,6.3,52,0.00,,---,1.73,VWS V14.01,2013-06-13 02:36:00,
2013-06-12 22:37:00,63.1,45.2,28.91,NW,319,4.9,6.9,52,0.00,,---,1.73,VWS V14.01,2013-06-13 02:37:00,
2013-06-12 22:38:00,63.1,45.2,28.91,NW,316,0.0,4.9,52,0.00,,---,1.73,VWS V14.01,2013-06-13 02:38:00,
2013-06-12 22:39:00,63.1,45.2,28.91,NW,318,4.0,4.5,52,0.00,,---,1.73,VWS V14.01,2013-06-13 02:39:00,
2013-06-12 22:40:00,81.3,65.1,28.64,WSW,238,4.0,4.9,58,0.00,,---,0.00,VWS V14.01,2013-06-13 02:40:00,
2013-06-12 22:41:00,63.1,45.8,28.91,NNW,327,4.0,4.9,53,0.00,,---,1.73,VWS V14.01,2013-06-13 02:41:00,
2013-06-12 22:42:00,63.0,45.6,28.91,NNW,328,0.0,4.9,53,0.00,,---,1.73,VWS V14.01,2013-06-13 02:42:00,
2013-06-12 22:43:00,63.0,45.6,28.91,NW,326,4.0,4.0,53,0.00,,---,1.73,VWS V14.01,2013-06-13 02:43:00,
2013-06-12 22:44:00,63.0,45.6,28.91,NNW,337,4.0,4.9,53,0.00,,---,1.73,VWS V14.01,2013-06-13 02:44:00,
2013-06-12 22:45:00,81.3,65.1,28.64,West,268,0.0,5.4,58,0.00,,---,0.00,VWS V14.01,2013-06-13 02:45:00,
2013-06-12 22:46:00,63.0,45.6,28.91,North,356,0.0,4.0,53,0.00,,---,1.73,VWS V14.01,2013-06-13 02:46:00,
2013-06-12 22:47:00,62.8,45.4,28.91,NNW,339,4.0,4.0,53,0.00,,---,1.73,VWS V14.01,2013-06-13 02:47:00,
2013-06-12 22:48:00,62.8,45.4,28.91,NW,316,0.0,6.7,53,0.00,,---,1.73,VWS V14.01,2013-06-13 02:48:00,
2013-06-12 22:49:00,62.8,45.4,28.91,NW,316,3.1,3.6,53,0.00,,---,1.73,VWS V14.01,2013-06-13 02:49:00,
2013-06-12 22:50:00,81.3,65.1,28.64,SSW,192,0.0,4.9,58,0.00,,---,0.00,VWS V14.01,2013-06-13 02:50:00,
2013-06-12 22:51:00,62.8,45.9,28.91,NW,317,3.6,4.9,54,0.00,,---,1.73,VWS V14.01,2013-06-13 02:51:00,
2013-06-12 22:52:00,62.8,45.9,28.91,NW,317,4.0,4.0,54,0.00,,---,1.73,VWS V14.01,2013-06-13 02:52:00,
2013-06-12 22:53:00,62.8,45.4,28.91,WNW,288,3.1,4.0,53,0.00,,---,1.73,VWS V14.01,2013-06-13 02:53:00,
2013-06-12 22:54:00,62.8,45.9,28.91,WNW,297,0.0,3.6,54,0.00,,---,1.73,VWS V14.01,2013-06-13 02:54:00,
2013-06-12 22:55:00,81.3,65.1,28.64,SW,226,3.6,3.6,58,0.00,,---,0.00,VWS V14.01,2013-06-13 02:55:00,
2013-06-12 22:56:00,62.6,45.7,28.91,WNW,298,0.0,2.7,54,0.00,,---,1.73,VWS V14.01,2013-06-13 02:56:00,
2013-06-12 22:57:00,62.6,45.7,28.91,NNW,333,2.7,2.7,54,0.00,,---,1.73,VWS V14.01,2013-06-13 02:57:00,
2013-06-12 22:58:00,62.6,45.7,28.91,North,356,0.0,5.8,54,0.00,,---,1.73,VWS V14.01,2013-06-13 02:58:00,
2013-06-12 22:59:00,62.6,45.7,28.91,North,356,2.7,2.7,54,0.00,,---,1.73,VWS V14.01,2013-06-13 02:59:00,
2013-06-12 23:00:00,62.6,46.2,28.91,NNW,335,4.5,4.9,55,0.00,,---,1.73,VWS V14.01,2013-06-13 03:00:00,
2013-06-12 23:01:00,62.4,46.1,28.91,NNW,335,3.6,4.5,55,0.00,,---,1.73,VWS V14.01,2013-06-13 03:01:00,
2013-06-12 23:02:00,62.4,46.1,28.91,NNW,335,0.0,4.5,55,0.00,,---,1.73,VWS V14.01,2013-06-13 03:02:00,
2013-06-12 23:03:00,81.5,64.3,28.64,SSW,203,0.0,4.0,56,0.00,,---,0.00,VWS V14.01,2013-06-13 03:03:00,
2013-06-12 23:04:00,62.4,46.1,28.91,NNW,335,3.6,4.0,55,0.00,,---,1.73,VWS V14.01,2013-06-13 03:04:00,
2013-06-12 23:05:00,62.4,46.5,28.91,NNW,335,0.0,3.6,56,0.00,,---,1.73,VWS V14.01,2013-06-13 03:05:00,
2013-06-12 23:06:00,62.4,46.5,28.91,NNW,335,2.7,3.1,56,0.00,,---,1.73,VWS V14.01,2013-06-13 03:06:00,
2013-06-12 23:07:00,62.4,46.5,28.91,North,356,3.1,4.9,56,0.00,,---,1.73,VWS V14.01,2013-06-13 03:07:00,
2013-06-12 23:08:00,81.7,64.5,28.64,SW,229,2.7,4.9,56,0.00,,---,0.00,VWS V14.01,2013-06-13 03:08:00,
2013-06-12 23:09:00,62.4,46.1,28.91,NNW,336,3.1,4.9,55,0.00,,---,1.73,VWS V14.01,2013-06-13 03:09:00,
2013-06-12 23:10:00,62.2,45.9,28.91,NNW,336,0.0,3.6,55,0.00,,---,1.73,VWS V14.01,2013-06-13 03:10:00,
2013-06-12 23:11:00,62.2,46.4,28.91,NNW,336,0.0,0.0,56,0.00,,---,1.73,VWS V14.01,2013-06-13 03:11:00,
2013-06-12 23:12:00,62.2,46.4,28.91,NNW,336,4.5,4.5,56,0.00,,---,1.73,VWS V14.01,2013-06-13 03:12:00,
2013-06-12 23:13:00,62.2,46.4,28.91,NNW,336,4.9,4.9,56,0.00,,---,1.73,VWS V14.01,2013-06-13 03:13:00,
2013-06-12 23:14:00,62.2,45.9,28.91,NNW,327,4.5,6.3,55,0.00,,---,1.73,VWS V14.01,2013-06-13 03:14:00,
2013-06-12 23:15:00,62.2,45.9,28.91,NW,323,2.7,4.5,55,0.00,,---,1.73,VWS V14.01,2013-06-13 03:15:00,
2013-06-12 23:16:00,62.2,45.9,28.91,NW,313,6.9,6.9,55,0.00,,---,1.73,VWS V14.01,2013-06-13 03:16:00,
2013-06-12 23:17:00,62.2,45.9,28.91,North,0,0.0,6.9,55,0.00,,---,1.73,VWS V14.01,2013-06-13 03:17:00,
2013-06-12 23:18:00,62.2,45.9,28.91,NNW,342,0.0,4.5,55,0.00,,---,1.73,VWS V14.01,2013-06-13 03:18:00,
2013-06-12 23:19:00,62.2,45.9,28.91,North,356,4.9,5.8,55,0.00,,---,1.73,VWS V14.01,2013-06-13 03:19:00,
2013-06-12 23:20:00,62.2,45.9,28.91,NW,320,0.0,4.9,55,0.00,,---,1.73,VWS V14.01,2013-06-13 03:20:00,
2013-06-12 23:21:00,62.2,45.9,28.91,North,351,2.7,4.0,55,0.00,,---,1.73,VWS V14.01,2013-06-13 03:21:00,
2013-06-12 23:22:00,62.2,45.9,28.91,NNW,330,4.0,5.4,55,0.00,,---,1.73,VWS V14.01,2013-06-13 03:22:00,
2013-06-12 23:23:00,62.2,45.9,28.91,NNW,331,4.5,5.4,55,0.00,,---,1.73,VWS V14.01,2013-06-13 03:23:00,
2013-06-12 23:24:00,62.2,45.9,28.91,NNW,330,4.5,5.4,55,0.00,,---,1.73,VWS V14.01,2013-06-13 03:24:00,
2013-06-12 23:25:00,62.2,45.9,28.91,NNW,330,2.7,4.5,55,0.00,,---,1.73,VWS V14.01,2013-06-13 03:25:00,
2013-06-12 23:26:00,62.2,45.9,28.91,NNW,341,4.0,6.9,55,0.00,,---,1.73,VWS V14.01,2013-06-13 03:26:00,
2013-06-12 23:27:00,62.1,45.7,28.91,NNW,334,0.0,4.0,55,0.00,,---,1.73,VWS V14.01,2013-06-13 03:27:00,
2013-06-12 23:28:00,62.1,46.2,28.91,NNW,334,0.0,2.7,56,0.00,,---,1.73,VWS V14.01,2013-06-13 03:28:00,
2013-06-12 23:29:00,62.1,46.2,28.91,NNW,334,0.0,3.6,56,0.00,,---,1.73,VWS V14.01,2013-06-13 03:29:00,
2013-06-12 23:30:00,62.1,46.2,28.91,NNW,339,0.0,4.0,56,0.00,,---,1.73,VWS V14.01,2013-06-13 03:30:00,
2013-06-12 23:31:00,62.1,46.2,28.91,NNW,339,4.0,4.0,56,0.00,,---,1.73,VWS V14.01,2013-06-13 03:31:00,
2013-06-12 23:32:00,61.9,46.0,28.91,NNW,339,0.0,4.0,56,0.00,,---,1.73,VWS V14.01,2013-06-13 03:32:00,
2013-06-12 23:33:00,61.9,46.0,28.91,NNW,339,2.7,4.0,56,0.00,,---,1.73,VWS V14.01,2013-06-13 03:33:00,
2013-06-12 23:34:00,61.9,46.5,28.91,NNW,339,0.0,3.6,57,0.00,,---,1.73,VWS V14.01,2013-06-13 03:34:00,
2013-06-12 23:35:00,61.9,46.5,28.91,NNW,339,0.0,0.0,57,0.00,,---,1.73,VWS V14.01,2013-06-13 03:35:00,
2013-06-12 23:36:00,61.9,46.5,28.91,NNW,339,0.0,2.7,57,0.00,,---,1.73,VWS V14.01,2013-06-13 03:36:00,
2013-06-12 23:37:00,61.9,47.0,28.91,NNW,339,0.0,0.0,58,0.00,,---,1.73,VWS V14.01,2013-06-13 03:37:00,
2013-06-12 23:38:00,61.7,46.8,28.91,NNW,339,0.0,0.0,58,0.00,,---,1.73,VWS V14.01,2013-06-13 03:38:00,
2013-06-12 23:39:00,61.7,46.8,28.91,NNW,339,0.0,0.0,58,0.00,,---,1.73,VWS V14.01,2013-06-13 03:39:00,
2013-06-12 23:40:00,61.7,46.8,28.91,NNW,334,0.0,4.0,58,0.00,,---,1.73,VWS V14.01,2013-06-13 03:40:00,
2013-06-12 23:41:00,61.7,47.2,28.91,NNW,334,0.0,0.0,59,0.00,,---,1.73,VWS V14.01,2013-06-13 03:41:00,
2013-06-12 23:42:00,61.7,47.2,28.91,NNW,334,4.5,4.5,59,0.00,,---,1.73,VWS V14.01,2013-06-13 03:42:00,
2013-06-12 23:43:00,61.7,47.2,28.91,NW,321,4.0,4.5,59,0.00,,---,1.73,VWS V14.01,2013-06-13 03:43:00,
2013-06-12 23:44:00,61.7,47.7,28.91,NW,322,2.7,4.0,60,0.00,,---,1.73,VWS V14.01,2013-06-13 03:44:00,
2013-06-12 23:45:00,61.5,47.5,28.91,NNW,332,0.0,4.9,60,0.00,,---,1.73,VWS V14.01,2013-06-13 03:45:00,
2013-06-12 23:46:00,61.5,47.5,28.91,NNW,332,0.0,0.0,60,0.00,,---,1.73,VWS V14.01,2013-06-13 03:46:00,
2013-06-12 23:47:00,61.5,47.5,28.91,NW,304,0.0,3.6,60,0.00,,---,1.73,VWS V14.01,2013-06-13 03:47:00,
2013-06-12 23:48:00,61.5,48.0,28.91,NW,304,0.0,0.0,61,0.00,,---,1.73,VWS V14.01,2013-06-13 03:48:00,
2013-06-12 23:49:00,61.3,47.8,28.91,NW,304,0.0,0.0,61,0.00,,---,1.73,VWS V14.01,2013-06-13 03:49:00,
2013-06-12 23:50:00,61.3,47.8,28.91,NW,304,0.0,0.0,61,0.00,,---,1.73,VWS V14.01,2013-06-13 03:50:00,
2013-06-12 23:51:00,61.3,47.8,28.91,North,351,4.5,5.8,61,0.00,,---,1.73,VWS V14.01,2013-06-13 03:51:00,
2013-06-12 23:52:00,61.3,47.8,28.91,North,351,0.0,4.5,61,0.00,,---,1.73,VWS V14.01,2013-06-13 03:52:00,
2013-06-12 23:53:00,61.3,48.2,28.91,North,351,0.0,3.1,62,0.00,,---,1.73,VWS V14.01,2013-06-13 03:53:00,
2013-06-12 23:54:00,61.3,48.2,28.91,North,351,0.0,0.0,62,0.00,,---,1.73,VWS V14.01,2013-06-13 03:54:00,
2013-06-12 23:55:00,61.3,48.2,28.91,North,351,0.0,0.0,62,0.00,,---,1.73,VWS V14.01,2013-06-13 03:55:00,
2013-06-12 23:56:00,61.2,48.0,28.91,North,351,2.7,3.6,62,0.00,,---,1.73,VWS V14.01,2013-06-13 03:56:00,
2013-06-12 23:57:00,61.2,48.0,28.91,North,351,0.0,4.0,62,0.00,,---,1.73,VWS V14.01,2013-06-13 03:57:00,
2013-06-12 23:58:00,61.2,48.0,28.91,NW,310,6.3,6.3,62,0.00,,---,1.73,VWS V14.01,2013-06-13 03:58:00,
2013-06-12 23:59:00,61.2,48.0,28.91,NW,324,3.1,6.3,62,0.00,,---,1.73,VWS V14.01,2013-06-13 03:59:00,